[[{"header":{"parameterUnit":"m.s-1","parameterCategory":1,"la1":30.6,"la2":29.2853,"lo1":-89.7004,"lo2":-87.6739,"dy":0.0162,"dx":0.0183,"nx":112,"ny":82,"refTime":"2023-08-19T18:00:00:Z","depth":0,"parameterNumber":2,"parameterNumberName":"U-component_of_WINDS"},"data":[0.0,0.0,0.0,0.0,0.0,0.0,0.0,0.0,0.0,0.0,0.0,0.0,0.0,0.0,0.0,0.0,0.0,0.0,0.0,0.0,0.0,0.0,0.0,0.0,0.0,0.0,0.0,0.0,0.0,0.0,0.0,0.0,0.0,0.0,0.0,0.0,0.0,0.0,0.0,0.0,0.0,0.0,0.0,0.0,0.0,0.0,0.0,0.0,0.0,0.0,0.0,0.0,0.0,0.0,0.0,0.0,0.0,0.0,0.0,0.0,0.0,0.0,0.0,0.0,0.0,0.0,0.0,0.0,0.0,0.0,0.0,0.0,0.0,0.0,0.0,0.0,0.0,0.0,0.0,0.0,0.0,0.0,0.0,0.0,0.0,0.0,0.0,0.0,0.0,0.0,-3.0254,-3.0322,-3.0444,-3.053,-3.0598,-3.0598,-3.0598,-3.0598,0.0,0.0,0.0,0.0,0.0,0.0,0.0,0.0,0.0,0.0,0.0,0.0,0.0,0.0,0.0,0.0,0.0,0.0,0.0,0.0,0.0,0.0,0.0,0.0,0.0,0.0,0.0,0.0,0.0,0.0,0.0,0.0,0.0,0.0,0.0,0.0,0.0,0.0,0.0,0.0,0.0,0.0,0.0,0.0,0.0,0.0,0.0,0.0,0.0,0.0,0.0,0.0,0.0,0.0,0.0,0.0,0.0,0.0,0.0,0.0,0.0,0.0,0.0,0.0,0.0,0.0,0.0,0.0,0.0,0.0,0.0,0.0,0.0,0.0,0.0,0.0,0.0,0.0,0.0,0.0,0.0,0.0,0.0,0.0,0.0,0.0,0.0,0.0,0.0,0.0,0.0,0.0,0.0,0.0,0.0,0.0,0.0,0.0,0.0,0.0,0.0,0.0,0.0,0.0,-3.033,-3.0453,-3.054,-3.0593,-3.0598,-3.0598,-3.0598,-3.0598,0.0,0.0,0.0,0.0,0.0,0.0,0.0,0.0,0.0,0.0,0.0,0.0,0.0,0.0,0.0,0.0,0.0,0.0,0.0,0.0,0.0,0.0,0.0,0.0,0.0,0.0,0.0,0.0,0.0,0.0,0.0,0.0,0.0,0.0,0.0,0.0,0.0,0.0,0.0,0.0,0.0,0.0,0.0,0.0,0.0,0.0,0.0,0.0,0.0,0.0,0.0,0.0,0.0,0.0,0.0,0.0,0.0,0.0,0.0,0.0,0.0,0.0,0.0,0.0,0.0,0.0,0.0,0.0,0.0,0.0,0.0,0.0,0.0,0.0,0.0,0.0,0.0,0.0,0.0,0.0,0.0,0.0,0.0,0.0,0.0,0.0,0.0,0.0,0.0,0.0,0.0,0.0,0.0,0.0,0.0,0.0,0.0,0.0,0.0,0.0,0.0,0.0,0.0,-3.0286,-3.0383,-3.0493,-3.0569,-3.0598,-3.0598,-3.0598,-3.0598,-3.0598,-3.0564,0.0,0.0,0.0,0.0,0.0,0.0,0.0,0.0,0.0,0.0,0.0,0.0,0.0,0.0,0.0,0.0,0.0,0.0,0.0,0.0,0.0,0.0,0.0,0.0,0.0,0.0,0.0,0.0,0.0,0.0,0.0,0.0,0.0,0.0,0.0,0.0,0.0,0.0,0.0,0.0,0.0,0.0,0.0,0.0,0.0,0.0,0.0,0.0,0.0,0.0,0.0,0.0,0.0,0.0,0.0,0.0,0.0,0.0,0.0,0.0,0.0,0.0,0.0,0.0,0.0,0.0,0.0,0.0,0.0,0.0,0.0,0.0,0.0,0.0,0.0,0.0,0.0,0.0,0.0,0.0,0.0,0.0,0.0,0.0,0.0,0.0,0.0,0.0,0.0,0.0,0.0,0.0,0.0,0.0,0.0,0.0,0.0,0.0,0.0,0.0,0.0,0.0,-3.0359,-3.0428,-3.0479,-3.0569,-3.0598,-3.0598,-3.0598,-3.0598,-3.0598,-3.0598,0.0,0.0,0.0,0.0,0.0,0.0,0.0,0.0,0.0,0.0,0.0,0.0,0.0,0.0,0.0,0.0,0.0,0.0,0.0,0.0,0.0,0.0,0.0,0.0,0.0,0.0,0.0,0.0,0.0,0.0,0.0,0.0,0.0,0.0,0.0,0.0,0.0,0.0,0.0,0.0,0.0,0.0,0.0,0.0,0.0,0.0,0.0,0.0,0.0,0.0,0.0,0.0,0.0,0.0,0.0,0.0,0.0,0.0,0.0,0.0,0.0,0.0,0.0,0.0,0.0,0.0,0.0,0.0,0.0,0.0,0.0,0.0,0.0,0.0,0.0,0.0,0.0,0.0,0.0,0.0,0.0,0.0,0.0,0.0,0.0,0.0,0.0,0.0,0.0,0.0,0.0,0.0,0.0,0.0,0.0,0.0,0.0,0.0,0.0,0.0,0.0,0.0,-3.0359,-3.0428,-3.0479,-3.0569,-3.0598,-3.0598,-3.0598,-3.0598,-3.0598,-3.0598,0.0,0.0,0.0,0.0,0.0,0.0,0.0,0.0,0.0,0.0,0.0,0.0,0.0,0.0,0.0,0.0,0.0,0.0,0.0,0.0,0.0,0.0,0.0,0.0,0.0,0.0,0.0,0.0,0.0,0.0,0.0,0.0,0.0,0.0,0.0,0.0,0.0,0.0,0.0,0.0,0.0,0.0,0.0,0.0,0.0,0.0,0.0,0.0,0.0,0.0,0.0,0.0,0.0,0.0,0.0,0.0,0.0,0.0,0.0,0.0,0.0,0.0,0.0,0.0,0.0,0.0,0.0,0.0,0.0,0.0,0.0,0.0,0.0,0.0,0.0,0.0,0.0,0.0,0.0,0.0,0.0,0.0,0.0,0.0,0.0,0.0,0.0,0.0,0.0,0.0,0.0,0.0,0.0,0.0,0.0,0.0,0.0,0.0,0.0,0.0,0.0,0.0,-3.0396,-3.0469,-3.0504,-3.0569,-3.0598,-3.0598,-3.0598,-3.0598,-3.0598,0.0,0.0,0.0,0.0,0.0,0.0,0.0,0.0,0.0,0.0,0.0,0.0,0.0,0.0,0.0,0.0,0.0,0.0,0.0,0.0,0.0,0.0,0.0,0.0,0.0,0.0,0.0,0.0,0.0,0.0,0.0,0.0,0.0,0.0,0.0,0.0,0.0,0.0,0.0,0.0,0.0,0.0,0.0,0.0,0.0,0.0,0.0,0.0,0.0,0.0,0.0,0.0,0.0,0.0,0.0,0.0,0.0,0.0,0.0,0.0,0.0,0.0,0.0,0.0,0.0,0.0,0.0,0.0,0.0,0.0,0.0,0.0,0.0,0.0,0.0,0.0,0.0,0.0,0.0,0.0,0.0,0.0,0.0,0.0,0.0,0.0,0.0,0.0,0.0,0.0,0.0,0.0,0.0,0.0,0.0,0.0,0.0,0.0,0.0,0.0,0.0,0.0,-3.0279,-3.0427,-3.0504,-3.0504,-3.0569,-3.0598,-3.0598,-3.0598,-3.0598,-3.0598,0.0,0.0,0.0,0.0,0.0,0.0,0.0,0.0,0.0,0.0,0.0,0.0,0.0,0.0,0.0,0.0,0.0,0.0,0.0,0.0,0.0,0.0,0.0,0.0,0.0,0.0,0.0,0.0,0.0,0.0,0.0,0.0,0.0,0.0,0.0,0.0,0.0,0.0,0.0,0.0,0.0,0.0,0.0,0.0,0.0,0.0,0.0,0.0,0.0,0.0,0.0,0.0,0.0,0.0,0.0,0.0,0.0,0.0,0.0,0.0,0.0,0.0,0.0,0.0,0.0,0.0,0.0,0.0,0.0,0.0,0.0,0.0,0.0,0.0,0.0,0.0,0.0,0.0,0.0,0.0,0.0,0.0,0.0,0.0,0.0,0.0,0.0,0.0,0.0,0.0,0.0,0.0,0.0,0.0,0.0,0.0,0.0,0.0,0.0,0.0,0.0,0.0,-3.0279,-3.0427,-3.0504,-3.0504,-3.0569,-3.0598,-3.0598,-3.0598,-3.0598,0.0,0.0,0.0,0.0,0.0,0.0,0.0,0.0,0.0,0.0,0.0,0.0,0.0,0.0,0.0,0.0,0.0,0.0,0.0,0.0,0.0,0.0,0.0,0.0,0.0,0.0,0.0,0.0,0.0,0.0,0.0,0.0,0.0,0.0,0.0,0.0,0.0,0.0,0.0,0.0,0.0,0.0,0.0,0.0,0.0,0.0,0.0,0.0,0.0,0.0,0.0,0.0,0.0,0.0,0.0,0.0,0.0,0.0,0.0,0.0,0.0,0.0,0.0,0.0,0.0,0.0,0.0,0.0,0.0,0.0,0.0,0.0,0.0,0.0,0.0,0.0,0.0,0.0,0.0,0.0,0.0,0.0,0.0,0.0,0.0,0.0,0.0,0.0,0.0,0.0,0.0,0.0,0.0,0.0,0.0,0.0,0.0,0.0,0.0,0.0,0.0,0.0,0.0,-3.0279,-3.0427,-3.0504,-3.0504,-3.0569,-3.0598,-3.0598,-3.0598,-3.0598,-3.0598,0.0,0.0,0.0,0.0,0.0,0.0,0.0,0.0,0.0,0.0,0.0,0.0,0.0,0.0,0.0,0.0,0.0,0.0,0.0,0.0,0.0,0.0,0.0,0.0,0.0,0.0,0.0,0.0,0.0,0.0,0.0,0.0,0.0,0.0,0.0,0.0,0.0,0.0,0.0,0.0,0.0,0.0,0.0,0.0,0.0,0.0,0.0,0.0,0.0,0.0,0.0,0.0,0.0,0.0,0.0,0.0,0.0,0.0,0.0,0.0,0.0,0.0,0.0,0.0,0.0,0.0,0.0,0.0,0.0,0.0,0.0,0.0,0.0,0.0,0.0,0.0,0.0,0.0,0.0,0.0,0.0,0.0,0.0,0.0,0.0,0.0,0.0,0.0,0.0,0.0,0.0,0.0,0.0,0.0,0.0,0.0,0.0,0.0,0.0,0.0,0.0,0.0,-3.0286,-3.0419,-3.0504,-3.0495,-3.0554,-3.0598,-3.0598,-3.0598,-3.0598,-3.0598,0.0,0.0,0.0,0.0,0.0,0.0,0.0,0.0,0.0,0.0,0.0,0.0,0.0,0.0,0.0,0.0,0.0,0.0,0.0,0.0,0.0,0.0,0.0,0.0,0.0,0.0,0.0,0.0,0.0,0.0,0.0,0.0,0.0,0.0,0.0,0.0,0.0,0.0,0.0,0.0,0.0,0.0,0.0,0.0,0.0,0.0,0.0,0.0,0.0,0.0,0.0,0.0,0.0,0.0,0.0,0.0,0.0,0.0,0.0,0.0,0.0,0.0,0.0,0.0,0.0,0.0,0.0,0.0,0.0,0.0,0.0,0.0,0.0,0.0,0.0,0.0,0.0,0.0,0.0,0.0,0.0,0.0,0.0,0.0,0.0,0.0,0.0,0.0,0.0,0.0,0.0,0.0,0.0,0.0,0.0,0.0,0.0,0.0,0.0,0.0,0.0,0.0,-3.0292,-3.0431,-3.0528,-3.0612,-3.0675,-3.0733,-3.083,-3.0752,-3.0718,-3.0718,0.0,0.0,0.0,0.0,0.0,0.0,0.0,0.0,0.0,0.0,0.0,0.0,0.0,0.0,0.0,0.0,0.0,0.0,0.0,0.0,0.0,0.0,0.0,0.0,0.0,0.0,0.0,0.0,0.0,0.0,0.0,0.0,0.0,0.0,0.0,0.0,0.0,0.0,0.0,0.0,0.0,0.0,0.0,0.0,0.0,0.0,0.0,0.0,0.0,0.0,0.0,0.0,0.0,0.0,0.0,0.0,0.0,0.0,0.0,0.0,-2.7173,-2.6236,0.0,0.0,0.0,0.0,0.0,0.0,0.0,0.0,0.0,0.0,0.0,0.0,0.0,0.0,0.0,0.0,0.0,0.0,0.0,0.0,0.0,0.0,0.0,0.0,0.0,0.0,0.0,0.0,0.0,0.0,0.0,0.0,0.0,0.0,0.0,0.0,0.0,0.0,0.0,0.0,-3.0298,-3.0431,-3.0765,-3.1448,-3.155,-3.1811,-3.2507,-3.1985,-3.1612,-3.1612,-3.0972,0.0,0.0,0.0,0.0,0.0,0.0,0.0,0.0,0.0,0.0,0.0,0.0,0.0,0.0,0.0,0.0,0.0,0.0,0.0,0.0,0.0,0.0,0.0,0.0,0.0,0.0,0.0,0.0,0.0,0.0,0.0,0.0,0.0,0.0,0.0,0.0,0.0,0.0,0.0,0.0,0.0,0.0,0.0,0.0,0.0,0.0,0.0,0.0,0.0,0.0,0.0,0.0,0.0,0.0,0.0,0.0,0.0,0.0,0.0,-2.8122,-2.7243,0.0,0.0,0.0,0.0,0.0,0.0,0.0,0.0,0.0,0.0,0.0,0.0,0.0,0.0,0.0,0.0,0.0,0.0,0.0,0.0,0.0,0.0,0.0,0.0,0.0,0.0,0.0,0.0,0.0,0.0,0.0,0.0,0.0,0.0,0.0,0.0,0.0,0.0,0.0,0.0,-3.1571,-3.1661,-3.189,-3.2371,-3.244,-3.2668,-3.3113,-3.2749,-3.2516,-3.2516,-3.1711,0.0,0.0,0.0,0.0,0.0,0.0,0.0,0.0,0.0,0.0,0.0,0.0,0.0,0.0,0.0,0.0,0.0,0.0,0.0,0.0,0.0,0.0,0.0,0.0,0.0,0.0,0.0,0.0,0.0,0.0,0.0,0.0,0.0,0.0,0.0,0.0,0.0,0.0,0.0,0.0,0.0,0.0,0.0,0.0,0.0,0.0,0.0,0.0,0.0,0.0,0.0,0.0,0.0,-2.9685,-2.9998,-3.0643,-3.0643,-3.1026,-3.1599,-2.9497,-2.886,-2.9299,-2.8631,0.0,0.0,0.0,0.0,0.0,0.0,0.0,0.0,0.0,0.0,0.0,0.0,0.0,0.0,0.0,0.0,0.0,0.0,0.0,0.0,0.0,0.0,-3.0948,-3.0948,-3.1447,-3.1709,-3.0861,0.0,0.0,0.0,0.0,0.0,0.0,0.0,0.0,0.0,0.0,0.0,-3.2986,-3.3014,-3.3098,-3.33,-3.3374,-3.3471,-3.3611,-3.3518,-3.3434,-3.3434,-3.2484,-3.1921,0.0,0.0,0.0,0.0,0.0,0.0,0.0,0.0,0.0,0.0,0.0,0.0,0.0,0.0,0.0,0.0,0.0,0.0,0.0,0.0,0.0,0.0,0.0,0.0,0.0,0.0,0.0,0.0,0.0,0.0,0.0,0.0,-2.8899,-2.8202,0.0,0.0,0.0,0.0,0.0,0.0,0.0,0.0,0.0,0.0,0.0,0.0,0.0,-3.0966,-3.242,-3.2361,-3.2343,-3.2397,-3.2338,-3.2314,-3.2374,-3.2374,-3.2432,-3.2527,-3.2183,0.0,-3.1159,-3.1045,0.0,0.0,0.0,0.0,0.0,0.0,0.0,0.0,0.0,0.0,0.0,0.0,0.0,0.0,0.0,0.0,0.0,0.0,0.0,0.0,0.0,0.0,-3.2665,-3.2665,-3.2756,-3.2789,-3.2656,-3.2589,-3.2532,-3.2525,-3.2483,-3.2434,0.0,0.0,0.0,0.0,0.0,0.0,-3.2998,-3.3056,-3.3381,-3.4148,-3.4236,-3.456,-3.5316,-3.4738,-3.4329,-3.4329,-3.2866,-3.198,-3.198,-3.1149,0.0,0.0,0.0,0.0,0.0,0.0,0.0,0.0,0.0,0.0,0.0,0.0,0.0,0.0,0.0,0.0,0.0,0.0,0.0,0.0,0.0,0.0,0.0,0.0,0.0,0.0,0.0,0.0,0.0,-2.9026,-2.9389,-2.9073,-2.9373,-2.9258,0.0,0.0,0.0,0.0,0.0,0.0,0.0,0.0,0.0,-3.2139,-3.2108,-3.2404,-3.3155,-3.3042,-3.3216,-3.3627,-3.3561,-3.3731,-3.4119,-3.4119,-3.4083,-3.4039,-3.4039,-3.3849,-3.3457,-3.255,-3.1725,-3.0999,0.0,0.0,0.0,0.0,-3.0087,-3.0683,-3.1559,-3.2227,-3.2763,-3.3262,0.0,0.0,0.0,0.0,0.0,0.0,0.0,-3.2668,-3.3016,-3.3108,-3.3108,-3.3112,-3.3455,-3.3798,-3.3801,-3.4124,-3.4128,-3.3147,-3.2942,-3.2903,-3.2851,-3.326,0.0,0.0,0.0,-3.4391,-3.4444,-3.4491,-3.4665,-3.5088,-3.5161,-3.5349,-3.5727,-3.5439,-3.5219,-3.5219,-3.4086,-3.3196,-3.2749,-3.1895,-3.1192,0.0,0.0,0.0,0.0,0.0,0.0,0.0,0.0,0.0,0.0,0.0,0.0,0.0,0.0,0.0,0.0,0.0,0.0,0.0,0.0,0.0,0.0,0.0,0.0,0.0,0.0,0.0,0.0,-2.9695,-2.9929,-3.0212,-3.0234,-3.0074,0.0,0.0,0.0,0.0,0.0,0.0,-3.3236,-3.3291,-3.3391,-3.3608,-3.3559,-3.363,-3.3834,-3.3719,-3.3954,-3.4499,-3.4436,-3.4684,-3.52,-3.5191,-3.5147,-3.5092,-3.5092,-3.5092,-3.5006,-3.3835,-3.3218,-3.2951,-3.2374,-3.201,-3.1792,-3.1404,-3.1744,-3.2497,-3.3365,-3.413,-3.4835,-3.5494,-3.5558,-3.5282,-3.4686,0.0,0.0,0.0,0.0,-3.3585,-3.3794,-3.3832,-3.3847,-3.3829,-3.4463,-3.5078,-3.5078,-3.5715,-3.5778,-3.4004,-3.3677,-3.3659,-3.3596,-3.4122,0.0,-3.4559,-3.5117,-3.5532,-3.5602,-3.5599,-3.5649,-3.5713,-3.577,-3.5803,-3.5808,-3.5806,-3.5795,-3.5795,-3.4983,-3.4229,-3.3623,-3.2571,-3.1697,-3.104,0.0,0.0,0.0,0.0,0.0,0.0,0.0,0.0,0.0,0.0,0.0,0.0,0.0,0.0,0.0,0.0,0.0,0.0,0.0,0.0,0.0,0.0,0.0,0.0,0.0,0.0,0.0,0.0,0.0,-3.1875,-3.1966,0.0,0.0,0.0,0.0,-3.3256,-3.3266,-3.3287,-3.3294,-3.3291,-3.3644,-3.4424,-3.4432,-3.4798,-3.5572,-3.551,-3.5425,-3.5348,-3.5274,-3.5226,-3.52,-3.5138,-3.5092,-3.5092,-3.5092,-3.5092,-3.5101,-3.5088,-3.4598,-3.3835,-3.3864,-3.3402,-3.2823,-3.3613,-3.402,-3.4291,-3.5179,-3.5546,-3.563,-3.5699,-3.5185,-3.455,-3.4511,-3.3891,0.0,0.0,-3.4433,-3.4608,-3.5379,-3.5573,-3.5573,-3.5568,-3.6232,-3.6876,-3.6871,-3.755,-3.764,-3.5811,-3.5461,-3.5476,-3.5456,0.0,-3.5534,-3.5534,-3.5568,-3.5602,-3.5607,-3.5654,-3.5713,-3.5794,-3.5799,-3.5788,-3.5791,-3.5795,-3.5795,-3.5795,-3.4983,-3.4482,-3.4443,-3.2866,-3.1988,-3.1949,-3.1118,0.0,0.0,0.0,0.0,0.0,0.0,0.0,0.0,0.0,0.0,0.0,0.0,0.0,0.0,0.0,0.0,0.0,0.0,0.0,0.0,0.0,0.0,0.0,0.0,0.0,0.0,0.0,0.0,-3.2906,-3.2936,0.0,-3.3372,-3.3399,-3.3602,-3.4123,-3.4177,-3.4417,-3.4948,-3.4967,-3.5083,-3.5333,-3.5286,-3.5403,-3.5707,-3.5583,-3.5483,-3.5405,-3.5281,-3.5204,-3.5138,-3.5066,-3.5011,-3.4964,-3.4964,-3.4964,-3.4983,-3.5038,-3.4939,-3.4742,-3.4759,-3.4622,-3.4453,-3.4815,-3.502,-3.5185,-3.5535,-3.5674,-3.5796,-3.64,-3.6787,-3.7005,-3.7005,-3.6792,-3.6617,-3.6928,-3.7005,-3.7078,-3.735,-3.7447,-3.7423,-3.739,-3.7599,-3.7846,-3.7846,-3.8073,-3.8107,-3.7456,-3.7348,-3.7312,-3.7276,-3.6842,-3.6505,-3.6508,-3.6026,-3.5684,-3.5723,-3.5757,-3.578,-3.5801,-3.5801,-3.5806,-3.5795,-3.5795,-3.5795,-3.5795,-3.5503,-3.51,-3.4521,-3.3934,-3.3371,-3.2846,-3.1972,-3.1545,0.0,0.0,0.0,0.0,0.0,0.0,0.0,0.0,0.0,0.0,0.0,0.0,0.0,0.0,0.0,0.0,0.0,0.0,0.0,0.0,0.0,0.0,0.0,0.0,0.0,0.0,-3.3512,-3.3795,-3.3841,-3.3942,-3.4213,-3.4245,-3.4455,-3.4995,-3.5048,-3.5287,-3.5862,-3.5875,-3.5853,-3.5795,-3.5732,-3.5689,-3.5672,-3.5571,-3.5597,-3.5813,-3.5662,-3.5715,-3.5949,-3.5846,-3.5799,-3.5742,-3.5742,-3.5742,-3.5751,-3.5799,-3.5893,-3.5955,-3.5401,-3.5417,-3.5737,-3.5816,-3.6092,-3.6459,-3.6543,-3.66,-3.6711,-3.7344,-3.794,-3.8406,-3.8406,-3.8406,-3.8406,-3.8406,-3.8406,-3.8406,-3.8406,-3.8406,-3.8382,-3.8349,-3.8558,-3.8763,-3.8763,-3.8996,-3.919,-3.919,-3.8709,-3.8281,-3.8246,-3.7792,-3.7434,-3.7433,-3.6716,-3.6193,-3.6226,-3.5983,-3.5797,-3.5795,-3.5795,-3.5795,-3.5795,-3.5795,-3.5795,-3.5795,-3.5795,-3.5546,-3.4956,-3.4657,-3.4249,-3.3751,-3.2594,-3.2007,-3.2007,0.0,0.0,0.0,0.0,0.0,0.0,0.0,0.0,0.0,0.0,0.0,0.0,0.0,0.0,0.0,0.0,0.0,0.0,0.0,0.0,0.0,0.0,0.0,-3.3555,-3.3452,-3.3793,-3.4644,-3.4735,-3.5047,-3.5812,-3.5897,-3.5908,-3.5908,-3.5897,-3.5918,-3.594,-3.5877,-3.5854,-3.5872,-3.5829,-3.5761,-3.5684,-3.5617,-3.593,-3.6638,-3.65,-3.6842,-3.7595,-3.746,-3.7401,-3.7401,-3.7401,-3.7401,-3.7401,-3.7401,-3.7479,-3.7452,-3.5888,-3.5837,-3.6654,-3.6716,-3.732,-3.8132,-3.825,-3.836,-3.8445,-3.8445,-3.8464,-3.8484,-3.8484,-3.8484,-3.8484,-3.8484,-3.8484,-3.8484,-3.8484,-3.8484,-3.8484,-3.8484,-3.912,-3.9737,-3.9737,-4.0344,-4.0907,-4.0907,-3.9549,-3.8389,-3.8389,-3.8369,-3.835,-3.835,-3.7652,0.0,-3.7147,-3.6403,-3.5872,-3.5872,-3.5872,-3.5872,-3.5872,-3.5872,-3.5872,-3.5872,-3.5877,-3.5885,-3.5885,-3.5073,-3.4629,-3.4648,-3.2974,-3.2089,-3.205,0.0,0.0,0.0,0.0,0.0,0.0,0.0,0.0,0.0,0.0,0.0,0.0,0.0,0.0,0.0,0.0,0.0,0.0,0.0,0.0,0.0,0.0,-3.4616,-3.4382,-3.4886,-3.5363,-3.5555,-3.5563,-3.5651,-3.5877,-3.5892,-3.5908,-3.5908,-3.5897,-3.6151,-3.6735,-3.6752,-3.7024,-3.7668,-3.7618,-3.7544,-3.7483,-3.7379,-3.7382,-3.7532,-3.7362,-3.7386,-3.7595,-3.746,-3.7401,-3.7401,-3.7401,-3.7401,-3.7401,-3.7401,-3.7479,-3.7566,-3.71,-3.7198,-3.7547,-3.7613,-3.7894,-3.8244,-3.8296,-3.8768,-3.9334,-3.9334,-3.9742,-4.0208,-4.0208,-4.0208,-4.0208,-4.0208,-4.0208,-4.0208,-4.0208,-4.0208,-4.0208,-4.0208,-4.0402,-4.0577,-4.0577,-4.0733,-4.0907,-4.0907,-4.051,-4.0189,-4.0189,-3.9699,-3.9311,-3.9311,-3.8582,-3.8048,-3.8048,-3.7838,-3.7683,-3.7683,-3.7683,-3.7683,-3.7683,-3.77,-3.7689,-3.7689,-3.7685,-3.7696,-3.7684,-3.7467,-3.6766,-3.5564,-3.5071,-3.4211,0.0,0.0,0.0,0.0,0.0,0.0,0.0,0.0,0.0,0.0,0.0,0.0,0.0,0.0,0.0,0.0,0.0,0.0,0.0,0.0,0.0,0.0,-3.4688,-3.5222,-3.5215,-3.5644,-3.5931,-3.5892,-3.5904,-3.5899,-3.5892,-3.622,-3.6434,-3.6434,-3.6764,-3.7154,-3.7626,-3.7638,-3.7871,-3.8387,-3.8336,-3.8266,-3.8197,-3.8067,-3.8146,-3.8438,-3.8239,-3.8328,-3.8641,-3.8522,-3.8452,-3.8452,-3.8452,-3.8462,-3.8493,-3.8493,-3.8573,-3.8623,0.0,0.0,0.0,0.0,-3.9226,-3.9353,-3.9383,-3.9748,-4.0208,-4.0208,-4.0519,-4.0907,-4.0907,-4.0907,-4.0907,-4.0907,-4.0907,-4.0907,-4.0907,-4.0907,-4.0907,-4.0907,-4.0907,-4.0907,-4.0907,-4.0907,-4.0907,-4.0907,-4.0907,0.0,-4.0907,-4.0519,-4.0208,-4.0208,-3.9489,-3.8946,-3.8946,-3.8639,-3.8406,-3.8406,-3.8406,-3.841,-3.8399,-3.8408,0.0,0.0,0.0,-3.8392,-3.8392,-3.8438,0.0,0.0,0.0,-3.5765,-3.4384,-3.402,0.0,0.0,-3.2718,-3.2827,0.0,0.0,0.0,0.0,0.0,0.0,0.0,0.0,0.0,0.0,0.0,0.0,0.0,0.0,0.0,0.0,-3.565,-3.6263,-3.6204,-3.618,-3.616,-3.6063,-3.6131,-3.6181,-3.6198,-3.688,-3.7347,-3.7344,-3.7994,-3.8439,-3.8537,0.0,0.0,0.0,0.0,-3.8567,-3.8501,-3.8357,-3.8633,-3.9322,-3.9134,-3.9414,-4.0117,-3.9984,-3.9922,-3.9922,-3.9922,-3.9954,-4.0007,-4.0017,-4.0108,-4.0063,-3.8602,-3.8529,-3.9391,-4.0349,-4.0751,-4.0812,-4.0877,0.0,0.0,-4.0907,-4.0907,-4.0907,-4.0907,-4.0907,-4.0907,-4.0907,-4.0907,-4.0907,-4.0907,-4.0907,-4.0907,-4.0907,-4.0907,-4.0907,-4.0907,-4.0907,-4.0907,-4.0907,-4.0907,-4.0907,-4.0907,-4.0907,-4.0907,-4.0907,-4.0286,-3.9834,-3.9834,-3.9159,-3.8678,-3.8682,-3.8682,0.0,-3.8688,-3.8696,-3.8685,-3.8688,-3.8691,-3.8691,-3.8691,-3.8763,-3.8724,-3.8555,-3.7854,-3.7056,-3.62,-3.5418,-3.499,-3.487,-3.3902,-3.3495,0.0,0.0,0.0,0.0,0.0,0.0,0.0,0.0,0.0,0.0,0.0,0.0,0.0,0.0,0.0,-3.5758,-3.7013,-3.8017,-3.7993,-3.8004,-3.7743,-3.7022,-3.7567,-3.8007,-3.7994,-3.815,-3.8222,-3.8166,-3.8319,-3.8712,-3.9407,-3.9444,-3.9742,-4.0402,-4.0388,-4.0366,-4.0297,-4.0153,-4.0118,-4.0167,-4.0021,0.0,-4.0176,-4.0106,-4.0057,-4.0057,-4.0057,-4.0067,-4.0077,-4.0147,-4.0234,-4.0336,-3.9991,-4.0049,-4.0342,-4.0604,-4.073,-4.0812,-4.0877,-4.0903,-4.0907,-4.0907,-4.0907,-4.0907,-4.0907,-4.0907,0.0,-4.0907,-4.0907,-4.0907,-4.0907,-4.0907,-4.0907,-4.0907,-4.0907,-4.0907,-4.0907,-4.0907,-4.0907,-4.0907,-4.0907,-4.0907,-4.0907,-4.0907,-4.0907,-4.0907,-4.0771,-4.0674,-4.0674,-4.0519,-4.0431,-4.0492,-4.0496,-4.05,-4.0501,-4.0501,-4.0493,-4.0496,-4.0549,-4.0575,-4.0575,-4.0598,-4.0266,-3.9542,-3.9387,-3.8861,-3.8004,-3.7835,-3.7381,-3.6661,-3.5084,-3.4724,0.0,0.0,0.0,0.0,0.0,0.0,0.0,0.0,0.0,0.0,0.0,-3.5942,0.0,0.0,-3.7247,-3.7242,-3.7954,-3.8508,-3.8508,-3.8847,-3.878,-3.7942,-3.8234,-3.8481,-3.8442,-3.8831,-3.91,-3.9046,-3.9459,-3.9894,-4.0341,-4.0319,-4.048,-4.0888,-4.0898,-4.0862,-4.0804,-4.0707,-4.0607,-4.0508,-4.0356,-4.0279,-4.0253,-4.0177,-4.0148,-4.0148,-4.0148,-4.0167,-4.0215,-4.028,-4.0358,-4.0465,-4.0527,-4.0586,-4.0661,-4.0732,-4.0798,-4.0848,-4.0898,-4.0893,-4.0907,-4.0907,-4.0907,-4.0907,-4.0907,-4.0907,-4.0907,-4.0907,-4.0907,-4.0907,-4.0907,-4.0907,-4.0907,-4.0907,-4.0907,-4.0907,-4.0907,-4.0907,-4.0907,-4.0907,-4.0936,-4.095,-4.095,-4.0954,-4.0935,-4.0912,-4.0941,-4.095,-4.095,-4.0954,-4.0967,-4.0999,-4.0999,-4.1007,-4.0991,-4.1029,-4.1059,-4.1059,-4.1085,-4.1107,-4.1107,-4.1107,-4.0899,-4.046,-4.044,-4.0015,-3.9146,-3.9151,-3.8697,-3.7821,-3.6965,-3.6327,0.0,0.0,0.0,0.0,0.0,0.0,0.0,0.0,-3.7398,-3.7221,-3.7897,-3.8493,-3.849,-3.8639,-3.8748,-3.8748,-3.8895,-3.9003,-3.8981,-3.9536,-3.9701,-3.9052,-3.8994,-3.8967,-3.8906,-3.9548,-3.9957,-3.9929,-4.0578,-4.0978,-4.0978,-4.0941,-4.0907,-4.0907,-4.0903,-4.0858,-4.0818,-4.0756,-4.0694,-4.0629,-4.0508,-4.0408,-4.0351,-4.027,-4.0252,-4.0252,-4.0252,-4.0279,-4.0341,-4.0417,-4.0481,-4.0561,-4.0654,-4.0713,-4.0738,-4.0787,-4.0846,-4.0907,-4.0898,-4.0907,-4.0907,-4.0907,-4.0907,-4.0907,-4.0907,-4.0907,-4.0907,-4.0907,-4.0907,-4.0907,-4.0907,-4.0907,-4.0907,-4.0907,-4.0912,-4.0917,-4.0917,-4.0917,-4.0921,-4.0921,-4.0958,-4.0991,-4.0991,-4.1003,-4.0984,-4.0926,-4.0978,-4.0991,-4.0991,-4.1003,-4.0996,-4.1,-4.1,-4.1011,-4.1009,-4.1062,-4.1107,-4.1107,-4.1107,-4.1091,-4.1094,-4.1094,-4.1103,-4.1098,-4.11,-4.0755,-4.0043,-4.0053,-3.9599,-3.8741,-3.8745,-3.7906,-3.7899,-3.8701,-3.9366,-3.9366,-3.8799,-3.8014,0.0,0.0,-3.8127,-3.7357,-3.7898,-3.8497,-3.8505,-3.9126,-3.9649,-3.9649,-4.0292,-4.0792,-4.0721,-4.0795,-4.082,-4.0727,-4.0715,-4.0719,-4.0719,-4.0796,-4.0822,-4.0761,-4.0854,-4.0912,-4.0912,-4.0907,-4.0907,-4.0907,-4.0903,-4.0908,-4.0897,-4.0823,-4.0758,-4.0687,-4.061,-4.0531,-4.0473,-4.0406,-4.0381,-4.0381,-4.0381,-4.0425,-4.0481,-4.0558,-4.0617,-4.0687,-4.0694,-4.075,-4.0801,-4.0867,-4.0897,-4.0907,-4.0898,-4.0907,-4.0907,-4.0907,-4.0907,-4.0907,-4.0907,-4.0907,-4.0907,-4.0907,-4.0907,-4.0907,-4.0907,-4.0907,-4.0907,-4.0907,-4.0945,-4.0982,-4.0982,-4.0995,-4.0988,-4.0988,-4.0988,-4.0992,-4.0992,-4.0992,-4.0992,-4.0988,-4.1011,-4.0992,-4.0992,-4.0992,-4.1003,-4.1002,-4.1006,-4.1013,-4.1085,-4.1107,-4.1107,-4.1107,-4.1107,-4.1097,-4.1092,-4.1092,-4.1098,-4.1091,-4.1091,-4.1052,-4.0957,-4.0957,-4.0508,-3.965,-3.9658,-3.9135,-3.9784,-4.0274,-4.0567,0.0,-4.0289,-3.9914,-3.9543,-3.975,-3.9917,-3.9541,-3.9755,-4.0006,-4.0019,-4.0312,-4.0565,0.0,-4.0828,-4.1036,-4.1009,-4.1007,-4.1007,-4.101,-4.0969,-4.0936,-4.0945,-4.0945,-4.0941,-4.0907,-4.0907,-4.0907,-4.0907,-4.1374,-4.1665,-4.1665,-4.2151,-4.2388,-4.2363,-4.2322,-4.227,-4.2209,-4.2175,-4.2133,-4.2067,-4.2033,-4.2025,-4.2025,-4.2025,-4.1763,-4.1323,-4.1391,-4.1131,-4.07,-4.073,-4.0796,-4.0867,-4.0897,-4.0893,-4.0893,-4.0903,-4.0907,-4.0907,-4.0907,-4.0907,-4.0907,-4.0907,-4.0907,-4.0907,-4.0907,-4.0907,-4.0912,-4.0945,-4.095,-4.0954,-4.0967,-4.0975,-4.1003,-4.1003,-4.1007,-4.0996,-4.0996,-4.1007,-4.0995,-4.0995,-4.1022,-4.1068,-4.1068,-4.1022,-4.0995,-4.0995,-4.1022,-4.1052,-4.1059,-4.1062,-4.1062,-4.1107,-4.1107,-4.1094,-4.1103,-4.1106,-4.1092,-4.1106,-4.1106,-4.1096,-4.1095,-4.1095,-4.1101,-4.1091,-4.1106,-4.0906,-4.0551,-4.0559,-4.0352,-4.0632,-4.0928,0.0,-4.1078,-4.107,-4.1064,-4.1078,-4.1065,-4.1078,-4.1062,-4.1065,-4.1085,-4.1107,-4.1085,-4.1065,-4.1065,-4.1029,-4.0999,-4.0991,-4.098,-4.0974,-4.0965,-4.0903,-4.098,-4.1213,-4.1,-4.0888,-4.0893,-4.1131,-4.1267,-4.1257,-4.2073,-4.2558,-4.2558,-4.318,-4.3481,-4.3426,-4.3421,-4.3383,-4.3337,-4.3331,-4.3299,-4.3245,-4.3243,-4.3221,-4.3199,-4.3188,-4.2847,-4.2276,-4.2356,-4.2002,-4.1434,-4.1241,-4.1216,-4.1237,-4.099,-4.0908,-4.0907,-4.0907,-4.0907,-4.0907,-4.0907,-4.0907,-4.0907,-4.0907,-4.0907,-4.0907,-4.0917,-4.0936,-4.0945,-4.0987,-4.0995,-4.0999,-4.0992,-4.1,-4.1003,-4.1003,-4.1007,-4.103,-4.103,-4.1025,-4.1032,-4.1032,-4.1062,-4.1107,-4.1107,-4.1065,-4.102,-4.1036,-4.1062,-4.1107,-4.1107,-4.1107,-4.1091,-4.1097,-4.1097,-4.1103,-4.11,-4.11,-4.1108,-4.1105,-4.1105,-4.1095,-4.1095,-4.1095,-4.11,-4.1107,-4.1103,-4.1099,-4.1095,-4.1106,-4.1095,-4.0058,0.0,-4.1088,-4.1013,-4.099,-4.1006,-4.1003,-4.0996,-4.1003,-4.1006,-4.1009,-4.1013,-4.1088,-4.1059,-4.1009,-4.1009,-4.0991,-4.1007,-4.0991,-4.0945,-4.0898,-4.0907,-4.0842,-4.1136,0.0,-4.1291,-4.0823,-4.0902,-4.1683,-4.2165,-4.2151,-4.2986,-4.3466,-4.3466,-4.3486,-4.3505,-4.3505,-4.3426,-4.3396,-4.3391,-4.3402,-4.3404,-4.3379,-4.3324,-4.3252,-4.3199,-4.3204,-4.318,-4.3167,-4.3312,-4.3337,-4.3246,-4.2457,-4.2168,-4.2057,-4.1209,-4.0907,-4.0907,-4.0907,-4.0907,-4.0907,-4.0907,-4.0907,-4.0907,-4.0907,-4.0907,-4.0912,-4.0978,-4.1006,-4.101,-4.1007,-4.0996,-4.0996,-4.0996,-4.0991,-4.1006,-4.1006,-4.1059,-4.1107,-4.1107,-4.1107,-4.1107,-4.1107,-4.1107,-4.1107,-4.1107,-4.1103,-4.1109,-4.1091,-4.1107,-4.1107,-4.1107,-4.1107,-4.1097,-4.1095,-4.1095,-4.11,-4.1091,-4.1093,-4.1105,-4.1108,-4.1108,-4.1095,-4.1107,-4.1107,-4.1107,-4.1107,-4.1107,-4.1107,-4.1107,-4.1101,-4.1095,-4.0533,0.0,-4.1032,-4.1011,-4.1007,-4.1003,-4.0996,-4.0996,-4.0996,-4.1003,-4.054,-4.0326,-4.0917,-4.0544,-4.0326,-4.091,-4.0956,-4.093,-4.0921,-4.0883,-4.1056,-4.1623,-4.1633,0.0,0.0,0.0,0.0,-4.2518,-4.2831,-4.3003,-4.2994,-4.3869,-4.4365,-4.4365,-4.487,-4.5161,-4.5161,-4.5137,-4.5121,-4.5124,-4.507,-4.5058,-4.5058,-4.5034,-4.5002,-4.4994,-4.4989,-4.4665,-4.4123,-4.4189,-4.3872,-4.3379,-4.3109,-4.3014,-4.3029,-4.2728,-4.2267,-4.1684,-4.1102,-4.0907,-4.0907,-4.0907,-4.0907,-4.0912,-4.095,-4.0974,-4.0978,-4.0999,-4.1003,-4.0992,-4.0991,-4.0999,-4.1018,-4.1068,-4.1078,-4.1062,-4.1062,-4.1085,-4.1094,-4.1106,-4.1106,-4.1109,-4.1098,-4.11,-4.11,-4.11,-4.1098,-4.1098,-4.11,-4.11,-4.11,-4.11,-4.11,-4.1103,-4.1108,-4.1096,-4.1107,-4.1097,-4.1104,-4.1093,-4.1102,-4.1105,-4.1109,-4.1093,-4.1094,-4.1094,-4.1093,-4.1093,-4.1093,-4.1094,-4.1093,-4.1091,-4.0484,-4.0769,-4.0991,-4.098,-4.0952,-4.0971,-4.0958,-4.0958,-4.0963,-4.0999,-4.0556,-4.0346,-4.0894,-4.054,-4.0338,-4.0874,-4.0941,-4.0888,-4.0864,-4.1064,-4.1445,-4.2002,-4.2286,-4.2748,0.0,0.0,0.0,-4.3343,-4.3652,-4.3837,-4.3851,-4.4727,-4.5229,-4.522,-4.573,-4.6002,-4.6002,-4.6002,-4.5991,-4.5994,-4.5953,-4.5935,-4.5949,-4.5949,-4.5931,-4.5899,-4.5899,-4.557,-4.5067,-4.5086,-4.48,-4.43,-4.3998,-4.3922,-4.3938,-4.3602,-4.3161,-4.2539,-4.1665,-4.1189,-4.0941,-4.0941,-4.0945,-4.0935,-4.0991,-4.0995,-4.0999,-4.1,-4.1007,-4.1011,-4.1032,-4.1036,-4.1059,-4.1088,-4.1094,-4.11,-4.11,-4.1103,-4.1109,-4.11,-4.1342,-4.1562,-4.1569,-4.1829,-4.2028,-4.203,-4.203,-4.1792,-4.1181,-4.1105,-4.1107,-4.1107,-4.1107,-4.1109,-4.1094,-4.1103,-4.1093,-4.1099,-4.1104,-4.1109,-4.1092,-4.1093,-4.1094,-4.1093,-4.1092,-4.1108,-4.1104,-4.1106,-4.1108,-4.1108,-4.1092,-4.1093,-3.9971,-4.0365,-4.098,-4.0917,-4.0883,-4.0898,-4.0888,-4.0902,-4.0917,-4.0974,-4.0963,-4.0952,0.0,0.0,-4.0915,-4.0907,-4.0898,-4.0867,-4.0807,-4.1485,-4.2002,0.0,0.0,0.0,0.0,0.0,0.0,-4.3478,0.0,-4.4679,-4.4758,-4.5545,-4.6008,-4.5997,-4.6002,-4.6002,-4.6002,-4.6002,-4.6002,-4.6002,-4.6002,-4.6005,-4.5997,-4.5997,-4.596,-4.5911,-4.5911,-4.5892,-4.5911,-4.5966,-4.5997,-4.5919,-4.5151,-4.4851,-4.4753,-4.3938,-4.3602,-4.3452,-4.2622,-4.1805,-4.1123,-4.1084,-4.1077,-4.1054,-4.1015,-4.0996,-4.1,-4.1002,-4.1009,-4.1013,-4.1085,-4.111,-4.1091,-4.1091,-4.1123,-4.1176,-4.1176,-4.1206,-4.1232,-4.1232,-4.1909,-4.2465,-4.2465,-4.3157,-4.3693,-4.3698,-4.3703,-4.3096,-4.1452,-4.1223,-4.1229,-4.1169,-4.1169,-4.1153,-4.1099,-4.1105,-4.1109,-4.1092,-4.1094,-4.1093,-4.1092,-4.1091,-4.1109,-4.1106,-4.1106,-4.1103,-4.1097,-4.1103,-4.1103,-4.1097,-4.1103,-4.1108,-4.0481,-4.0755,-4.0912,-4.0844,-4.0828,-4.0828,-4.0837,-4.0853,-4.0907,-4.0922,-4.0456,-4.0217,0.0,0.0,0.0,-4.0801,-4.0821,0.0,-4.0724,-4.1409,0.0,-4.2676,0.0,-4.4316,-4.5081,-4.5149,0.0,0.0,-4.5309,-4.5504,-4.5512,-4.582,-4.5997,-4.6008,-4.6011,-4.6002,-4.6002,-4.6002,-4.6002,-4.6002,-4.6002,-4.5997,-4.6011,-4.6011,-4.5994,-4.5966,-4.5966,-4.5949,-4.5911,-4.5966,-4.5997,-4.5978,-4.5778,-4.5691,-4.5672,-4.5433,-4.4986,-4.4448,-4.4215,-4.3583,-4.2756,-4.2151,-4.1964,-4.1856,-4.1209,-4.0999,-4.1002,-4.1059,-4.1065,-4.1085,-4.1107,-4.11,-4.1109,-4.1109,-4.1607,-4.2071,-4.2061,-4.2572,-4.3049,-4.3042,-4.3211,-4.3374,-4.3377,-4.3553,-4.369,-4.3691,-4.3691,-4.3535,-4.3082,-4.3044,-4.2792,-4.2147,-4.2069,-4.1815,-4.1151,-4.1094,-4.1093,-4.1093,-4.1109,-4.1104,-4.1103,-4.1094,-4.1106,-4.1104,-4.1097,-4.1092,-4.1107,-4.1092,-4.1092,-4.1107,-4.1099,-4.1109,-4.079,-4.0898,-4.0878,-4.0821,-4.0804,-4.0707,-4.0325,-4.0283,-4.0232,-3.984,-3.9413,0.0,-4.0228,0.0,0.0,0.0,0.0,0.0,-4.0694,-4.1668,-4.2537,0.0,-4.4062,0.0,-4.5352,-4.54,-4.5438,0.0,-4.566,-4.5734,-4.58,-4.5899,-4.5968,-4.5997,-4.6005,-4.6002,-4.6002,-4.6002,-4.6002,-4.6002,-4.6002,-4.6002,-4.6002,-4.6002,-4.5991,-4.5994,-4.5994,-4.5989,-4.5953,-4.5989,-4.5994,-4.6,-4.5997,-4.6002,-4.6002,-4.6002,-4.5735,-4.5361,-4.5366,-4.5068,-4.4478,-4.3265,-4.2864,-4.2774,-4.2279,-4.2146,-4.2153,-4.2188,-4.2195,-4.2198,-4.2223,-4.2237,-4.2247,-4.2247,-4.2611,-4.2976,-4.2967,-4.3342,-4.3818,-4.4198,-4.4277,-4.4374,-4.4741,-4.4798,-4.4798,-4.4798,-4.4794,-4.4793,-4.4799,-4.4156,-4.3511,-4.3021,-4.2963,-4.2611,-4.1733,-4.167,-4.151,-4.112,-4.109,-4.1103,-4.1103,-4.1092,-4.1105,-4.1105,-4.1098,-4.1091,-4.1106,-4.1091,-4.1091,-4.1106,-4.1098,-4.1109,-4.0912,-4.0898,-4.0867,-4.0806,-4.0788,-4.0562,-3.9696,-3.9544,-3.9358,-3.8481,0.0,-3.8678,-3.9548,-3.966,-3.9869,-4.0676,0.0,-4.0726,-4.0822,-4.209,-4.3049,-4.3129,-4.4488,-4.539,-4.5381,-4.5381,-4.541,-4.5476,-4.555,-4.5635,-4.5778,-4.5847,-4.5925,-4.5991,-4.6005,-4.6002,-4.6002,-4.6002,-4.6002,-4.6002,-4.6002,-4.6002,-4.6002,-4.6002,-4.6002,-4.6002,-4.6002,-4.6002,-4.6002,-4.6002,-4.6002,-4.6002,-4.6002,-4.6002,-4.6007,-4.6007,-4.6042,-4.611,-4.6113,-4.6154,-4.5936,-4.4304,-4.3766,-4.3757,-4.364,-4.3604,-4.3611,-4.361,-4.3616,-4.3624,-4.3675,-4.3708,-4.3699,-4.3699,-4.3789,-4.3878,-4.3863,-4.3964,-4.4257,-4.5011,-4.5164,-4.5375,-4.6085,-4.6199,-4.6199,-4.6199,-4.6191,-4.6204,-4.6201,-4.493,-4.4,-4.3874,-4.3853,-4.3503,-4.2645,-4.2579,-4.2202,-4.1326,-4.1274,-4.1228,-4.1091,-4.1108,-4.1108,-4.1108,-4.1086,-4.1081,-4.1089,-4.1098,-4.1098,-4.1087,-4.1098,-4.1083,-4.0849,-4.0818,-4.0801,-4.0796,-4.0803,-4.0577,-3.9691,-3.9544,0.0,0.0,-3.8345,-3.8678,-3.9548,-3.9641,-3.9862,-4.0671,0.0,0.0,0.0,0.0,-4.3221,0.0,0.0,0.0,0.0,0.0,0.0,0.0,-4.5419,-4.5521,-4.5715,-4.5778,-4.5861,-4.5991,-4.6005,-4.6002,-4.6002,-4.6002,-4.6002,-4.6002,-4.6002,-4.6002,-4.6002,-4.6002,-4.6002,-4.6002,-4.6002,-4.6002,-4.6002,-4.6002,-4.6002,-4.6002,-4.6002,-4.6032,-4.6071,-4.6071,-4.609,-4.6113,-4.6154,-4.6185,-4.6033,-4.502,-4.4676,-4.454,-4.3815,-4.3595,-4.361,-4.3593,-4.3631,-4.3689,-4.371,-4.3708,-4.3701,-4.3701,-4.4255,-4.4765,-4.4763,-4.5302,-4.5818,-4.5962,-4.6,-4.6035,-4.6177,-4.6194,-4.6194,-4.6194,-4.6192,-4.6206,-4.6195,-4.5952,-4.5492,-4.4768,-4.469,-4.4358,-4.3539,-4.348,-4.3107,-4.2232,-4.2178,-4.1858,-4.1137,-4.1106,-4.1097,-4.1097,-4.1046,-4.102,-4.1016,-4.1022,-4.1015,-4.1011,-4.1015,-4.1025,-4.0873,-4.0837,-4.0796,-4.079,-4.0797,-4.0455,-3.9124,0.0,0.0,0.0,-3.7023,-3.7447,-3.8788,0.0,0.0,0.0,0.0,0.0,0.0,0.0,0.0,0.0,0.0,0.0,0.0,0.0,-4.5328,-4.5379,-4.54,-4.5465,-4.5648,-4.5773,-4.5893,-4.5991,-4.6005,-4.6002,-4.6002,-4.6002,-4.6002,-4.6002,-4.6002,-4.6002,-4.6002,-4.6002,-4.6002,-4.6002,-4.6002,-4.6002,-4.6002,-4.6002,-4.6026,-4.6042,-4.6042,-4.6076,-4.6099,-4.6099,-4.6113,-4.6154,-4.6185,-4.6201,-4.6121,-4.5703,-4.5589,-4.5491,-4.5079,-4.4941,-4.4963,-4.5009,-4.5028,-4.5042,-4.5044,-4.5055,-4.5058,-4.5058,-4.5348,-4.5611,-4.5623,-4.5923,-4.6201,-4.6209,-4.6206,-4.6201,-4.6206,-4.6203,-4.6203,-4.6203,-4.6203,-4.62,-4.6193,-4.619,-4.6037,-4.5615,-4.5576,-4.5247,-4.4409,-4.4312,-4.3941,-4.3081,-4.3026,-4.2627,-4.1753,-4.1714,-4.1509,-4.1061,-4.1015,-4.0991,-4.0991,-4.1,-4.0996,-4.0996,-4.0996,-4.1,-4.0874,-4.0853,-4.0796,-4.0802,-4.0803,-4.0345,-3.8626,-3.8276,0.0,0.0,-3.5819,-3.6301,-3.7833,0.0,-3.8806,0.0,0.0,0.0,0.0,0.0,0.0,0.0,0.0,0.0,0.0,0.0,0.0,-4.5369,-4.5429,-4.5503,-4.5632,-4.5801,-4.5923,-4.5986,-4.598,-4.6002,-4.6002,-4.6007,-4.6026,-4.6026,-4.6017,-4.6017,-4.6017,-4.6017,-4.6017,-4.6017,-4.6017,-4.6017,-4.6017,-4.6017,-4.6052,-4.6105,-4.6105,-4.6104,-4.6122,-4.6122,-4.6142,-4.6201,-4.6201,-4.6203,-4.6189,-4.6195,-4.6192,-4.6189,-4.6195,-4.6214,-4.6232,-4.6284,-4.6296,-4.6305,-4.6308,-4.6308,-4.6302,-4.6277,-4.6239,-4.6199,-4.6199,-4.6209,-4.6192,-4.6196,-4.6193,-4.6206,-4.6189,-4.6185,-4.6185,-4.6185,-4.6185,-4.6185,-4.6185,-4.6174,-4.6189,-4.6185,-4.6185,-4.5893,-4.5211,-4.5152,-4.4782,-4.3902,-4.3868,-4.3471,-4.2615,-4.2405,-4.1988,-4.1288,-4.1108,-4.1007,-4.1007,-4.0984,-4.098,-4.098,-4.098,-4.098,-4.0703,-4.0849,-4.0801,-4.08,-4.0794,-4.0355,-3.8664,0.0,0.0,-3.6169,-3.5841,-3.6163,-3.7055,-3.7866,-3.869,0.0,0.0,-4.1212,0.0,0.0,0.0,0.0,0.0,0.0,0.0,0.0,0.0,-4.5307,-4.5477,-4.5601,-4.5692,-4.5815,-4.5892,-4.5911,-4.5969,-4.6002,-4.6002,-4.6066,-4.6095,-4.6095,-4.6099,-4.6089,-4.6089,-4.6089,-4.6089,-4.6089,-4.6089,-4.6089,-4.6089,-4.6089,-4.6089,-4.6093,-4.6093,-4.6145,-4.6185,-4.6185,-4.6189,-4.62,-4.62,-4.6192,-4.6206,-4.6199,-4.6197,-4.6209,-4.6199,-4.6232,-4.6284,-4.6297,-4.6306,-4.6308,-4.6305,-4.6295,-4.628,-4.6221,-4.6203,-4.6209,-4.6209,-4.6196,-4.6196,-4.6197,-4.6193,-4.6185,-4.6126,-4.6102,-4.6102,-4.6102,-4.6102,-4.6102,-4.6102,-4.6102,-4.6102,-4.6102,-4.6102,-4.6083,-4.6005,-4.5985,-4.5616,-4.474,-4.4697,-4.4323,-4.3501,-4.2727,-4.226,-4.2183,-4.1407,-4.101,-4.101,-4.0945,-4.0912,-4.0912,-4.0912,-4.0912,-4.0695,-4.0888,-4.0849,-4.0801,-4.0809,-4.0375,-3.8729,0.0,-3.7925,-3.6206,-3.5872,-3.6145,-3.6957,-3.7809,-3.8665,-3.9474,0.0,0.0,0.0,0.0,0.0,0.0,0.0,0.0,0.0,0.0,-4.5309,-4.5361,-4.5503,-4.5624,-4.57,-4.5834,-4.5911,-4.5911,-4.5969,-4.6026,-4.6066,-4.6095,-4.6105,-4.6104,-4.6093,-4.6098,-4.6098,-4.6098,-4.6098,-4.6098,-4.6098,-4.6098,-4.6098,-4.6098,-4.6126,-4.6158,-4.615,-4.6189,-4.6206,-4.6196,-4.6209,-4.6201,-4.6209,-4.624,-4.6251,-4.6267,-4.6252,-4.6254,-4.6252,-4.6279,-4.6305,-4.6308,-4.6307,-4.6297,-4.6293,-4.6273,-4.6228,-4.6217,-4.6203,-4.6206,-4.6196,-4.6204,-4.6193,-4.6154,-4.6149,-4.6126,-4.6098,-4.6098,-4.6098,-4.6098,-4.6098,-4.6098,-4.6098,-4.6104,-4.6095,-4.6095,-4.6108,-4.6098,-4.6098,-4.6098,-4.5942,-4.5611,-4.5579,-4.5196,-4.4359,-4.3996,-4.3559,-4.3034,-4.2174,-4.1723,-4.1723,-4.1165,-4.0898,-4.0903,-4.0903,-4.0873,-4.0649,-4.0924,-4.0893,-4.0835,-4.065,-4.0111,0.0,0.0,-3.7642,-3.621,-3.5891,-3.606,-3.6641,-3.7646,-3.8581,-3.9131,0.0,-4.1161,-4.2467,0.0,0.0,0.0,0.0,0.0,0.0,-4.5165,-4.535,-4.5419,-4.5528,-4.5648,-4.5723,-4.5841,-4.5911,-4.5911,-4.598,-4.6042,-4.61,-4.6114,-4.6128,-4.6126,-4.6134,-4.6134,-4.6134,-4.6134,-4.6134,-4.6134,-4.6134,-4.6138,-4.6127,-4.6127,-4.6158,-4.6196,-4.6209,-4.6206,-4.6201,-4.6209,-4.6219,-4.6225,-4.6238,-4.6266,-4.6294,-4.6305,-4.6308,-4.6308,-4.6308,-4.6308,-4.6307,-4.6304,-4.629,-4.6267,-4.6267,-4.6245,-4.6196,-4.619,-4.6199,-4.6185,-4.6162,-4.6177,-4.6154,-4.6108,-4.6104,-4.6084,-4.6075,-4.6075,-4.6075,-4.6075,-4.6071,-4.6066,-4.6066,-4.6042,-4.6046,-4.6046,-4.6042,-4.6056,-4.6075,-4.6075,-4.6071,-4.6066,-4.6066,-4.5798,-4.5147,-4.4893,-4.4475,-4.3873,-4.2999,-4.2553,-4.2553,-4.1679,-4.1242,-4.126,-4.0989,-4.0842,-4.0545,-4.0941,-4.0909,-4.0909,-4.0298,-3.9477,0.0,0.0,-3.695,-3.608,-3.59,-3.59,-3.5908,-3.728,-3.8387,-3.8316,-3.9661,0.0,-4.1717,0.0,0.0,0.0,0.0,0.0,0.0,-4.4851,-4.5429,-4.5495,-4.5573,0.0,-4.5781,-4.5854,-4.5911,-4.5911,-4.6035,-4.61,-4.61,-4.6165,-4.6209,-4.6209,-4.6208,-4.6196,-4.6196,-4.6196,-4.6196,-4.6196,-4.6196,-4.6206,-4.6203,-4.6203,-4.6192,-4.6206,-4.6206,-4.6197,-4.6206,-4.6206,-4.6239,-4.6294,-4.63,-4.6304,-4.6307,-4.6308,-4.6305,-4.63,-4.6306,-4.6293,-4.63,-4.6306,-4.6258,-4.6206,-4.6206,-4.6193,-4.6192,-4.6193,-4.6209,-4.6181,-4.6122,-4.6098,-4.6108,-4.6105,-4.61,-4.6071,-4.6007,-4.6002,-4.6002,-4.6002,-4.5994,-4.5997,-4.5997,-4.5929,-4.5892,-4.5892,-4.5892,-4.5935,-4.5997,-4.6002,-4.6011,-4.5997,-4.5997,-4.5966,-4.5892,-4.511,-4.4703,-4.4684,-4.3825,-4.3399,-4.3399,-4.2507,-4.2081,-4.2061,-4.1194,-4.0807,-3.8987,-3.9276,-3.9252,-3.9198,-3.9,-3.8591,-3.7769,-3.7371,-3.6956,-3.6075,-3.5906,-3.59,-3.5908,-3.728,-3.8387,-3.8316,-3.9642,0.0,0.0,0.0,0.0,0.0,0.0,0.0,0.0,0.0,-4.5505,-4.5568,-4.5635,-4.5704,-4.5805,-4.5912,-4.5972,-4.5975,-4.6056,-4.6114,-4.6169,-4.6181,-4.6197,-4.6208,-4.6196,-4.6199,-4.6199,-4.6199,-4.6206,-4.6196,-4.6196,-4.6206,-4.6201,-4.6192,-4.6197,-4.6204,-4.6257,-4.6267,-4.6274,-4.6279,-4.6284,-4.6307,-4.6308,-4.6308,-4.6306,-4.6296,-4.6267,-4.6239,-4.6225,-4.623,-4.6238,-4.6233,-4.6215,-4.62,-4.6196,-4.6201,-4.6193,-4.613,-4.6126,-4.6122,-4.6095,-4.609,-4.6085,-4.6037,-4.6035,-4.6019,-4.5994,-4.5953,-4.5922,-4.5922,-4.5929,-4.5937,-4.5932,-4.5899,-4.5887,-4.5841,-4.5841,-4.5867,-4.5935,-4.5922,-4.5935,-4.5923,-4.5925,-4.5925,-4.5893,-4.5622,-4.5447,-4.5447,-4.4589,-4.4144,-4.4144,-4.3324,-4.2602,-4.2002,-4.1094,-4.0662,0.0,-3.8508,-3.85,-3.8449,-3.8192,0.0,0.0,-3.6955,-3.6565,-3.6011,-3.6167,-3.6387,-3.6352,-3.772,-3.8844,-3.8801,-3.9843,0.0,0.0,0.0,0.0,0.0,0.0,0.0,0.0,-4.5505,-4.5568,-4.5631,-4.57,-4.5764,-4.5821,-4.5943,-4.6011,-4.6047,-4.6095,-4.616,-4.6209,-4.6197,-4.6204,-4.6199,-4.6199,-4.6203,-4.6209,-4.6209,-4.6203,-4.6201,-4.6201,-4.6214,0.0,-4.6239,-4.6246,-4.6249,-4.628,-4.6305,-4.6307,-4.6308,-4.6308,-4.6306,-4.6261,-4.6256,-4.6251,-4.6255,-4.6223,-4.6209,-4.6195,-4.6201,-4.6209,-4.6203,-4.6209,-4.6199,-4.6193,-4.6181,-4.6149,-4.6108,-4.6104,-4.6095,-4.6071,-4.6056,-4.6046,-4.6005,-4.5972,-4.5962,-4.5962,-4.5912,-4.5854,-4.5854,-4.5861,-4.586,-4.5819,-4.5805,-4.5764,-4.5719,-4.5719,-4.5734,-4.5786,-4.5822,-4.5867,-4.5854,-4.584,-4.5812,-4.5798,-4.5761,-4.5719,-4.5719,-4.519,-4.4913,-4.4913,-4.4075,-4.3231,-4.2367,-4.1477,-4.1046,0.0,0.0,0.0,0.0,0.0,0.0,0.0,-3.6484,0.0,-3.5909,-3.6582,-3.7186,-3.7108,-3.8466,-3.9607,-3.9591,-4.0178,0.0,0.0,0.0,0.0,0.0,0.0,0.0,-4.535,-4.5568,-4.564,-4.569,-4.5761,-4.5827,-4.5906,-4.5978,-4.6047,-4.6098,-4.6162,-4.6193,-4.6189,-4.6208,-4.6199,-4.6199,-4.6199,-4.619,-4.6209,-4.6209,-4.6206,-4.621,-4.621,-4.6241,-4.6295,-4.6301,-4.6305,-4.6307,-4.6308,-4.6308,-4.6286,-4.6282,-4.6296,-4.6288,-4.6212,-4.6206,-4.6201,-4.6209,-4.6192,-4.6196,-4.6199,-4.6206,-4.6196,-4.6199,-4.6201,-4.6185,-4.6185,-4.6149,-4.6108,-4.6081,-4.6095,-4.6085,-4.6002,-4.5994,-4.5991,-4.5991,-4.5938,-4.5893,-4.5886,-4.584,-4.5793,-4.5793,-4.5795,-4.5758,-4.5692,-4.5613,-4.559,-4.5577,-4.5568,-4.5568,-4.5568,-4.5715,-4.5791,-4.5792,-4.5715,-4.5648,-4.5588,-4.5575,-4.5568,-4.5568,-4.5568,-4.5568,-4.5568,-4.4694,-4.3859,-4.3043,-4.2244,-4.183,-3.6474,0.0,-3.6588,-3.6588,-3.6432,-3.6276,0.0,0.0,-3.596,0.0,0.0,-3.7178,-3.7111,-3.8517,-3.9664,-3.961,0.0,0.0,0.0,0.0,0.0,0.0,0.0,-4.439,-4.5472,-4.564,-4.5695,-4.5776,-4.5793,-4.5854,-4.5964,-4.6051,-4.6114,-4.6177,-4.6196,-4.6206,-4.6192,-4.6196,-4.6206,-4.62,-4.62,-4.6195,-4.6199,-4.6199,-4.6236,-4.6277,-4.6277,-4.6283,-4.6308,-4.6308,-4.6308,-4.6305,-4.6301,-4.6273,-4.6222,-4.6218,-4.6212,-4.6221,-4.6214,-4.6206,-4.6192,-4.6199,-4.6204,-4.6197,-4.6138,-4.6166,-4.6201,-4.6197,-4.6162,-4.6122,-4.6123,-4.6114,-4.6081,-4.6037,-4.6011,-4.6014,-4.6008,-4.5962,-4.5925,-4.5925,-4.5866,-4.5803,-4.5754,-4.5696,-4.5657,-4.5643,-4.5646,-4.5593,-4.5485,-4.5466,-4.5429,-4.537,-4.536,-4.536,-4.536,-4.555,-4.5654,-4.5646,-4.554,-4.5447,-4.5457,-4.539,-4.536,-4.536,-4.536,-4.536,-4.536,-4.4508,-4.3962,-4.3732,-4.2891,-4.2164,-3.5992,-3.6006,-3.5999,-3.5999,-3.5999,-3.5999,0.0,0.0,0.0,0.0,0.0,-3.7297,-3.7637,-3.8793,0.0,0.0,0.0,0.0,0.0,0.0,0.0,0.0,0.0,-4.4094,0.0,-4.5136,-4.5367,-4.5761,-4.5867,-4.591,-4.5997,-4.6099,-4.6158,-4.6201,-4.62,-4.6209,-4.619,-4.62,-4.6206,-4.6195,-4.6203,-4.6216,-4.6253,-4.6243,-4.6277,-4.6307,-4.6308,-4.6308,-4.6305,-4.6279,-4.6254,-4.6249,-4.6239,-4.623,-4.6197,-4.6192,-4.6203,-4.6195,-4.6209,-4.6196,-4.6196,-4.6166,-4.6154,-4.6149,-4.6122,-4.6137,-4.6141,-4.6149,-4.6137,-4.6095,-4.6105,-4.6081,-4.6041,-4.6005,-4.5986,-4.595,-4.595,-4.5886,-4.5805,-4.5805,-4.5723,-4.5635,-4.5573,-4.5521,-4.5495,-4.5467,-4.5458,-4.5429,-4.533,-4.531,-4.5269,-4.5181,-4.5159,-4.5148,-4.5125,-4.5216,-4.533,-4.5448,-4.5361,-4.531,-4.531,-4.5205,-4.5148,-4.5125,-4.5125,-4.5125,-4.5125,-4.4638,-4.4398,-4.4391,-4.3523,-4.2876,-3.5992,-3.5992,-3.5992,-3.5992,-3.5992,-3.5992,0.0,0.0,0.0,0.0,0.0,0.0,0.0,0.0,0.0,0.0,0.0,0.0,0.0,0.0,0.0,0.0,-4.3512,0.0,-4.453,-4.4718,-4.5072,-4.5776,-4.5941,-4.6007,-4.6022,-4.6142,-4.6199,-4.6206,-4.6217,-4.6223,-4.6212,-4.6203,-4.6209,-4.6214,-4.6223,-4.6257,-4.6308,-4.6301,-4.6307,-4.6308,-4.6283,-4.6276,-4.6287,-4.6212,-4.6204,-4.6199,-4.6209,-4.6203,-4.6198,-4.6203,-4.6196,-4.6193,-4.6196,-4.6177,-4.6181,-4.6117,-4.6089,-4.6089,-4.6084,-4.6071,-4.6076,-4.6075,-4.6085,-4.6085,-4.6085,-4.6025,-4.598,-4.598,-4.5932,-4.5873,-4.5873,-4.5761,-4.5676,-4.5668,-4.5566,-4.5457,-4.5381,-4.537,-4.5338,-4.5275,-4.5246,-4.5243,-4.5148,-4.5148,-4.5103,-4.4955,-4.4943,-4.4919,-4.487,-4.4858,-4.4955,-4.5192,-4.517,-4.5136,-4.5125,-4.5003,-4.4919,-4.4858,-4.4858,-4.4858,-4.4858,-4.4858,-4.4846,-4.4846,-4.4095,-4.3667,-3.5992,-3.5992,-3.5992,-3.5992,-3.5992,-3.5992,-3.5992,0.0,0.0,0.0,0.0,0.0,0.0,0.0,0.0,0.0,0.0,0.0,0.0,0.0,0.0,-4.5218,0.0,-4.5376,-4.5559,-4.5599,-4.5719,-4.5944,-4.5991,-4.6061,-4.6158,-4.6192,-4.6193,-4.6201,-4.6255,-4.6282,-4.6279,-4.6231,-4.6238,-4.6277,-4.6278,-4.6294,-4.6308,-4.6308,-4.6304,-4.6308,-4.6239,-4.6228,-4.6216,-4.6192,-4.6203,-4.6192,-4.6209,-4.62,-4.6203,-4.6204,-4.6197,-4.6193,-4.6134,-4.6126,-4.6117,-4.6095,-4.6105,-4.6081,-4.6042,-4.6032,-4.6021,-4.6019,-4.6014,-4.6028,-4.6028,-4.5962,-4.5912,-4.5912,-4.5819,-4.5731,-4.5731,-4.5635,-4.5503,-4.5457,-4.5438,-4.5379,-4.5256,-4.5224,-4.5181,-4.5049,-4.5057,-4.4991,-4.487,-4.4858,-4.4821,-4.4745,-4.4751,-4.4732,-4.4719,-4.4738,-4.4751,-4.4783,-4.4852,-4.4852,-4.477,-4.4764,-4.4751,-4.4738,-4.4738,-4.4738,-4.4738,-4.4672,-4.4646,-4.4646,-4.4447,-4.3968,-3.5992,-3.5992,-3.5992,-3.5992,-3.5992,-3.5992,-3.5992,0.0,0.0,0.0,0.0,0.0,0.0,0.0,0.0,0.0,0.0,0.0,-4.3182,-4.402,-4.4696,0.0,0.0,-4.5116,-4.5157,-4.5228,-4.5475,-4.5958,-4.6081,-4.6126,-4.6196,-4.6196,-4.6217,-4.6258,-4.6275,-4.6302,-4.6302,-4.6262,-4.6266,-4.6308,-4.6299,-4.6307,-4.6308,-4.6301,-4.629,-4.6234,-4.6214,-4.6201,-4.6195,-4.6206,-4.6193,-4.6196,-4.6196,-4.6185,-4.6146,-4.6154,-4.6149,-4.6149,-4.6104,-4.6095,-4.6095,-4.6066,-4.6046,-4.6035,-4.6,-4.5964,-4.5947,-4.5956,-4.5968,-4.5986,-4.5956,-4.5906,-4.584,-4.5798,-4.5715,-4.5627,-4.5556,-4.5467,-4.5361,-4.531,-4.5267,-4.5192,-4.5068,-4.5045,-4.4979,-4.4846,-4.4833,-4.4827,-4.4745,-4.4751,-4.4725,-4.4659,-4.4646,-4.4632,-4.4592,-4.4565,-4.4573,-4.4699,-4.468,-4.4659,-4.4592,-4.4565,-4.4524,-4.4482,-4.4482,-4.4482,-4.4482,-4.444,-4.4444,-4.4444,-4.4416,-4.4195,-3.5992,-3.5992,-3.5992,-3.5992,0.0,-3.5992,-3.5992,0.0,0.0,0.0,0.0,0.0,0.0,0.0,0.0,0.0,0.0,-4.2726,-4.3613,-4.4418,-4.4924,-4.493,-4.4924,-4.4924,-4.4942,-4.5038,-4.5376,-4.5998,-4.6149,-4.6208,-4.6216,-4.622,-4.6258,-4.6308,-4.6305,-4.6294,-4.6295,-4.6302,-4.6303,-4.63,-4.6308,-4.6307,-4.6303,-4.6285,-4.6249,-4.6197,-4.6206,-4.6193,-4.619,-4.6173,-4.6174,-4.6181,-4.6181,-4.6149,-4.6108,-4.6108,-4.6084,-4.6075,-4.6076,-4.6085,-4.6075,-4.6016,-4.5989,-4.5986,-4.5974,-4.5937,-4.5906,-4.5886,-4.5906,-4.5932,-4.5873,-4.5805,-4.5734,-4.5648,-4.5575,-4.5505,-4.539,-4.5279,-4.5203,-4.5148,-4.508,-4.4979,-4.487,-4.4846,-4.4808,-4.468,-4.4685,-4.4672,-4.4659,-4.4646,-4.4619,-4.4565,-4.4537,-4.4496,-4.4458,-4.4416,-4.444,-4.4605,-4.4565,-4.4515,-4.4458,-4.4397,-4.434,-4.43,-4.43,-4.43,-4.43,-4.4285,-4.4255,-4.424,-4.4226,-4.4195,-3.5992,-3.5992,-3.5992,-3.5992,-3.5992,0.0,-3.5992,-3.5992,0.0,0.0,0.0,0.0,0.0,0.0,0.0,0.0,0.0,-4.3695,-4.4574,0.0,-4.5894,-4.5894,-4.5894,-4.5924,-4.5988,-4.5998,-4.6065,-4.6185,-4.6192,-4.6238,-4.6299,-4.6282,-4.6308,-4.63,-4.6308,-4.6296,-4.6301,-4.6307,-4.6308,-4.6308,-4.6308,-4.6302,-4.6303,-4.6243,-4.6203,-4.6206,-4.6208,-4.6193,-4.6189,-4.613,-4.6102,-4.6117,-4.6117,-4.6104,-4.61,-4.61,-4.6066,-4.6007,-4.6002,-4.6005,-4.6003,-4.5997,-4.596,-4.5905,-4.5912,-4.5906,-4.5886,-4.5817,-4.5773,-4.5723,-4.5723,-4.566,-4.5586,-4.5448,-4.537,-4.5288,-4.5224,-4.5114,-4.4991,-4.4931,-4.4858,-4.4796,-4.4738,-4.4706,-4.4699,-4.4619,-4.4605,-4.4578,-4.451,-4.4454,-4.4411,-4.4411,-4.4373,-4.4314,-4.4314,-4.4314,-4.4314,-4.4329,-4.4329,-4.4314,-4.4314,-4.4314,-4.43,-4.43,-4.43,-4.43,-4.43,-4.4244,-4.4135,-4.402,-4.3961,-4.3899,-3.5992,-3.5992,-3.5992,-3.5992,0.0,0.0,0.0,0.0,0.0,0.0,0.0,0.0,0.0,0.0,0.0,0.0,-4.3011,-4.3843,-4.4679,-4.5531,-4.6071,-4.6071,-4.6071,-4.6071,-4.6099,-4.6149,-4.6174,-4.6196,-4.62,-4.6223,-4.6303,-4.6303,-4.6292,-4.6308,-4.63,-4.6305,-4.6307,-4.6307,-4.6301,-4.6297,-4.6295,-4.6285,-4.624,-4.6203,-4.62,-4.6189,-4.6193,-4.6181,-4.6149,-4.6122,-4.6108,-4.609,-4.6056,-4.6047,-4.6032,-4.6035,-4.6025,-4.5989,-4.5953,-4.5935,-4.5943,-4.5944,-4.5893,-4.5841,-4.5845,-4.5776,-4.5704,-4.5687,-4.5601,-4.5521,-4.5556,-4.5531,-4.5448,-4.531,-4.5216,-4.5148,-4.5045,-4.4931,-4.4865,-4.4802,-4.4764,-4.4725,-4.4646,-4.4632,-4.4619,-4.4556,-4.4496,-4.4468,-4.444,-4.4387,-4.4344,-4.4344,-4.4314,-4.427,-4.4244,-4.4147,-4.4101,-4.4039,-4.4165,-4.4244,-4.4244,-4.4119,-4.4039,-4.4039,-4.4011,-4.3979,-4.3979,-4.3966,-4.3934,-4.3883,-4.3851,-4.3818,-3.5992,-3.5992,-3.5992,0.0,0.0,0.0,0.0,0.0,0.0,0.0,0.0,0.0,0.0,0.0,0.0,0.0,-4.3202,-4.3985,-4.5095,-4.5765,-4.6138,-4.6138,-4.6138,-4.6138,-4.6138,-4.616,-4.6216,-4.6222,-4.6223,-4.624,-4.6294,-4.6294,-4.6303,-4.6299,-4.6306,-4.6308,-4.6307,-4.6297,-4.6282,-4.626,-4.626,-4.6231,-4.6192,-4.6196,-4.6192,-4.6177,-4.6169,-4.6141,-4.6104,-4.6075,-4.6061,-4.6066,-4.6016,-4.6005,-4.6005,-4.5972,-4.5974,-4.5962,-4.5925,-4.588,-4.5854,-4.584,-4.5786,-4.5723,-4.5708,-4.5635,-4.5547,-4.5541,-4.5429,-4.5331,-4.5331,-4.5321,-4.527,-4.5148,-4.5049,-4.4967,-4.4858,-4.477,-4.4706,-4.4685,-4.4659,-4.4619,-4.4578,-4.4551,-4.4524,-4.4487,-4.4397,-4.4373,-4.4373,-4.4314,-4.424,-4.418,-4.415,-4.4119,-4.4076,-4.3995,-4.3913,-4.3798,-4.3929,-4.4026,-4.4076,-4.3931,-4.3867,-4.3867,-4.382,-4.3788,-4.3753,-4.3753,-4.3701,-4.3634,-4.3634,-4.3617,-3.5995,-3.6012,0.0,0.0,0.0,0.0,0.0,0.0,0.0,0.0,0.0,0.0,-4.0938,0.0,0.0,-4.3328,-4.3601,-4.4217,-4.5952,-4.6198,-4.6206,-4.6206,-4.6206,-4.6206,-4.6206,-4.6206,-4.6233,-4.6303,-4.6306,-4.6294,-4.6293,-4.6293,-4.6299,-4.6307,-4.6308,-4.6307,-4.6293,-4.6305,-4.6277,-4.6199,-4.6199,-4.6196,-4.6196,-4.6197,-4.6158,-4.6093,-4.609,-4.61,-4.6095,-4.6032,-4.6002,-4.5997,-4.6008,-4.5997,-4.5991,-4.5923,-4.5906,-4.59,-4.59,-4.5852,-4.58,-4.5715,-4.5657,-4.558,-4.5531,-4.5448,-4.539,-4.5399,-4.5307,-4.517,-4.5026,-4.5057,-4.5049,-4.4919,-4.4846,-4.477,-4.4725,-4.4646,-4.4592,-4.4592,-4.4537,-4.4501,-4.4501,-4.444,-4.4397,-4.4397,-4.4344,-4.43,-4.43,-4.4244,-4.4123,-4.3931,-4.3835,-4.3804,-4.3788,-4.3788,-4.3736,-4.3595,-4.3614,-4.3666,-4.3788,-4.3788,-4.3788,-4.3788,-4.3788,-4.3736,-4.3614,-4.3614,-4.3494,-4.3303,-4.3303,-4.3268,-3.5995,0.0,0.0,0.0,0.0,0.0,0.0,0.0,0.0,0.0,0.0,-4.08,-4.1055,0.0,0.0,-4.3331,-4.3638,-4.425,-4.5967,-4.6203,-4.6206,-4.6206,-4.6206,-4.6206,-4.6206,-4.6236,-4.6282,-4.6303,-4.6298,-4.6308,-4.6293,-4.6301,-4.6306,-4.6308,-4.6306,-4.6296,-4.6305,-4.625,-4.6219,-4.6199,-4.615,-4.6134,-4.6134,-4.613,-4.6113,-4.609,-4.61,-4.6071,-4.6032,-4.6,-4.6008,-4.6008,-4.5955,-4.5931,-4.5925,-4.5848,-4.5833,-4.5817,-4.5719,-4.568,-4.564,-4.553,-4.5485,-4.5457,-4.539,-4.5269,-4.5184,-4.5192,-4.5068,-4.4907,-4.4858,-4.4796,-4.4764,-4.4764,-4.4712,-4.4659,-4.4632,-4.4578,-4.4528,-4.4468,-4.444,-4.4411,-4.4373,-4.4344,-4.4329,-4.4329,-4.4192,-4.4055,-4.3947,-4.3934,-4.3867,-4.3716,-4.3664,-4.3632,-4.3583,-4.3496,-4.3409,-4.3322,-4.3286,-4.334,-4.3566,-4.3496,-4.3443,-4.3443,-4.3392,-4.3375,-4.3322,-4.3269,-4.3233,-4.316,-4.3068,-4.3013,-3.6527,0.0,0.0,0.0,0.0,0.0,0.0,0.0,0.0,0.0,0.0,-4.1108,-4.1092,-4.1098,0.0,-4.3368,-4.367,-4.4282,-4.6002,-4.6238,-4.6243,-4.6243,-4.6243,-4.6243,-4.6243,-4.6273,-4.6298,-4.6298,-4.6291,-4.6299,-4.6302,-4.6307,-4.6308,-4.6305,-4.627,-4.6251,-4.6255,-4.6193,-4.6158,-4.6162,-4.6117,-4.6095,-4.6066,-4.6099,-4.609,-4.6061,-4.6051,-4.6041,-4.6,-4.5972,-4.596,-4.5955,-4.5886,-4.5854,-4.5847,-4.5764,-4.5712,-4.5703,-4.5573,-4.553,-4.5513,-4.5351,-4.5291,-4.526,-4.5203,-4.5091,-4.4967,-4.4967,-4.487,-4.4745,-4.4738,-4.4646,-4.4578,-4.4646,-4.4592,-4.4524,-4.4524,-4.4473,-4.4416,-4.4373,-4.4373,-4.4358,-4.43,-4.4222,-4.4177,-4.4177,-4.3989,-4.3795,-4.3734,-4.3651,-4.3548,-4.3443,-4.3427,-4.3375,-4.3268,-4.3196,-4.3087,-4.2975,-4.2918,-4.2937,-4.3013,-4.3105,-4.3142,-4.3142,-4.3087,-4.3068,-4.3031,-4.2955,-4.2879,-4.2804,-4.2709,-4.249,-3.7295,0.0,0.0,0.0,0.0,0.0,0.0,0.0,0.0,0.0,0.0,-4.1109,-4.1096,-4.1152,-4.1759,-4.3436,-4.376,-4.4393,-4.6071,-4.6294,-4.6302,-4.6302,-4.6302,-4.6302,-4.6303,-4.6309,-4.6294,-4.6295,-4.6301,-4.6306,-4.6308,-4.6307,-4.6301,-4.6298,-4.6238,-4.6209,-4.6196,-4.6135,-4.6102,-4.6095,-4.6095,-4.6056,-4.5991,-4.6061,-4.6061,-4.5997,-4.5983,-4.5991,-4.5991,-4.5917,-4.588,-4.5873,-4.5801,-4.5786,-4.5771,-4.5629,-4.5573,-4.5559,-4.5419,-4.5361,-4.5348,-4.5203,-4.5125,-4.5068,-4.4979,-4.487,-4.4757,-4.4757,-4.4725,-4.4659,-4.4592,-4.4542,-4.4501,-4.4551,-4.4482,-4.4383,-4.4383,-4.4344,-4.43,-4.4285,-4.4285,-4.427,-4.427,-4.4116,-4.3974,-4.3958,-4.373,-4.3563,-4.3563,-4.3373,-4.3214,-4.3142,-4.3086,-4.2993,-4.2862,-4.2862,-4.2767,-4.257,-4.2532,-4.247,-4.2267,-4.2613,-4.2862,-4.2862,-4.2862,-4.2823,-4.2745,-4.2609,-4.2492,-4.2371,-4.2308,-4.1818,0.0,0.0,0.0,0.0,0.0,0.0,0.0,0.0,0.0,0.0,0.0,-4.1109,-4.1096,-4.1668,-4.2477,-4.3528,-4.428,-4.5086,-4.6142,-4.63,-4.6303,-4.6309,-4.6291,-4.6293,-4.6297,-4.63,-4.6301,-4.6305,-4.6307,-4.6308,-4.6305,-4.6296,-4.628,-4.6216,-4.6209,-4.618,-4.6115,-4.6117,-4.6061,-4.6026,-4.6025,-4.5997,-4.591,-4.5986,-4.6016,-4.6003,-4.5935,-4.5917,-4.5917,-4.5854,-4.5827,-4.5821,-4.5692,-4.564,-4.5637,-4.5494,-4.5438,-4.5419,-4.5216,-4.5151,-4.5136,-4.4943,-4.487,-4.4846,-4.477,-4.4672,-4.4565,-4.4565,-4.4487,-4.4368,-4.4373,-4.4358,-4.4344,-4.4358,-4.4344,-4.4329,-4.4329,-4.4314,-4.4285,-4.4229,-4.415,-4.4036,-4.4011,-4.3915,-4.3802,-4.3632,-4.3427,-4.3286,-4.3215,-4.3068,-4.292,-4.2765,-4.2727,-4.2629,-4.2432,-4.243,-4.2369,-4.2207,-4.2207,-4.2103,-4.1909,-4.2228,-4.243,-4.243,-4.243,-4.243,-4.2409,-4.2269,-4.2187,-4.2166,-4.1995,-4.1485,0.0,0.0,0.0,0.0,0.0,0.0,0.0,0.0,0.0,0.0,-4.1101,-4.1099,-4.1094,-4.1819,-4.2682,-4.356,-4.4426,-4.5291,-4.6189,-4.629,-4.6294,-4.6297,-4.63,-4.6302,-4.6305,-4.6307,-4.6308,-4.6308,-4.6307,-4.6281,-4.6245,-4.6247,-4.6226,-4.6154,-4.6158,-4.6126,-4.6041,-4.6042,-4.6025,-4.5958,-4.5941,-4.5923,-4.5892,-4.5941,-4.5953,-4.5955,-4.5918,-4.5874,-4.5854,-4.58,-4.5757,-4.5692,-4.558,-4.553,-4.5485,-4.5311,-4.5248,-4.5224,-4.5033,-4.4955,-4.4919,-4.4745,-4.4685,-4.4646,-4.4578,-4.4482,-4.4401,-4.4401,-4.4358,-4.43,-4.43,-4.4289,-4.4244,-4.4162,-4.4211,-4.4259,-4.4259,-4.418,-4.4104,-4.4058,-4.391,-4.3795,-4.3765,-4.3634,-4.3481,-4.334,-4.3087,-4.2899,-4.2879,-4.2727,-4.2552,-4.2371,-4.2351,-4.2287,-4.2079,-4.2058,-4.1973,-4.1784,-4.1762,-4.1697,-4.152,-4.1679,-4.1831,-4.1956,-4.1956,-4.1956,-4.1956,-4.1827,-4.1762,-4.1762,-4.1587,-4.0907,0.0,0.0,0.0,0.0,0.0,0.0,0.0,0.0,0.0,0.0,-4.109,-4.1109,-4.1109,-4.1949,-4.2866,-4.357,-4.4552,-4.5475,-4.6199,-4.6301,-4.6303,-4.6305,-4.6307,-4.6308,-4.6308,-4.6288,-4.6283,-4.6277,-4.6272,-4.6255,-4.6198,-4.618,-4.6153,-4.6076,-4.6071,-4.6051,-4.5986,-4.5983,-4.5955,-4.5899,-4.5886,-4.5886,-4.5886,-4.588,-4.5861,-4.5873,-4.5874,-4.5833,-4.5771,-4.5773,-4.5684,-4.5554,-4.5485,-4.5429,-4.5331,-4.514,-4.5068,-4.5014,-4.4827,-4.4751,-4.4738,-4.4592,-4.4496,-4.4458,-4.4397,-4.4344,-4.427,-4.427,-4.427,-4.4255,-4.424,-4.418,-4.4123,-4.3989,-4.4023,-4.4089,-4.4123,-4.3979,-4.3849,-4.3849,-4.3682,-4.3529,-4.3495,-4.3268,-4.3087,-4.3012,-4.2727,-4.2512,-4.2512,-4.2348,-4.2163,-4.2019,-4.1998,-4.1892,-4.1697,-4.1692,-4.1604,-4.1363,-4.138,-4.1318,-4.1203,-4.1163,-4.1249,-4.1448,-4.1515,-4.152,-4.152,-4.1403,-4.1335,-4.1335,-4.1064,-4.0197,0.0,0.0,0.0,0.0,0.0,0.0,0.0,0.0,0.0,0.0,-4.1093,-4.1109,-4.1109,-4.2423,-4.3559,-4.3676,-4.5067,-4.6166,-4.6286,-4.6306,-4.6307,-4.6308,-4.6306,-4.6303,-4.6299,-4.6252,-4.62,-4.6219,-4.6216,-4.6178,-4.6126,-4.6103,-4.6089,-4.6017,-4.6005,-4.5972,-4.5904,-4.5917,-4.5918,-4.5906,-4.5838,-4.581,-4.581,-4.5754,-4.5757,-4.5821,-4.5817,-4.5739,-4.5621,-4.5637,-4.5549,-4.5429,-4.536,-4.5256,-4.5117,-4.4979,-4.4883,-4.4808,-4.4605,-4.4537,-4.4528,-4.4387,-4.4329,-4.4329,-4.4314,-4.4274,-4.4214,-4.4214,-4.4135,-4.402,-4.3961,-4.3963,-4.3931,-4.3835,-4.3751,-4.3716,-4.3837,-4.3751,-4.3647,-4.3647,-4.3426,-4.3196,-4.3013,-4.2824,-4.2688,-4.2668,-4.2371,-4.2166,-4.2166,-4.1995,-4.1823,-4.1692,-4.1542,-4.1431,-4.13,-4.1277,-4.1277,-4.1232,-4.1232,-4.118,-4.1117,-4.1006,-4.0894,-4.0817,-4.1111,-4.1255,-4.1255,-4.1192,-4.114,-4.1123,-4.0221,-3.9336,0.0,0.0,0.0,0.0,0.0,0.0,0.0,0.0,0.0,-4.1103,-4.1104,-4.1104,-4.1101,-4.2137,-4.3135,-4.3627,-4.4743,-4.5741,-4.623,-4.6307,-4.6305,-4.6301,-4.6269,-4.6241,-4.6246,-4.6223,-4.6178,-4.6144,-4.6144,-4.6111,-4.6056,-4.6047,-4.6016,-4.5953,-4.5935,-4.5937,-4.5899,-4.5899,-4.5874,-4.5838,-4.5781,-4.5723,-4.57,-4.5657,-4.5653,-4.5685,-4.5688,-4.5616,-4.5484,-4.5485,-4.54,-4.5237,-4.517,-4.5057,-4.4907,-4.4751,-4.4659,-4.4605,-4.4426,-4.4387,-4.4373,-4.4289,-4.4244,-4.4226,-4.4147,-4.4089,-4.4026,-4.4026,-4.3963,-4.3883,-4.3851,-4.3783,-4.3716,-4.3651,-4.3496,-4.3375,-4.3394,-4.3393,-4.3321,-4.3178,-4.2994,-4.2805,-4.2652,-4.2452,-4.231,-4.231,-4.204,-4.1805,-4.1805,-4.1609,-4.1453,-4.1386,-4.1318,-4.1249,-4.1152,-4.1129,-4.1082,-4.0942,-4.0918,-4.0871,-4.0769,-4.0704,-4.0655,-4.0583,-4.0734,-4.0813,-4.0813,-4.0776,-4.0769,-4.0752,-4.0312,-3.9435,0.0,0.0,0.0,0.0,0.0,0.0,0.0,0.0,0.0,0.0,-4.1093,-4.1094,-4.1093,-4.1815,-4.2615,-4.3261,-4.4297,-4.5233,-4.5873,-4.6156,-4.6264,-4.6261,-4.6214,-4.6178,-4.6177,-4.6174,-4.615,-4.6084,-4.6069,-4.6052,-4.598,-4.5972,-4.5943,-4.5899,-4.5886,-4.5867,-4.5873,-4.5859,-4.5824,-4.5758,-4.5692,-4.5624,-4.5545,-4.5556,-4.5538,-4.5502,-4.5537,-4.5475,-4.5361,-4.5331,-4.5227,-4.5045,-4.4955,-4.4833,-4.4693,-4.4537,-4.4473,-4.443,-4.4333,-4.427,-4.4274,-4.4169,-4.4104,-4.4089,-4.3992,-4.3913,-4.3883,-4.3832,-4.3783,-4.3736,-4.3686,-4.3582,-4.3478,-4.341,-4.3251,-4.3087,-4.303,-4.3049,-4.2957,-4.2725,-4.257,-4.2412,-4.2269,-4.2103,-4.1956,-4.1934,-4.1675,-4.1498,-4.1498,-4.1318,-4.118,-4.118,-4.114,-4.1088,-4.1,-4.1,-4.0905,-4.0673,-4.0648,-4.0607,-4.0493,-4.0419,-4.0412,-4.0412,-4.0337,-4.0345,-4.051,-4.0419,-4.0412,-4.0395,-4.015,-3.9302,0.0,0.0,0.0,0.0,0.0,0.0,0.0,0.0,0.0,0.0,-4.1107,-4.11,-4.1101,-4.1811,-4.24,-4.2457,-4.3897,-4.5021,-4.5063,-4.5714,-4.6206,-4.6212,-4.6157,-4.6107,-4.6111,-4.6104,-4.6085,-4.6014,-4.6003,-4.5991,-4.5917,-4.5906,-4.5906,-4.59,-4.5847,-4.5812,-4.5815,-4.5739,-4.5673,-4.5605,-4.5601,-4.5531,-4.5419,-4.5409,-4.5348,-4.5235,-4.5351,-4.538,-4.5307,-4.517,-4.5026,-4.4895,-4.4776,-4.4632,-4.4515,-4.4426,-4.4354,-4.43,-4.4229,-4.4199,-4.4169,-4.3979,-4.3931,-4.3915,-4.3837,-4.3804,-4.3769,-4.3647,-4.3595,-4.358,-4.3373,-4.3268,-4.3196,-4.3141,-4.2973,-4.2822,-4.2821,-4.2725,-4.257,-4.2369,-4.2225,-4.2061,-4.1866,-4.1714,-4.1582,-4.1471,-4.1318,-4.1232,-4.1232,-4.1152,-4.1093,-4.1093,-4.0982,-4.0847,-4.0721,-4.0721,-4.0673,-4.0534,-4.051,-4.051,-4.051,-4.0263,-4.0121,-4.0121,-3.9884,-3.9995,-4.051,-4.0246,-4.0121,-4.0096,-3.9152,-3.8288,0.0,0.0,0.0,0.0,0.0,0.0,0.0,0.0,-4.1103,-4.11,-4.1108,-4.1094,-4.1094,-4.1363,-4.1741,-4.2313,-4.2912,-4.3507,-4.4028,-4.48,-4.5301,-4.5293,-4.5749,-4.6042,-4.6047,-4.6005,-4.5955,-4.5945,-4.59,-4.5867,-4.5833,-4.5791,-4.5769,-4.5769,-4.5754,-4.5712,-4.5665,-4.5643,-4.5584,-4.5465,-4.5477,-4.538,-4.5216,-4.5213,-4.5136,-4.5003,-4.5007,-4.5038,-4.5045,-4.4962,-4.4796,-4.4632,-4.4592,-4.4482,-4.4358,-4.4285,-4.4192,-4.4101,-4.4042,-4.3963,-4.3934,-4.3869,-4.3783,-4.3697,-4.3682,-4.3582,-4.3462,-4.3375,-4.3304,-4.3251,-4.3087,-4.292,-4.2747,-4.253,-4.2391,-4.2328,-4.2184,-4.2207,-4.2207,-4.2016,-4.1866,-4.1736,-4.1582,-4.1431,-4.134,-4.1295,-4.1198,-4.1146,-4.1146,-4.0959,-4.084,-4.084,-4.0704,-4.0631,-4.0583,-4.0558,-4.0485,-4.0263,-4.0246,-4.0171,-3.9995,-3.9893,-3.9807,-3.972,-3.9616,-3.972,-3.9986,-3.9884,-3.9807,-3.972,-3.9349,-3.8711,0.0,0.0,0.0,0.0,0.0,0.0,0.0,0.0,-4.1101,-4.1095,-4.1074,-4.1073,-4.1067,-4.1042,-4.1225,-4.1839,-4.2184,-4.2542,-4.3058,-4.3817,-4.4447,-4.4734,-4.5218,-4.5638,-4.5902,-4.5893,-4.5854,-4.5829,-4.5783,-4.5776,-4.5765,-4.5723,-4.57,-4.5665,-4.564,-4.5599,-4.5537,-4.5522,-4.5438,-4.5301,-4.5298,-4.5192,-4.4991,-4.4991,-4.4938,-4.4802,-4.4738,-4.4764,-4.484,-4.4738,-4.4605,-4.4473,-4.4416,-4.4329,-4.4192,-4.4119,-4.4026,-4.3929,-4.383,-4.3767,-4.3718,-4.3651,-4.3548,-4.3461,-4.3444,-4.3303,-4.316,-4.3068,-4.2994,-4.2899,-4.2767,-4.2573,-4.2351,-4.2061,-4.1956,-4.187,-4.1714,-4.1823,-4.187,-4.1692,-4.156,-4.1431,-4.133,-4.1221,-4.1157,-4.1111,-4.1012,-4.0976,-4.0976,-4.0769,-4.0648,-4.0648,-4.051,-4.0412,-4.0387,-4.0337,-4.0213,-3.9969,-3.9935,-3.9807,-3.9625,-3.952,-3.9415,-3.9272,-3.9202,-3.9228,-3.9265,-3.9415,-3.9388,-3.9255,-3.9202,-3.8698,0.0,0.0,0.0,0.0,0.0,0.0,-4.1095,0.0,-4.1095,-4.1092,-4.1049,-4.0999,-4.0996,-4.0937,-4.0917,-4.0979,-4.1708,-4.2233,-4.2173,-4.2845,-4.3663,-4.4511,-4.4608,-4.4905,-4.5691,-4.5783,-4.5765,-4.5708,-4.57,-4.57,-4.57,-4.57,-4.5657,-4.5596,-4.553,-4.5448,-4.54,-4.539,-4.5297,-4.5084,-4.5091,-4.4979,-4.4783,-4.4783,-4.4725,-4.4578,-4.451,-4.4565,-4.4672,-4.4556,-4.444,-4.4368,-4.424,-4.4119,-4.3989,-4.3913,-4.3851,-4.3769,-4.3649,-4.3597,-4.3545,-4.3355,-4.3232,-4.3178,-4.3123,-4.2994,-4.2881,-4.2803,-4.2686,-4.2532,-4.2412,-4.2228,-4.2019,-4.1823,-4.1692,-4.156,-4.1426,-4.1493,-4.1538,-4.1426,-4.1295,-4.118,-4.1117,-4.1087,-4.1047,-4.0912,-4.0793,-4.0697,-4.0697,-4.0558,-4.0485,-4.0485,-4.0362,-4.0213,-4.007,-3.9961,-3.9824,-3.9677,-3.9563,-3.9475,-3.9475,-3.9148,-3.8914,-3.8777,-3.8667,-3.85,-3.8363,-3.8794,-3.8914,-3.8777,-3.8639,-3.8098,-3.8434,0.0,0.0,0.0,0.0,0.0,0.0,0.0,0.0,-4.0968,-4.0941,-4.093,-4.0922,-4.0878,-4.0829,-4.0845,-4.1107,-4.1262,-4.1198,-4.1881,-4.2479,-4.2711,-4.3807,-4.4614,-4.4839,-4.5333,-4.566,-4.5637,-4.5584,-4.553,-4.5494,-4.5485,-4.5466,-4.5458,-4.5448,-4.537,-4.5267,-4.5213,-4.5114,-4.4943,-4.4846,-4.4738,-4.4578,-4.4537,-4.4468,-4.4387,-4.4373,-4.4296,-4.4185,-4.431,-4.4252,-4.4113,-4.4085,-4.3976,-4.3835,-4.3732,-4.3632,-4.3549,-4.3375,-4.3286,-4.3214,-4.305,-4.2957,-4.2899,-4.2765,-4.2631,-4.2494,-4.2331,-4.2269,-4.2166,-4.1892,-4.1697,-4.1565,-4.1391,-4.1346,-4.1295,-4.1192,-4.121,-4.1233,-4.1186,-4.1146,-4.1099,-4.0982,-4.0864,-4.081,-4.0769,-4.0631,-4.0558,-4.0558,-4.0345,-4.0196,-4.0196,-4.0011,-3.9807,-3.9694,-3.9616,-3.9484,-3.9212,-3.9077,-3.8942,-3.886,-3.8655,-3.8488,-3.8315,-3.8173,-3.8017,-3.7905,-3.8363,-3.8415,-3.8144,-3.7857,-3.7345,0.0,0.0,0.0,0.0,0.0,0.0,-4.0967,-4.0964,-4.0941,0.0,-4.0874,-4.0868,-4.0856,-4.0809,-4.0767,-4.075,-4.0775,-4.0781,-4.0767,-4.1139,-4.1538,-4.1884,-4.2779,-4.3639,-4.4317,-4.4757,-4.5166,-4.5485,-4.5477,-4.5438,-4.5361,-4.5341,-4.53,-4.5286,-4.5254,-4.517,-4.5026,-4.4991,-4.4883,-4.4719,-4.4659,-4.4537,-4.4416,-4.4387,-4.4281,-4.4177,-4.4177,-4.407,-4.3913,-4.3974,-4.3958,-4.3913,-4.3844,-4.3765,-4.3669,-4.3496,-4.3392,-4.3304,-4.3105,-4.2956,-4.2879,-4.2728,-4.2611,-4.249,-4.243,-4.2269,-4.2124,-4.2016,-4.1892,-4.1762,-4.1498,-4.1386,-4.1272,-4.1111,-4.1088,-4.1018,-4.0888,-4.084,-4.0864,-4.0929,-4.0929,-4.0905,-4.0769,-4.0655,-4.0624,-4.0624,-4.0461,-4.032,-4.032,-4.0096,-3.9893,-3.9858,-3.9651,-3.9441,-3.9245,-3.9148,-3.9013,-3.8766,-3.8556,-3.8399,-3.8315,-3.8103,-3.7902,-3.774,-3.7653,-3.7492,-3.727,-3.7756,-3.7844,-3.7594,-3.7268,-3.6884,0.0,0.0,0.0,0.0,0.0,0.0,-4.0894,-4.0882,-4.0893,-4.0883,-4.0837,-4.079,-4.0794,-4.0725,-4.0694,-4.0694,-4.0621,-4.0602,-4.0668,-4.0622,-4.0856,-4.1563,-4.1728,-4.2332,-4.3777,-4.4067,-4.4451,-4.5167,-4.531,-4.5317,-4.5265,-4.5192,-4.5136,-4.508,-4.4991,-4.4914,-4.477,-4.4757,-4.4672,-4.4501,-4.4473,-4.4401,-4.427,-4.4255,-4.4147,-4.3974,-4.3974,-4.3881,-4.3771,-4.3597,-4.3632,-4.3736,-4.3632,-4.3512,-4.3445,-4.3232,-4.3105,-4.303,-4.2803,-4.2667,-4.2512,-4.2391,-4.2207,-4.2061,-4.2019,-4.1909,-4.1758,-4.1736,-4.156,-4.1335,-4.1186,-4.114,-4.1071,-4.0894,-4.0864,-4.0776,-4.0534,-4.0485,-4.051,-4.06,-4.0648,-4.0648,-4.051,-4.0485,-4.0461,-4.0436,-4.0213,-4.002,-4.002,-3.979,-3.9573,-3.9432,-3.9299,-3.9094,-3.875,-3.8611,-3.8488,-3.8335,-3.8017,-3.7828,-3.7828,-3.7506,-3.7268,-3.7164,-3.7104,-3.6952,-3.6631,-3.7074,-3.7238,-3.7088,-3.6769,-3.6631,0.0,0.0,0.0,0.0,0.0,0.0,-4.0742,-4.0859,-4.0818,-4.0823,-4.0775,-4.0725,-4.0726,-4.0655,-4.0621,-4.0617,-4.0561,-4.0534,-4.0617,-4.0569,-4.0562,-4.0668,-4.1247,-4.175,-4.2086,-4.3225,-4.4003,-4.4102,-4.4669,-4.4979,-4.4986,-4.4974,-4.4919,-4.4858,-4.4783,-4.4725,-4.4646,-4.4537,-4.4454,-4.4411,-4.43,-4.4195,-4.4051,-4.4008,-4.3931,-4.3835,-4.3732,-4.3614,-4.3549,-4.3357,-4.3375,-4.3549,-4.3409,-4.3286,-4.316,-4.3013,-4.2843,-4.2668,-4.247,-4.2308,-4.2166,-4.1995,-4.1888,-4.1823,-4.1604,-4.1515,-4.1471,-4.1363,-4.1157,-4.0989,-4.0965,-4.0782,-4.0614,-4.0583,-4.0583,-4.0534,-4.0362,-4.0337,-4.0263,-4.0104,-4.0313,-4.051,-4.0362,-4.0238,-4.0138,-4.0037,-3.9798,-3.9616,-3.9616,-3.9335,-3.9077,-3.8942,-3.8805,-3.8595,-3.8286,-3.8116,-3.7988,-3.7847,-3.7522,-3.7328,-3.7328,-3.7013,-3.6831,-3.68,-3.6538,-3.6305,-3.6132,-3.6507,-3.66,-3.6383,-3.6226,-3.6132,0.0,0.0,0.0,-3.935,0.0,0.0,0.0,-4.0796,-4.0756,-4.0758,-4.0707,-4.0662,-4.0661,-4.0593,-4.0549,-4.0546,-4.0468,-4.0392,-4.0411,-4.0392,-4.0375,-4.0304,-4.0635,-4.1007,-4.1407,-4.2117,-4.2677,-4.2985,-4.3711,-4.4128,-4.4102,-4.4485,-4.4672,-4.46,-4.4578,-4.4524,-4.444,-4.4321,-4.4233,-4.4188,-4.4104,-4.3995,-4.3915,-4.3798,-4.3699,-4.3652,-4.3479,-4.3357,-4.3269,-4.3087,-4.3031,-4.305,-4.305,-4.2975,-4.2841,-4.265,-4.2492,-4.231,-4.2121,-4.1956,-4.1805,-4.1648,-4.156,-4.1475,-4.1307,-4.1169,-4.1012,-4.0901,-4.0782,-4.068,-4.0607,-4.051,-4.0362,-4.0238,-4.0188,-4.0163,-4.0037,-3.9935,-3.9849,-3.972,-3.979,-3.9876,-3.9986,-3.9884,-3.9798,-3.972,-3.9441,-3.9245,-3.9148,-3.8942,-3.8722,-3.8483,-3.8343,-3.8116,-3.7783,-3.7623,-3.7492,-3.7361,-3.7044,-3.6846,-3.6846,-3.6538,-3.6352,-3.6352,-3.6195,-3.6022,-3.5863,-3.6022,-3.6085,-3.6085,-3.5926,-3.5863,0.0,0.0,0.0,0.0,0.0,-3.9796,0.0,0.0,0.0,-4.0674,0.0,0.0,0.0,0.0,0.0,-4.0449,0.0,0.0,0.0,-4.0177,0.0,-4.0168,-4.0078,-4.0281,-4.0921,-4.1063,-4.1399,-4.2089,-4.2736,-4.3058,-4.2996,-4.3751,-4.4154,-4.4082,-4.4217,-4.4281,-4.4226,-4.4097,-4.402,-4.3958,-4.3881,-4.3818,-4.3754,-4.3599,-4.3496,-4.341,-4.3178,-4.305,-4.2992,-4.2764,-4.2589,-4.2472,-4.2649,-4.2629,-4.2472,-4.2308,-4.2124,-4.1977,-4.1801,-4.1626,-4.1471,-4.1358,-4.1203,-4.1065,-4.1006,-4.0834,-4.06,-4.0485,-4.0436,-4.0362,-4.0213,-4.018,-4.0062,-3.9833,-3.9781,-3.9729,-3.9599,-3.9468,-3.9352,-3.9325,-3.9185,-3.9169,-3.952,-3.9441,-3.9352,-3.9325,-3.9023,-3.8761,-3.865,-3.8528,-3.8286,-3.7956,-3.7828,-3.7623,-3.7298,-3.7134,-3.6998,-3.6877,-3.6585,-3.6398,-3.6398,-3.61,-3.591,-3.5846,-3.5846,-3.575,-3.5559,-3.5559,-3.5638,-3.5846,-3.5671,-3.5559,0.0,0.0,0.0,0.0,-3.9511,-3.9727,-4.0527,0.0,-4.0602,-4.0621,0.0,0.0,0.0,0.0,0.0,0.0,0.0,0.0,-4.0027,-3.9881,-3.9829,-4.0007,-3.9859,-3.9777,-3.9872,-4.0403,-4.1079,-4.1857,-4.1951,-4.1959,-4.1894,-4.2626,-4.3062,-4.2973,-4.3621,-4.3945,-4.3963,-4.3867,-4.3837,-4.382,-4.3699,-4.3615,-4.3532,-4.3322,-4.3214,-4.3141,-4.2804,-4.2668,-4.2629,-4.231,-4.2103,-4.2002,-4.2313,-4.2331,-4.2145,-4.1998,-4.1827,-4.1648,-4.1493,-4.133,-4.114,-4.1006,-4.0799,-4.0583,-4.0583,-4.0461,-4.0355,-4.033,-4.0138,-3.9952,-3.9807,-3.9694,-3.9537,-3.9329,-3.9286,-3.9232,-3.9104,-3.8969,-3.8832,-3.8722,-3.86,-3.8616,-3.8996,-3.8969,-3.8832,-3.8722,-3.8427,-3.8157,-3.803,-3.7889,-3.7685,-3.7344,-3.7298,-3.7134,-3.6816,-3.6662,-3.6507,-3.6305,-3.6132,-3.6068,-3.6068,-3.5863,-3.5606,-3.5311,-3.5279,-3.518,-3.5001,-3.5001,-3.51,-3.5279,-3.5279,-3.5166,0.0,0.0,0.0,0.0,0.0,0.0,-4.0472,-4.0591,-4.0542,-4.0492,0.0,0.0,0.0,0.0,0.0,0.0,-3.9996,0.0,0.0,0.0,-3.9599,-3.9796,0.0,0.0,-3.9414,-3.9634,-3.9903,-4.0202,-4.0621,-4.0828,-4.0774,-4.1571,-4.1986,-4.1856,-4.2176,-4.2313,-4.2283,-4.2202,-4.2187,-4.2169,-4.2,-4.1897,-4.1881,-4.2068,-4.2137,-4.2117,-4.2255,-4.2269,-4.2187,-4.1998,-4.1784,-4.1609,-4.1679,-4.1701,-4.1697,-4.1631,-4.1493,-4.1284,-4.1169,-4.1006,-4.0817,-4.0624,-4.0362,-4.0138,-4.0138,-3.9986,-3.9849,-3.9849,-3.9677,-3.9461,-3.9319,-3.9185,-3.905,-3.8898,-3.8788,-3.8722,-3.8655,-3.8528,-3.8343,-3.823,-3.8091,-3.8004,-3.8042,-3.8201,-3.8258,-3.8201,-3.7915,-3.7653,-3.7506,-3.7433,-3.7284,-3.6952,-3.6831,-3.6693,-3.643,-3.6289,-3.6163,-3.6085,-3.5861,-3.5604,-3.5379,-3.5282,-3.5184,-3.5034,-3.5034,-3.4949,-3.4783,-3.4783,-3.4716,-3.4568,-3.4868,-3.4949,-4.0745,0.0,0.0,0.0,-4.0135,-3.9829,-4.04,-4.0484,-4.0425,-4.0356,-4.0288,0.0,0.0,0.0,0.0,0.0,0.0,-3.9635,0.0,-3.9233,0.0,0.0,0.0,0.0,0.0,-3.9064,-3.8993,-3.8943,-3.9461,-3.9745,-3.9669,-4.0462,-4.0872,-4.0742,-4.0944,-4.1024,-4.0959,-4.0911,-4.0894,-4.0894,-4.0688,-4.0599,-4.06,-4.0848,-4.0947,-4.0926,-4.1215,-4.1258,-4.1131,-4.102,-4.0823,-4.0617,-4.0492,-4.0446,-4.0538,-4.1041,-4.1123,-4.0976,-4.0793,-4.0583,-4.0353,-3.9926,-3.9606,-3.9394,-3.9193,-3.8963,-3.8712,-3.8712,-3.8563,-3.8387,-3.8242,-3.809,-3.8002,-3.8031,-3.7955,-3.7894,-3.8087,-3.7988,-3.7812,-3.774,-3.7567,-3.7389,-3.7238,-3.7506,-3.7711,-3.7637,-3.7387,-3.7148,-3.6937,-3.6952,-3.6831,-3.6523,-3.6383,-3.6195,-3.6037,-3.5878,-3.575,-3.5718,-3.5474,-3.5195,-3.4883,-3.4835,-3.4802,-3.4687,-3.4668,-3.4601,-3.4395,-3.4395,-3.421,-3.3874,-3.4419,-3.4601,-4.0614,-4.0545,-4.045,-4.0422,-4.0394,-4.037,-4.0314,-4.0316,-4.0298,-4.0224,-4.0148,-4.0117,0.0,0.0,0.0,0.0,0.0,0.0,0.0,0.0,0.0,0.0,0.0,0.0,0.0,-3.8855,-3.8814,-3.8811,-3.8707,-3.8621,-3.8544,-3.9312,-3.9686,-3.9557,-4.0304,-4.067,-4.0618,-4.0618,-4.0618,-4.0618,-4.0402,-4.031,-4.0291,-3.9987,-3.9791,-3.9656,-3.9467,-3.9301,-3.9178,-3.8977,-3.8819,-3.8686,-3.8556,-3.8351,-3.841,-4.0117,-4.0721,-4.0673,-4.0429,-4.0062,-3.9586,-3.8729,-3.8367,-3.8114,-3.7401,-3.6992,-3.6786,-3.6786,-3.6594,-3.6346,-3.6228,-3.6061,-3.6041,-3.6545,-3.6549,-3.6624,-3.7304,-3.7328,-3.7224,-3.7208,-3.6952,-3.6723,-3.6723,-3.7013,-3.7148,-3.6966,-3.6815,-3.6585,-3.6258,-3.6227,-3.6179,-3.6037,-3.5831,-3.5671,-3.5537,-3.5359,-3.5148,-3.4935,-3.4935,-3.4883,-3.4698,-3.4698,-3.4515,-3.4128,-3.4128,-3.3971,-3.364,-3.364,-3.3521,-3.3339,-3.3874,-3.404,-4.0476,-4.0383,-4.0306,-4.0269,-4.026,-4.0252,-4.0177,-4.0177,-4.0147,-4.0019,-3.9914,-3.9837,-3.9837,0.0,0.0,0.0,0.0,0.0,0.0,0.0,-3.7004,0.0,0.0,0.0,0.0,-3.7029,-3.6939,-3.6882,-3.6848,-3.7036,-3.7469,-3.776,-3.8077,-3.8434,-3.8705,-3.8779,-3.8618,-3.8618,-3.8618,-3.86,-3.8398,-3.8305,-3.8321,-3.8525,-3.8576,-3.857,-3.8831,-3.8886,-3.8777,-3.8605,-3.8419,-3.8271,-3.8114,-3.7909,-3.781,-3.8646,-3.8874,-3.8689,-3.842,-3.8104,-3.7774,-3.7413,-3.7176,-3.7013,-3.6663,-3.6466,-3.6265,-3.6152,-3.598,-3.5817,-3.5653,-3.5514,-3.5466,-3.5647,-3.5483,-3.5344,-3.5578,-3.5507,-3.5514,-3.5813,-3.5707,-3.566,-3.5962,-3.6023,-3.6102,-3.6399,-3.6321,-3.6148,-3.5911,-3.5879,-3.5767,-3.5492,-3.5394,-3.5297,-3.5115,-3.4949,-3.4716,-3.4399,-3.4366,-3.4312,-3.4171,-3.4054,-3.3917,-3.3764,-3.3632,-3.3458,-3.3213,-3.3072,-3.2881,-3.2704,-3.2739,-3.2966,-4.0299,-4.0196,-4.009,-4.009,-4.008,-4.0049,-3.9975,-3.9943,-3.99,-3.9781,-3.9647,-3.9563,-3.9563,0.0,0.0,0.0,0.0,0.0,0.0,-3.6255,0.0,0.0,0.0,0.0,0.0,-3.6012,-3.5905,-3.5828,-3.5765,-3.5919,-3.6412,-3.6397,-3.6531,-3.6862,-3.688,-3.6899,-3.6966,-3.6966,-3.7108,-3.7373,-3.722,-3.7105,-3.7066,-3.7335,-3.7419,-3.737,-3.7668,-3.774,-3.7585,-3.741,-3.7228,-3.7094,-3.6959,-3.6705,-3.6561,-3.7477,-3.7614,-3.7327,-3.7144,-3.6891,-3.6558,-3.614,-3.5944,-3.5754,-3.5363,-3.5123,-3.5005,-3.4892,-3.4741,-3.4604,-3.4467,-3.43,-3.4251,-3.4444,-3.4278,-3.4168,-3.4355,-3.4297,-3.4331,-3.4531,-3.4485,-3.4466,-3.4715,-3.4778,-3.5016,-3.5737,-3.5782,-3.5621,-3.5379,-3.5347,-3.5216,-3.4949,-3.4835,-3.475,-3.4582,-3.438,-3.4191,-3.3937,-3.3854,-3.3736,-3.3591,-3.3452,-3.3312,-3.3157,-3.3037,-3.2846,-3.261,-3.2467,-3.2322,-3.2105,-3.1959,-3.2105]},{"header":{"parameterUnit":"m.s-1","parameterCategory":1,"la1":30.6,"la2":29.2853,"lo1":-89.7004,"lo2":-87.6739,"dy":0.0162,"dx":0.0183,"nx":112,"ny":82,"refTime":"2023-08-19T18:00:00:Z","depth":0,"parameterNumber":3,"parameterNumberName":"V-component_of_WINDS"},"data":[0.0,0.0,0.0,0.0,0.0,0.0,0.0,0.0,0.0,0.0,0.0,0.0,0.0,0.0,0.0,0.0,0.0,0.0,0.0,0.0,0.0,0.0,0.0,0.0,0.0,0.0,0.0,0.0,0.0,0.0,0.0,0.0,0.0,0.0,0.0,0.0,0.0,0.0,0.0,0.0,0.0,0.0,0.0,0.0,0.0,0.0,0.0,0.0,0.0,0.0,0.0,0.0,0.0,0.0,0.0,0.0,0.0,0.0,0.0,0.0,0.0,0.0,0.0,0.0,0.0,0.0,0.0,0.0,0.0,0.0,0.0,0.0,0.0,0.0,0.0,0.0,0.0,0.0,0.0,0.0,0.0,0.0,0.0,0.0,0.0,0.0,0.0,0.0,0.0,0.0,-0.5984,-0.5517,-0.4924,-0.4495,-0.43,-0.43,-0.43,-0.43,0.0,0.0,0.0,0.0,0.0,0.0,0.0,0.0,0.0,0.0,0.0,0.0,0.0,0.0,0.0,0.0,0.0,0.0,0.0,0.0,0.0,0.0,0.0,0.0,0.0,0.0,0.0,0.0,0.0,0.0,0.0,0.0,0.0,0.0,0.0,0.0,0.0,0.0,0.0,0.0,0.0,0.0,0.0,0.0,0.0,0.0,0.0,0.0,0.0,0.0,0.0,0.0,0.0,0.0,0.0,0.0,0.0,0.0,0.0,0.0,0.0,0.0,0.0,0.0,0.0,0.0,0.0,0.0,0.0,0.0,0.0,0.0,0.0,0.0,0.0,0.0,0.0,0.0,0.0,0.0,0.0,0.0,0.0,0.0,0.0,0.0,0.0,0.0,0.0,0.0,0.0,0.0,0.0,0.0,0.0,0.0,0.0,0.0,0.0,0.0,0.0,0.0,0.0,0.0,-0.569,-0.4994,-0.4564,-0.4334,-0.43,-0.43,-0.43,-0.43,0.0,0.0,0.0,0.0,0.0,0.0,0.0,0.0,0.0,0.0,0.0,0.0,0.0,0.0,0.0,0.0,0.0,0.0,0.0,0.0,0.0,0.0,0.0,0.0,0.0,0.0,0.0,0.0,0.0,0.0,0.0,0.0,0.0,0.0,0.0,0.0,0.0,0.0,0.0,0.0,0.0,0.0,0.0,0.0,0.0,0.0,0.0,0.0,0.0,0.0,0.0,0.0,0.0,0.0,0.0,0.0,0.0,0.0,0.0,0.0,0.0,0.0,0.0,0.0,0.0,0.0,0.0,0.0,0.0,0.0,0.0,0.0,0.0,0.0,0.0,0.0,0.0,0.0,0.0,0.0,0.0,0.0,0.0,0.0,0.0,0.0,0.0,0.0,0.0,0.0,0.0,0.0,0.0,0.0,0.0,0.0,0.0,0.0,0.0,0.0,0.0,0.0,0.0,-0.5818,-0.5289,-0.4864,-0.45,-0.43,-0.43,-0.43,-0.43,-0.43,-0.4398,0.0,0.0,0.0,0.0,0.0,0.0,0.0,0.0,0.0,0.0,0.0,0.0,0.0,0.0,0.0,0.0,0.0,0.0,0.0,0.0,0.0,0.0,0.0,0.0,0.0,0.0,0.0,0.0,0.0,0.0,0.0,0.0,0.0,0.0,0.0,0.0,0.0,0.0,0.0,0.0,0.0,0.0,0.0,0.0,0.0,0.0,0.0,0.0,0.0,0.0,0.0,0.0,0.0,0.0,0.0,0.0,0.0,0.0,0.0,0.0,0.0,0.0,0.0,0.0,0.0,0.0,0.0,0.0,0.0,0.0,0.0,0.0,0.0,0.0,0.0,0.0,0.0,0.0,0.0,0.0,0.0,0.0,0.0,0.0,0.0,0.0,0.0,0.0,0.0,0.0,0.0,0.0,0.0,0.0,0.0,0.0,0.0,0.0,0.0,0.0,0.0,0.0,-0.5422,-0.5024,-0.4827,-0.45,-0.43,-0.43,-0.43,-0.43,-0.43,-0.43,0.0,0.0,0.0,0.0,0.0,0.0,0.0,0.0,0.0,0.0,0.0,0.0,0.0,0.0,0.0,0.0,0.0,0.0,0.0,0.0,0.0,0.0,0.0,0.0,0.0,0.0,0.0,0.0,0.0,0.0,0.0,0.0,0.0,0.0,0.0,0.0,0.0,0.0,0.0,0.0,0.0,0.0,0.0,0.0,0.0,0.0,0.0,0.0,0.0,0.0,0.0,0.0,0.0,0.0,0.0,0.0,0.0,0.0,0.0,0.0,0.0,0.0,0.0,0.0,0.0,0.0,0.0,0.0,0.0,0.0,0.0,0.0,0.0,0.0,0.0,0.0,0.0,0.0,0.0,0.0,0.0,0.0,0.0,0.0,0.0,0.0,0.0,0.0,0.0,0.0,0.0,0.0,0.0,0.0,0.0,0.0,0.0,0.0,0.0,0.0,0.0,0.0,-0.5422,-0.5024,-0.4827,-0.45,-0.43,-0.43,-0.43,-0.43,-0.43,-0.43,0.0,0.0,0.0,0.0,0.0,0.0,0.0,0.0,0.0,0.0,0.0,0.0,0.0,0.0,0.0,0.0,0.0,0.0,0.0,0.0,0.0,0.0,0.0,0.0,0.0,0.0,0.0,0.0,0.0,0.0,0.0,0.0,0.0,0.0,0.0,0.0,0.0,0.0,0.0,0.0,0.0,0.0,0.0,0.0,0.0,0.0,0.0,0.0,0.0,0.0,0.0,0.0,0.0,0.0,0.0,0.0,0.0,0.0,0.0,0.0,0.0,0.0,0.0,0.0,0.0,0.0,0.0,0.0,0.0,0.0,0.0,0.0,0.0,0.0,0.0,0.0,0.0,0.0,0.0,0.0,0.0,0.0,0.0,0.0,0.0,0.0,0.0,0.0,0.0,0.0,0.0,0.0,0.0,0.0,0.0,0.0,0.0,0.0,0.0,0.0,0.0,0.0,-0.5326,-0.4894,-0.4797,-0.45,-0.43,-0.43,-0.43,-0.43,-0.43,0.0,0.0,0.0,0.0,0.0,0.0,0.0,0.0,0.0,0.0,0.0,0.0,0.0,0.0,0.0,0.0,0.0,0.0,0.0,0.0,0.0,0.0,0.0,0.0,0.0,0.0,0.0,0.0,0.0,0.0,0.0,0.0,0.0,0.0,0.0,0.0,0.0,0.0,0.0,0.0,0.0,0.0,0.0,0.0,0.0,0.0,0.0,0.0,0.0,0.0,0.0,0.0,0.0,0.0,0.0,0.0,0.0,0.0,0.0,0.0,0.0,0.0,0.0,0.0,0.0,0.0,0.0,0.0,0.0,0.0,0.0,0.0,0.0,0.0,0.0,0.0,0.0,0.0,0.0,0.0,0.0,0.0,0.0,0.0,0.0,0.0,0.0,0.0,0.0,0.0,0.0,0.0,0.0,0.0,0.0,0.0,0.0,0.0,0.0,0.0,0.0,0.0,-0.5954,-0.5263,-0.4797,-0.4797,-0.45,-0.43,-0.43,-0.43,-0.43,-0.43,0.0,0.0,0.0,0.0,0.0,0.0,0.0,0.0,0.0,0.0,0.0,0.0,0.0,0.0,0.0,0.0,0.0,0.0,0.0,0.0,0.0,0.0,0.0,0.0,0.0,0.0,0.0,0.0,0.0,0.0,0.0,0.0,0.0,0.0,0.0,0.0,0.0,0.0,0.0,0.0,0.0,0.0,0.0,0.0,0.0,0.0,0.0,0.0,0.0,0.0,0.0,0.0,0.0,0.0,0.0,0.0,0.0,0.0,0.0,0.0,0.0,0.0,0.0,0.0,0.0,0.0,0.0,0.0,0.0,0.0,0.0,0.0,0.0,0.0,0.0,0.0,0.0,0.0,0.0,0.0,0.0,0.0,0.0,0.0,0.0,0.0,0.0,0.0,0.0,0.0,0.0,0.0,0.0,0.0,0.0,0.0,0.0,0.0,0.0,0.0,0.0,0.0,-0.5954,-0.5263,-0.4797,-0.4797,-0.45,-0.43,-0.43,-0.43,-0.43,0.0,0.0,0.0,0.0,0.0,0.0,0.0,0.0,0.0,0.0,0.0,0.0,0.0,0.0,0.0,0.0,0.0,0.0,0.0,0.0,0.0,0.0,0.0,0.0,0.0,0.0,0.0,0.0,0.0,0.0,0.0,0.0,0.0,0.0,0.0,0.0,0.0,0.0,0.0,0.0,0.0,0.0,0.0,0.0,0.0,0.0,0.0,0.0,0.0,0.0,0.0,0.0,0.0,0.0,0.0,0.0,0.0,0.0,0.0,0.0,0.0,0.0,0.0,0.0,0.0,0.0,0.0,0.0,0.0,0.0,0.0,0.0,0.0,0.0,0.0,0.0,0.0,0.0,0.0,0.0,0.0,0.0,0.0,0.0,0.0,0.0,0.0,0.0,0.0,0.0,0.0,0.0,0.0,0.0,0.0,0.0,0.0,0.0,0.0,0.0,0.0,0.0,0.0,-0.5954,-0.5263,-0.4797,-0.4797,-0.45,-0.43,-0.43,-0.43,-0.43,-0.43,0.0,0.0,0.0,0.0,0.0,0.0,0.0,0.0,0.0,0.0,0.0,0.0,0.0,0.0,0.0,0.0,0.0,0.0,0.0,0.0,0.0,0.0,0.0,0.0,0.0,0.0,0.0,0.0,0.0,0.0,0.0,0.0,0.0,0.0,0.0,0.0,0.0,0.0,0.0,0.0,0.0,0.0,0.0,0.0,0.0,0.0,0.0,0.0,0.0,0.0,0.0,0.0,0.0,0.0,0.0,0.0,0.0,0.0,0.0,0.0,0.0,0.0,0.0,0.0,0.0,0.0,0.0,0.0,0.0,0.0,0.0,0.0,0.0,0.0,0.0,0.0,0.0,0.0,0.0,0.0,0.0,0.0,0.0,0.0,0.0,0.0,0.0,0.0,0.0,0.0,0.0,0.0,0.0,0.0,0.0,0.0,0.0,0.0,0.0,0.0,0.0,0.0,-0.5818,-0.5193,-0.4797,-0.4728,-0.4464,-0.43,-0.43,-0.43,-0.43,-0.43,0.0,0.0,0.0,0.0,0.0,0.0,0.0,0.0,0.0,0.0,0.0,0.0,0.0,0.0,0.0,0.0,0.0,0.0,0.0,0.0,0.0,0.0,0.0,0.0,0.0,0.0,0.0,0.0,0.0,0.0,0.0,0.0,0.0,0.0,0.0,0.0,0.0,0.0,0.0,0.0,0.0,0.0,0.0,0.0,0.0,0.0,0.0,0.0,0.0,0.0,0.0,0.0,0.0,0.0,0.0,0.0,0.0,0.0,0.0,0.0,0.0,0.0,0.0,0.0,0.0,0.0,0.0,0.0,0.0,0.0,0.0,0.0,0.0,0.0,0.0,0.0,0.0,0.0,0.0,0.0,0.0,0.0,0.0,0.0,0.0,0.0,0.0,0.0,0.0,0.0,0.0,0.0,0.0,0.0,0.0,0.0,0.0,0.0,0.0,0.0,0.0,0.0,-0.5683,-0.5126,-0.4767,-0.4609,-0.4448,-0.4319,-0.4333,-0.4322,-0.4283,-0.4283,0.0,0.0,0.0,0.0,0.0,0.0,0.0,0.0,0.0,0.0,0.0,0.0,0.0,0.0,0.0,0.0,0.0,0.0,0.0,0.0,0.0,0.0,0.0,0.0,0.0,0.0,0.0,0.0,0.0,0.0,0.0,0.0,0.0,0.0,0.0,0.0,0.0,0.0,0.0,0.0,0.0,0.0,0.0,0.0,0.0,0.0,0.0,0.0,0.0,0.0,0.0,0.0,0.0,0.0,0.0,0.0,0.0,0.0,0.0,0.0,-0.5745,-0.5547,0.0,0.0,0.0,0.0,0.0,0.0,0.0,0.0,0.0,0.0,0.0,0.0,0.0,0.0,0.0,0.0,0.0,0.0,0.0,0.0,0.0,0.0,0.0,0.0,0.0,0.0,0.0,0.0,0.0,0.0,0.0,0.0,0.0,0.0,0.0,0.0,0.0,0.0,0.0,0.0,-0.565,-0.5126,-0.477,-0.47,-0.4539,-0.4506,-0.4605,-0.4389,-0.4232,-0.4232,-0.4009,0.0,0.0,0.0,0.0,0.0,0.0,0.0,0.0,0.0,0.0,0.0,0.0,0.0,0.0,0.0,0.0,0.0,0.0,0.0,0.0,0.0,0.0,0.0,0.0,0.0,0.0,0.0,0.0,0.0,0.0,0.0,0.0,0.0,0.0,0.0,0.0,0.0,0.0,0.0,0.0,0.0,0.0,0.0,0.0,0.0,0.0,0.0,0.0,0.0,0.0,0.0,0.0,0.0,0.0,0.0,0.0,0.0,0.0,0.0,-0.5977,-0.5791,0.0,0.0,0.0,0.0,0.0,0.0,0.0,0.0,0.0,0.0,0.0,0.0,0.0,0.0,0.0,0.0,0.0,0.0,0.0,0.0,0.0,0.0,0.0,0.0,0.0,0.0,0.0,0.0,0.0,0.0,0.0,0.0,0.0,0.0,0.0,0.0,0.0,0.0,0.0,0.0,-0.5638,-0.5227,-0.4908,-0.473,-0.4523,-0.4446,-0.4506,-0.4275,-0.41,-0.41,-0.3929,0.0,0.0,0.0,0.0,0.0,0.0,0.0,0.0,0.0,0.0,0.0,0.0,0.0,0.0,0.0,0.0,0.0,0.0,0.0,0.0,0.0,0.0,0.0,0.0,0.0,0.0,0.0,0.0,0.0,0.0,0.0,0.0,0.0,0.0,0.0,0.0,0.0,0.0,0.0,0.0,0.0,0.0,0.0,0.0,0.0,0.0,0.0,0.0,0.0,0.0,0.0,0.0,0.0,-0.5737,-0.6069,-0.6513,-0.6513,-0.6595,-0.6717,-0.627,-0.6167,-0.6261,-0.6118,0.0,0.0,0.0,0.0,0.0,0.0,0.0,0.0,0.0,0.0,0.0,0.0,0.0,0.0,0.0,0.0,0.0,0.0,0.0,0.0,0.0,0.0,-0.4867,-0.4867,-0.5086,-0.5413,-0.5929,0.0,0.0,0.0,0.0,0.0,0.0,0.0,0.0,0.0,0.0,0.0,-0.5594,-0.5303,-0.502,-0.4717,-0.4468,-0.4332,-0.4313,-0.4115,-0.3994,-0.3994,-0.3881,-0.3813,0.0,0.0,0.0,0.0,0.0,0.0,0.0,0.0,0.0,0.0,0.0,0.0,0.0,0.0,0.0,0.0,0.0,0.0,0.0,0.0,0.0,0.0,0.0,0.0,0.0,0.0,0.0,0.0,0.0,0.0,0.0,0.0,0.1641,0.1077,0.0,0.0,0.0,0.0,0.0,0.0,0.0,0.0,0.0,0.0,0.0,0.0,0.0,-0.3905,-0.4232,-0.48,-0.5412,-0.6005,-0.6213,-0.6538,-0.6918,-0.6918,-0.6931,-0.6951,-0.6878,0.0,-0.6623,-0.6599,0.0,0.0,0.0,0.0,0.0,0.0,0.0,0.0,0.0,0.0,0.0,0.0,0.0,0.0,0.0,0.0,0.0,0.0,0.0,0.0,0.0,0.0,-0.5137,-0.5137,-0.5188,-0.523,-0.5318,-0.571,-0.6029,-0.6065,-0.6388,-0.6636,0.0,0.0,0.0,0.0,0.0,0.0,-0.5522,-0.5162,-0.484,-0.4572,-0.4507,-0.4435,-0.4375,-0.4112,-0.3911,-0.3911,-0.3636,-0.3467,-0.3467,-0.3343,0.0,0.0,0.0,0.0,0.0,0.0,0.0,0.0,0.0,0.0,0.0,0.0,0.0,0.0,0.0,0.0,0.0,0.0,0.0,0.0,0.0,0.0,0.0,0.0,0.0,0.0,0.0,0.0,0.0,0.1807,0.1219,0.073,0.0352,-0.0064,0.0,0.0,0.0,0.0,0.0,0.0,0.0,0.0,0.0,-0.3272,-0.3729,-0.405,-0.4181,-0.4865,-0.5521,-0.6119,-0.6372,-0.6824,-0.7447,-0.7447,-0.7517,-0.7624,-0.7624,-0.7582,-0.7455,-0.703,-0.678,-0.6624,0.0,0.0,0.0,0.0,-0.561,-0.5272,-0.5246,-0.5032,-0.475,-0.4712,0.0,0.0,0.0,0.0,0.0,0.0,0.0,-0.4446,-0.4493,-0.4543,-0.4543,-0.4654,-0.4739,-0.4825,-0.4939,-0.529,-0.5635,-0.5696,-0.5846,-0.6061,-0.6237,-0.6277,0.0,0.0,0.0,-0.5717,-0.5263,-0.5078,-0.4833,-0.4464,-0.4356,-0.4262,-0.4229,-0.3999,-0.3857,-0.3857,-0.362,-0.3489,-0.3442,-0.3352,-0.3313,0.0,0.0,0.0,0.0,0.0,0.0,0.0,0.0,0.0,0.0,0.0,0.0,0.0,0.0,0.0,0.0,0.0,0.0,0.0,0.0,0.0,0.0,0.0,0.0,0.0,0.0,0.0,0.0,0.1361,0.0849,0.0428,-0.0033,-0.0492,0.0,0.0,0.0,0.0,0.0,0.0,-0.2871,-0.2913,-0.3105,-0.3495,-0.3935,-0.4166,-0.4267,-0.4964,-0.5606,-0.6238,-0.6577,-0.7135,-0.7804,-0.7842,-0.7953,-0.8102,-0.8102,-0.8102,-0.8042,-0.7462,-0.7174,-0.7117,-0.6918,-0.6658,-0.636,-0.6104,-0.5776,-0.5438,-0.521,-0.4987,-0.4741,-0.4673,-0.4484,-0.4332,-0.422,0.0,0.0,0.0,0.0,-0.4049,-0.4112,-0.4117,-0.4156,-0.4304,-0.4423,-0.454,-0.4696,-0.494,-0.5188,-0.5424,-0.5485,-0.5595,-0.5848,-0.5902,0.0,-0.5899,-0.5758,-0.5509,-0.5043,-0.4924,-0.4693,-0.4345,-0.4194,-0.4079,-0.404,-0.3882,-0.3802,-0.3802,-0.3677,-0.356,-0.3534,-0.3459,-0.3366,-0.3262,0.0,0.0,0.0,0.0,0.0,0.0,0.0,0.0,0.0,0.0,0.0,0.0,0.0,0.0,0.0,0.0,0.0,0.0,0.0,0.0,0.0,0.0,0.0,0.0,0.0,0.0,0.0,0.0,0.0,0.007,-0.0663,0.0,0.0,0.0,0.0,-0.207,-0.2217,-0.2474,-0.2876,-0.2913,-0.3128,-0.358,-0.4037,-0.4427,-0.4683,-0.5267,-0.5928,-0.6591,-0.6976,-0.7407,-0.7804,-0.7991,-0.8102,-0.8102,-0.8102,-0.8102,-0.8063,-0.7859,-0.7631,-0.7462,-0.7237,-0.6872,-0.638,-0.6306,-0.5922,-0.5355,-0.5101,-0.4877,-0.4691,-0.4462,-0.432,-0.4204,-0.4199,-0.4124,0.0,0.0,-0.419,-0.4211,-0.4344,-0.4368,-0.4368,-0.4407,-0.4449,-0.4487,-0.4527,-0.4611,-0.483,-0.5232,-0.5458,-0.5619,-0.5616,0.0,-0.5628,-0.5628,-0.5276,-0.5043,-0.5004,-0.4654,-0.4345,-0.4157,-0.4118,-0.4038,-0.3841,-0.3802,-0.3802,-0.3802,-0.3677,-0.3586,-0.3582,-0.3454,-0.3397,-0.3393,-0.3271,0.0,0.0,0.0,0.0,0.0,0.0,0.0,0.0,0.0,0.0,0.0,0.0,0.0,0.0,0.0,0.0,0.0,0.0,0.0,0.0,0.0,0.0,0.0,0.0,0.0,0.0,0.0,0.0,-0.0503,-0.0934,0.0,-0.1749,-0.197,-0.2166,-0.2274,-0.2352,-0.2558,-0.3019,-0.3021,-0.3262,-0.3714,-0.4137,-0.4465,-0.4701,-0.5437,-0.6057,-0.6602,-0.7138,-0.7603,-0.7991,-0.8217,-0.8365,-0.8475,-0.8475,-0.8475,-0.8479,-0.825,-0.7986,-0.7702,-0.7626,-0.7241,-0.6697,-0.657,-0.6096,-0.5455,-0.4955,-0.4657,-0.4474,-0.4188,-0.4069,-0.4053,-0.4053,-0.4029,-0.401,-0.4044,-0.4053,-0.4102,-0.4132,-0.4142,-0.4181,-0.4301,-0.4367,-0.4438,-0.4605,-0.4675,-0.4721,-0.489,-0.4958,-0.5078,-0.5197,-0.5055,-0.4928,-0.505,-0.4823,-0.4579,-0.4426,-0.4311,-0.4116,-0.3921,-0.3921,-0.3882,-0.3802,-0.3802,-0.3802,-0.3802,-0.3771,-0.3689,-0.359,-0.3567,-0.3507,-0.3452,-0.336,-0.3316,0.0,0.0,0.0,0.0,0.0,0.0,0.0,0.0,0.0,0.0,0.0,0.0,0.0,0.0,0.0,0.0,0.0,0.0,0.0,0.0,0.0,0.0,0.0,0.0,0.0,0.0,-0.0475,-0.0959,-0.133,-0.1705,-0.2093,-0.2207,-0.2296,-0.2409,-0.2489,-0.27,-0.3098,-0.3178,-0.3413,-0.3802,-0.419,-0.454,-0.4815,-0.5515,-0.6197,-0.6759,-0.7418,-0.7918,-0.8299,-0.8565,-0.876,-0.8911,-0.8911,-0.8911,-0.8872,-0.876,-0.8452,-0.8095,-0.7889,-0.7447,-0.6947,-0.6638,-0.6202,-0.5652,-0.4933,-0.4494,-0.4223,-0.4007,-0.3946,-0.3994,-0.3994,-0.3994,-0.3994,-0.3994,-0.3994,-0.3994,-0.3994,-0.3994,-0.4034,-0.4158,-0.4223,-0.4331,-0.4502,-0.4529,-0.4552,-0.4552,-0.4624,-0.4743,-0.4866,-0.4724,-0.4596,-0.4762,-0.4508,-0.4284,-0.4167,-0.406,-0.396,-0.3802,-0.3802,-0.3802,-0.3802,-0.3802,-0.3802,-0.3802,-0.3802,-0.3736,-0.3558,-0.3604,-0.3562,-0.3436,-0.3426,-0.3399,-0.3399,0.0,0.0,0.0,0.0,0.0,0.0,0.0,0.0,0.0,0.0,0.0,0.0,0.0,0.0,0.0,0.0,0.0,0.0,0.0,0.0,0.0,0.0,0.0,-0.0037,-0.0547,-0.1032,-0.1285,-0.1858,-0.222,-0.219,-0.2392,-0.2511,-0.2511,-0.2668,-0.2906,-0.3105,-0.3376,-0.361,-0.381,-0.4201,-0.4589,-0.5015,-0.5601,-0.6335,-0.7122,-0.78,-0.8336,-0.8723,-0.9123,-0.9282,-0.9282,-0.9282,-0.9282,-0.9282,-0.9282,-0.9041,-0.8647,-0.8038,-0.7536,-0.7042,-0.6598,-0.6203,-0.5826,-0.4993,-0.4413,-0.3998,-0.3998,-0.4,-0.4002,-0.4002,-0.4002,-0.4002,-0.4002,-0.4002,-0.4002,-0.4002,-0.4002,-0.4002,-0.4002,-0.4112,-0.422,-0.422,-0.424,-0.43,-0.43,-0.4506,-0.4671,-0.4671,-0.4669,-0.4666,-0.4666,-0.4415,0.0,-0.4191,-0.3987,-0.381,-0.381,-0.381,-0.381,-0.381,-0.381,-0.381,-0.381,-0.3771,-0.3692,-0.3495,-0.357,-0.3487,-0.3298,-0.3357,-0.3373,-0.3369,0.0,0.0,0.0,0.0,0.0,0.0,0.0,0.0,0.0,0.0,0.0,0.0,0.0,0.0,0.0,0.0,0.0,0.0,0.0,0.0,0.0,0.0,-0.0944,-0.0938,-0.1066,-0.1389,-0.1902,-0.2097,-0.2259,-0.2391,-0.247,-0.2511,-0.2511,-0.2668,-0.2925,-0.3214,-0.3458,-0.3687,-0.3918,-0.4369,-0.4818,-0.5268,-0.6087,-0.676,-0.7338,-0.8155,-0.8588,-0.8723,-0.9123,-0.9282,-0.9282,-0.9282,-0.9282,-0.9282,-0.9282,-0.9041,-0.8673,-0.8523,-0.7992,-0.7256,-0.6801,-0.5959,-0.5035,-0.4787,-0.446,-0.4134,-0.4134,-0.4177,-0.4226,-0.4226,-0.4226,-0.4226,-0.4226,-0.4226,-0.4226,-0.4226,-0.4226,-0.4226,-0.4226,-0.4246,-0.4265,-0.4265,-0.4281,-0.43,-0.43,-0.4347,-0.4401,-0.4401,-0.4392,-0.4349,-0.4349,-0.4183,-0.4041,-0.4041,-0.3977,-0.3961,-0.3961,-0.3961,-0.3961,-0.3961,-0.3796,-0.3712,-0.3712,-0.3546,-0.3422,-0.3338,-0.336,-0.3297,-0.3151,-0.3184,-0.3144,0.0,0.0,0.0,0.0,0.0,0.0,0.0,0.0,0.0,0.0,0.0,0.0,0.0,0.0,0.0,0.0,0.0,0.0,0.0,0.0,0.0,0.0,-0.1136,-0.1499,-0.1653,-0.1673,-0.1804,-0.2156,-0.2275,-0.2353,-0.247,-0.2533,-0.2548,-0.2548,-0.2853,-0.3128,-0.3333,-0.3624,-0.3855,-0.3992,-0.4453,-0.4868,-0.5241,-0.6114,-0.6812,-0.7385,-0.8259,-0.8761,-0.8965,-0.9382,-0.9587,-0.9587,-0.9587,-0.9545,-0.9419,-0.9419,-0.9172,-0.8784,0.0,0.0,0.0,0.0,-0.5775,-0.4832,-0.4748,-0.4485,-0.4226,-0.4226,-0.4259,-0.43,-0.43,-0.43,-0.43,-0.43,-0.43,-0.43,-0.43,-0.43,-0.43,-0.43,-0.43,-0.43,-0.43,-0.43,-0.43,-0.43,-0.43,0.0,-0.43,-0.4259,-0.4226,-0.4226,-0.4151,-0.4093,-0.4093,-0.4019,-0.3994,-0.3994,-0.3994,-0.3952,-0.3867,-0.3783,0.0,0.0,0.0,-0.3317,-0.3317,-0.3236,0.0,0.0,0.0,-0.309,-0.297,-0.3089,0.0,0.0,-0.3367,-0.345,0.0,0.0,0.0,0.0,0.0,0.0,0.0,0.0,0.0,0.0,0.0,0.0,0.0,0.0,0.0,0.0,-0.1556,-0.1821,-0.2175,-0.2252,-0.2251,-0.2245,-0.2408,-0.253,-0.2571,-0.2619,-0.2653,-0.2693,-0.3157,-0.3448,-0.3456,0.0,0.0,0.0,0.0,-0.4821,-0.5026,-0.5904,-0.6638,-0.7332,-0.8184,-0.8828,-0.9262,-0.9738,-0.9907,-0.9907,-0.9907,-0.9777,-0.9559,-0.9515,-0.9213,-0.8698,-0.8337,-0.7926,-0.739,-0.6436,-0.5591,-0.4966,-0.4748,0.0,0.0,-0.43,-0.43,-0.43,-0.43,-0.43,-0.43,-0.43,-0.43,-0.43,-0.43,-0.43,-0.43,-0.43,-0.43,-0.43,-0.43,-0.43,-0.43,-0.43,-0.43,-0.43,-0.43,-0.43,-0.43,-0.43,-0.4234,-0.4231,-0.4231,-0.4116,-0.4023,-0.398,-0.398,0.0,-0.3725,-0.3641,-0.3555,-0.33,-0.3257,-0.3257,-0.3257,-0.3093,-0.309,-0.3246,-0.3187,-0.312,-0.3048,-0.3021,-0.2984,-0.3012,-0.3302,-0.3447,0.0,0.0,0.0,0.0,0.0,0.0,0.0,0.0,0.0,0.0,0.0,0.0,0.0,0.0,0.0,-0.1757,-0.2061,-0.2284,-0.2365,-0.2491,-0.2598,-0.2548,-0.2586,-0.2741,-0.2907,-0.2919,-0.3008,-0.3213,-0.3479,-0.3685,-0.3795,-0.4015,-0.4177,-0.4246,-0.4557,-0.4912,-0.5305,-0.6046,-0.6758,-0.749,-0.8233,0.0,-0.8999,-0.9305,-0.9432,-0.9432,-0.9432,-0.9388,-0.9345,-0.913,-0.8552,-0.7749,-0.7683,-0.7377,-0.6841,-0.6068,-0.5453,-0.4966,-0.4748,-0.4525,-0.43,-0.43,-0.43,-0.43,-0.43,-0.43,0.0,-0.43,-0.43,-0.43,-0.43,-0.43,-0.43,-0.43,-0.43,-0.43,-0.43,-0.43,-0.43,-0.43,-0.43,-0.43,-0.43,-0.43,-0.43,-0.43,-0.4285,-0.4275,-0.4275,-0.4259,-0.416,-0.3944,-0.3899,-0.3855,-0.3632,-0.341,-0.3276,-0.3232,-0.3058,-0.2971,-0.2971,-0.2928,-0.2904,-0.2895,-0.2884,-0.2845,-0.2782,-0.2936,-0.2983,-0.2926,-0.3031,-0.3114,0.0,0.0,0.0,0.0,0.0,0.0,0.0,0.0,0.0,0.0,0.0,-0.1569,0.0,0.0,-0.2074,-0.2156,-0.2363,-0.2566,-0.2566,-0.2759,-0.2882,-0.282,-0.2841,-0.2944,-0.3194,-0.3227,-0.3292,-0.3459,-0.3669,-0.3841,-0.3884,-0.4104,-0.4255,-0.4297,-0.4569,-0.4882,-0.5191,-0.5766,-0.6432,-0.7143,-0.7753,-0.8241,-0.8556,-0.8815,-0.8947,-0.8947,-0.8947,-0.8859,-0.8732,-0.8332,-0.7845,-0.7272,-0.6918,-0.6564,-0.6213,-0.5725,-0.5235,-0.4835,-0.4569,-0.4433,-0.43,-0.43,-0.43,-0.43,-0.43,-0.43,-0.43,-0.43,-0.43,-0.43,-0.43,-0.43,-0.43,-0.43,-0.43,-0.43,-0.43,-0.43,-0.43,-0.43,-0.4212,-0.4078,-0.4078,-0.4034,-0.4032,-0.4255,-0.4168,-0.4078,-0.4078,-0.4034,-0.39,-0.3767,-0.3767,-0.3678,-0.3406,-0.3184,-0.3051,-0.3051,-0.2963,-0.292,-0.292,-0.292,-0.2815,-0.2652,-0.2651,-0.2579,-0.2394,-0.2609,-0.2664,-0.2603,-0.2788,-0.2939,0.0,0.0,0.0,0.0,0.0,0.0,0.0,0.0,-0.1796,-0.1829,-0.1986,-0.2186,-0.2228,-0.2363,-0.2497,-0.2497,-0.2635,-0.277,-0.2811,-0.2981,-0.3125,-0.3159,-0.3154,-0.3238,-0.3489,-0.3547,-0.3584,-0.3669,-0.3863,-0.3991,-0.3991,-0.4168,-0.43,-0.43,-0.4525,-0.4746,-0.4921,-0.5411,-0.5991,-0.6662,-0.7143,-0.758,-0.7981,-0.8285,-0.8372,-0.8372,-0.8372,-0.8241,-0.7933,-0.7536,-0.7183,-0.6833,-0.6257,-0.5858,-0.5544,-0.5324,-0.5015,-0.4661,-0.4389,-0.43,-0.43,-0.43,-0.43,-0.43,-0.43,-0.43,-0.43,-0.43,-0.43,-0.43,-0.43,-0.43,-0.43,-0.43,-0.4255,-0.421,-0.421,-0.421,-0.4166,-0.4166,-0.3989,-0.3857,-0.3857,-0.3723,-0.3721,-0.4121,-0.3991,-0.3857,-0.3857,-0.3723,-0.3587,-0.3542,-0.3542,-0.3408,-0.3183,-0.3006,-0.292,-0.292,-0.292,-0.2873,-0.2829,-0.2829,-0.2694,-0.2469,-0.2424,-0.2314,-0.2099,-0.2274,-0.2335,-0.2285,-0.2539,-0.2775,-0.1945,-0.1944,-0.1934,-0.1934,-0.1948,-0.1992,0.0,0.0,-0.2082,-0.2203,-0.2318,-0.2439,-0.2608,-0.2693,-0.2773,-0.2773,-0.2818,-0.2942,-0.3115,-0.3166,-0.3347,-0.3742,-0.3652,-0.3607,-0.3831,-0.3838,-0.3976,-0.4194,-0.4249,-0.4255,-0.4255,-0.43,-0.43,-0.43,-0.4344,-0.448,-0.475,-0.5193,-0.5683,-0.6171,-0.6659,-0.701,-0.7228,-0.7489,-0.7621,-0.7621,-0.7621,-0.7492,-0.7183,-0.6969,-0.6615,-0.6171,-0.5855,-0.5455,-0.5055,-0.4837,-0.475,-0.4661,-0.4389,-0.43,-0.43,-0.43,-0.43,-0.43,-0.43,-0.43,-0.43,-0.43,-0.43,-0.43,-0.43,-0.43,-0.43,-0.43,-0.4123,-0.3946,-0.3946,-0.3812,-0.3676,-0.3676,-0.3676,-0.3631,-0.3631,-0.3631,-0.3631,-0.3676,-0.3633,-0.3631,-0.3631,-0.3631,-0.3497,-0.3272,-0.3227,-0.3138,-0.2963,-0.292,-0.292,-0.292,-0.292,-0.2784,-0.2558,-0.2558,-0.2469,-0.2243,-0.2243,-0.2241,-0.2191,-0.2191,-0.2167,-0.2121,-0.2339,-0.2565,-0.2172,-0.2155,-0.217,0.0,-0.2244,-0.231,-0.2289,-0.2431,-0.2573,-0.2635,-0.2649,-0.271,-0.2798,-0.2819,-0.2837,0.0,-0.2989,-0.3094,-0.3183,-0.3452,-0.3678,-0.3859,-0.408,-0.4212,-0.4123,-0.4123,-0.4168,-0.43,-0.43,-0.43,-0.43,-0.4349,-0.4379,-0.4379,-0.443,-0.4595,-0.4827,-0.5009,-0.5424,-0.6026,-0.6256,-0.6532,-0.6945,-0.7034,-0.708,-0.708,-0.708,-0.6989,-0.6776,-0.6602,-0.6239,-0.5811,-0.5453,-0.5099,-0.4837,-0.475,-0.4614,-0.4433,-0.4344,-0.43,-0.43,-0.43,-0.43,-0.43,-0.43,-0.43,-0.43,-0.43,-0.43,-0.4255,-0.4123,-0.4078,-0.4034,-0.39,-0.381,-0.3723,-0.3723,-0.3678,-0.3587,-0.3587,-0.3452,-0.3361,-0.3361,-0.3274,-0.3187,-0.3187,-0.3274,-0.3361,-0.3361,-0.3274,-0.3141,-0.3051,-0.3006,-0.3006,-0.292,-0.292,-0.2829,-0.2694,-0.2649,-0.2558,-0.2334,-0.2334,-0.2154,-0.1749,-0.1749,-0.1615,-0.1345,-0.148,-0.1607,-0.1682,-0.1948,-0.2159,-0.2396,-0.2369,0.0,-0.2467,-0.2602,-0.2691,-0.2782,-0.2962,-0.3053,-0.3006,-0.2962,-0.2963,-0.292,-0.2963,-0.2962,-0.2962,-0.3184,-0.3317,-0.3406,-0.3765,-0.4036,-0.4125,-0.4525,-0.4714,-0.4559,-0.4535,-0.4478,-0.4433,-0.4414,-0.4428,-0.4336,-0.4422,-0.4473,-0.4473,-0.4538,-0.4666,-0.4804,-0.4851,-0.5183,-0.5705,-0.5753,-0.5989,-0.6367,-0.6511,-0.6652,-0.6794,-0.6744,-0.6643,-0.6507,-0.6236,-0.595,-0.5639,-0.5155,-0.4878,-0.4698,-0.4625,-0.448,-0.43,-0.43,-0.43,-0.43,-0.43,-0.43,-0.43,-0.43,-0.43,-0.43,-0.421,-0.4212,-0.4123,-0.3901,-0.3812,-0.3767,-0.3631,-0.3542,-0.3497,-0.3497,-0.3452,-0.3409,-0.3409,-0.3229,-0.3139,-0.3139,-0.3006,-0.292,-0.292,-0.2962,-0.3048,-0.3094,-0.3006,-0.292,-0.292,-0.292,-0.2873,-0.2784,-0.2784,-0.2694,-0.2424,-0.2424,-0.2289,-0.1974,-0.1974,-0.1749,-0.1211,-0.1211,-0.1031,-0.0718,-0.0897,-0.1076,-0.1211,-0.148,-0.1749,-0.2801,0.0,-0.2918,-0.3138,-0.3181,-0.3227,-0.3497,-0.3587,-0.3497,-0.3227,-0.3183,-0.3138,-0.2918,-0.3051,-0.3183,-0.3183,-0.3406,-0.3678,-0.3857,-0.4123,-0.4389,-0.4661,-0.4879,-0.5051,0.0,-0.507,-0.4877,-0.4705,-0.4749,-0.4664,-0.443,-0.4518,-0.4616,-0.4616,-0.4619,-0.4621,-0.4621,-0.4804,-0.4896,-0.4944,-0.5185,-0.5329,-0.5374,-0.58,-0.6319,-0.6794,-0.6505,-0.6405,-0.6355,-0.5894,-0.5705,-0.5645,-0.5025,-0.4804,-0.4745,-0.4422,-0.43,-0.43,-0.43,-0.43,-0.43,-0.43,-0.43,-0.43,-0.43,-0.43,-0.4255,-0.3991,-0.3903,-0.3859,-0.3678,-0.3587,-0.3587,-0.3587,-0.3406,-0.3227,-0.3227,-0.3051,-0.292,-0.292,-0.292,-0.292,-0.292,-0.292,-0.292,-0.292,-0.2694,-0.2604,-0.2873,-0.292,-0.292,-0.292,-0.292,-0.2784,-0.2513,-0.2513,-0.2424,-0.2243,-0.2199,-0.1974,-0.1436,-0.1436,-0.1211,-0.0718,-0.0718,-0.0718,-0.0718,-0.0718,-0.0718,-0.0718,-0.0987,-0.1211,-0.3012,0.0,-0.3139,-0.3408,-0.3452,-0.3497,-0.3587,-0.3587,-0.3587,-0.3497,-0.3413,-0.3395,-0.3355,-0.3369,-0.3395,-0.3444,-0.3808,-0.4076,-0.4166,-0.4523,-0.4905,-0.5249,-0.5481,0.0,0.0,0.0,0.0,-0.5174,-0.5022,-0.49,-0.4804,-0.4708,-0.4663,-0.4663,-0.4716,-0.4747,-0.4747,-0.4794,-0.4942,-0.5091,-0.5384,-0.5483,-0.5483,-0.5679,-0.5925,-0.6273,-0.6173,-0.6228,-0.6299,-0.5965,-0.5679,-0.5374,-0.5007,-0.4806,-0.4665,-0.4538,-0.4442,-0.4381,-0.432,-0.43,-0.43,-0.43,-0.43,-0.4255,-0.4078,-0.4036,-0.3991,-0.3767,-0.3723,-0.3631,-0.3406,-0.3317,-0.3318,-0.3187,-0.3053,-0.3006,-0.3006,-0.2963,-0.2829,-0.2649,-0.2649,-0.2604,-0.2469,-0.2424,-0.2424,-0.2424,-0.2469,-0.2469,-0.2424,-0.2424,-0.2424,-0.2424,-0.2424,-0.2379,-0.2289,-0.2154,-0.193,-0.1705,-0.1525,-0.13,-0.0942,-0.0807,-0.0583,-0.0224,-0.0045,0.009,0.0224,0.0224,0.0179,0.0045,-0.0224,-0.0493,-0.3142,-0.3253,-0.3406,-0.3765,-0.3853,-0.3855,-0.3989,-0.3989,-0.3944,-0.3767,-0.3682,-0.3619,-0.3623,-0.3636,-0.3707,-0.3846,-0.4168,-0.4478,-0.452,-0.4997,-0.541,-0.567,-0.6037,-0.6389,0.0,0.0,0.0,-0.5658,-0.5553,-0.5334,-0.5045,-0.4948,-0.4853,-0.4753,-0.4756,-0.4784,-0.4784,-0.4784,-0.4885,-0.5037,-0.5236,-0.5386,-0.5438,-0.5438,-0.5589,-0.5839,-0.5839,-0.5949,-0.6033,-0.5736,-0.5501,-0.5243,-0.4964,-0.4762,-0.4618,-0.4631,-0.4536,-0.4471,-0.4379,-0.4238,-0.4168,-0.4168,-0.4123,-0.4032,-0.3857,-0.3812,-0.3767,-0.3542,-0.3452,-0.3408,-0.3139,-0.3094,-0.3051,-0.2918,-0.2829,-0.2739,-0.2739,-0.2694,-0.2604,-0.2424,-0.2302,-0.2224,-0.2088,-0.1963,-0.1881,-0.1835,-0.1835,-0.1916,-0.2023,-0.1974,-0.193,-0.193,-0.193,-0.1885,-0.1794,-0.157,-0.13,-0.1076,-0.0852,-0.0583,-0.0314,-0.0179,0.0,0.0224,0.0403,0.0628,0.0852,0.0762,0.0673,0.0628,0.0359,0.0134,-0.319,-0.3398,-0.3765,-0.421,-0.4342,-0.4389,-0.4659,-0.4705,-0.4572,-0.4036,-0.3944,-0.3853,0.0,0.0,-0.403,-0.43,-0.4569,-0.4837,-0.501,-0.5554,-0.595,0.0,0.0,0.0,0.0,0.0,0.0,-0.6256,0.0,-0.5981,-0.5198,-0.5189,-0.509,-0.4834,-0.4784,-0.4784,-0.4784,-0.4784,-0.4784,-0.4784,-0.4784,-0.4937,-0.519,-0.519,-0.5338,-0.5586,-0.5586,-0.5584,-0.5586,-0.5288,-0.519,-0.5181,-0.4845,-0.4714,-0.4704,-0.4618,-0.4631,-0.4567,-0.4433,-0.4163,-0.3914,-0.3911,-0.3774,-0.3592,-0.3588,-0.3587,-0.3542,-0.3272,-0.3183,-0.3138,-0.2963,-0.2875,-0.2873,-0.2873,-0.2695,-0.2473,-0.2473,-0.2295,-0.2161,-0.2161,-0.1921,-0.1715,-0.1715,-0.1507,-0.124,-0.1049,-0.0811,-0.0893,-0.1629,-0.1485,-0.1305,-0.1348,-0.1348,-0.1257,-0.1076,-0.0807,-0.0583,-0.0359,-0.009,0.0179,0.0403,0.0448,0.0583,0.0762,0.0762,0.0897,0.1166,0.0897,0.0897,0.1166,0.0897,0.0628,-0.3853,-0.4059,-0.4255,-0.4699,-0.4832,-0.4832,-0.4924,-0.479,-0.4661,-0.4527,-0.4297,-0.4138,0.0,0.0,0.0,-0.4559,-0.5057,0.0,-0.5497,-0.6096,0.0,-0.7094,0.0,-0.7814,-0.8304,-0.8368,0.0,0.0,-0.6822,-0.6294,-0.6093,-0.5525,-0.519,-0.509,-0.4887,-0.4784,-0.4784,-0.4784,-0.4784,-0.4784,-0.4784,-0.4834,-0.4887,-0.4887,-0.5037,-0.5288,-0.5288,-0.5438,-0.5586,-0.5288,-0.519,-0.5188,-0.4862,-0.4752,-0.475,-0.4775,-0.4728,-0.4623,-0.4403,-0.4245,-0.407,-0.3827,-0.3718,-0.3616,-0.3379,-0.3317,-0.3272,-0.3051,-0.2962,-0.2963,-0.292,-0.2739,-0.2604,-0.2604,-0.2454,-0.2205,-0.202,-0.1952,-0.1785,-0.1456,-0.099,-0.0615,-0.0426,-0.0333,-0.0286,-0.0191,0.0,-0.0095,-0.0611,-0.047,-0.028,-0.0368,-0.0367,-0.0319,-0.0269,-0.0045,0.0134,0.0179,0.0583,0.0852,0.0897,0.1256,0.148,0.1525,0.1705,0.1839,0.193,0.1839,0.1839,0.193,0.166,0.1391,-0.4107,-0.4389,-0.4567,-0.5057,-0.5191,-0.5179,-0.5085,-0.4946,-0.4717,-0.4539,-0.4316,0.0,-0.4228,0.0,0.0,0.0,0.0,0.0,-0.5855,-0.66,-0.7214,0.0,-0.8017,0.0,-0.8764,-0.8825,-0.8627,0.0,-0.7487,-0.6886,-0.6437,-0.5839,-0.5441,-0.519,-0.4937,-0.4784,-0.4784,-0.4784,-0.4784,-0.4784,-0.4784,-0.4784,-0.4784,-0.4784,-0.4885,-0.5037,-0.5037,-0.5087,-0.5236,-0.5087,-0.5037,-0.4987,-0.4834,-0.4784,-0.4784,-0.4784,-0.4706,-0.4518,-0.4268,-0.4092,-0.3891,-0.3643,-0.3515,-0.3413,-0.3235,-0.3178,-0.3086,-0.2858,-0.2766,-0.272,-0.2629,-0.2398,-0.2214,-0.2214,-0.1954,-0.1642,-0.136,-0.123,-0.0956,-0.0337,0.0,0.0339,0.0683,0.0782,0.0782,0.0782,0.0977,0.1026,0.0733,0.0626,0.0617,0.0704,0.0703,0.0697,0.0683,0.0909,0.1042,0.1032,0.139,0.157,0.157,0.1839,0.1974,0.1974,0.2109,0.2243,0.2334,0.2243,0.2243,0.2334,0.2109,0.1885,-0.4255,-0.4569,-0.4837,-0.5327,-0.546,-0.5385,-0.5226,-0.5031,-0.4789,-0.4384,0.0,-0.4023,-0.4157,-0.4387,-0.4631,-0.4949,0.0,-0.5905,-0.6192,-0.7044,-0.7688,-0.7799,-0.8396,-0.8874,-0.8924,-0.8924,-0.8775,-0.8531,-0.8237,-0.7637,-0.6587,-0.6239,-0.5792,-0.524,-0.4937,-0.4784,-0.4784,-0.4784,-0.4784,-0.4784,-0.4784,-0.4784,-0.4784,-0.4784,-0.4784,-0.4784,-0.4784,-0.4784,-0.4784,-0.4784,-0.4784,-0.4784,-0.4784,-0.4784,-0.4734,-0.4734,-0.4585,-0.4288,-0.4034,-0.3784,-0.3565,-0.339,-0.3252,-0.3108,-0.3099,-0.3049,-0.2954,-0.2667,-0.2572,-0.2429,-0.2193,-0.1908,-0.1669,-0.1669,-0.129,-0.0862,-0.0574,-0.024,0.0193,0.0884,0.1035,0.1188,0.1609,0.1714,0.1714,0.1714,0.1916,0.2068,0.2118,0.1667,0.144,0.1676,0.1723,0.1662,0.1629,0.1812,0.1935,0.1849,0.2118,0.2251,0.2243,0.2289,0.2289,0.2289,0.2333,0.2423,0.2603,0.2469,0.2469,0.2648,0.2469,0.2378,-0.4654,-0.4921,-0.5055,-0.5552,-0.5644,-0.5567,-0.5269,-0.5031,0.0,0.0,-0.4199,-0.4023,-0.4157,-0.456,-0.485,-0.4994,0.0,0.0,0.0,0.0,-0.8157,0.0,0.0,0.0,0.0,0.0,0.0,0.0,-0.8829,-0.818,-0.7138,-0.6587,-0.5987,-0.524,-0.4937,-0.4784,-0.4784,-0.4784,-0.4784,-0.4784,-0.4784,-0.4784,-0.4784,-0.4784,-0.4784,-0.4784,-0.4784,-0.4784,-0.4784,-0.4784,-0.4784,-0.4784,-0.4784,-0.4686,-0.4487,-0.4487,-0.4286,-0.4034,-0.3784,-0.3635,-0.3572,-0.3247,-0.3124,-0.3115,-0.3112,-0.2905,-0.2667,-0.2619,-0.2287,-0.1907,-0.1861,-0.1383,-0.0906,-0.0906,-0.0531,-0.0049,0.0488,0.0988,0.14,0.1756,0.1807,0.1909,0.2218,0.2269,0.2269,0.2269,0.232,0.2422,0.2623,0.2408,0.2235,0.2248,0.2244,0.2228,0.2187,0.2184,0.2212,0.2121,0.2395,0.2514,0.2471,0.2649,0.2784,0.2784,0.296,0.3048,0.3093,0.3274,0.3363,0.3408,0.3363,0.3229,-0.4612,-0.4924,-0.5099,-0.5597,-0.5688,-0.5596,-0.5238,0.0,0.0,0.0,-0.3891,-0.3771,-0.3906,0.0,0.0,0.0,0.0,0.0,0.0,0.0,0.0,0.0,0.0,0.0,0.0,0.0,-0.948,-0.9232,-0.8928,-0.8375,-0.7434,-0.6484,-0.5737,-0.524,-0.4937,-0.4784,-0.4784,-0.4784,-0.4784,-0.4784,-0.4784,-0.4784,-0.4784,-0.4784,-0.4784,-0.4784,-0.4784,-0.4784,-0.4784,-0.4784,-0.4736,-0.4585,-0.4585,-0.4437,-0.4185,-0.4185,-0.4034,-0.3784,-0.3635,-0.3433,-0.3175,-0.2996,-0.2938,-0.2932,-0.2955,-0.265,-0.2258,-0.2113,-0.1671,-0.1229,-0.113,-0.059,-0.0098,0.0049,0.0594,0.1145,0.1394,0.1754,0.2118,0.2371,0.2422,0.2522,0.2775,0.2826,0.2826,0.2826,0.2826,0.2876,0.2977,0.3027,0.2967,0.284,0.2837,0.2767,0.2716,0.271,0.2688,0.2682,0.2914,0.3027,0.292,0.3191,0.3312,0.3277,0.3363,0.3406,0.3406,0.3542,0.3587,0.3587,0.3587,0.3542,-0.4431,-0.479,-0.5099,-0.5508,-0.5644,-0.5535,-0.5128,-0.4785,0.0,0.0,-0.3567,-0.3455,-0.3643,0.0,-0.4464,0.0,0.0,0.0,0.0,0.0,0.0,0.0,0.0,0.0,0.0,0.0,0.0,-0.9282,-0.8882,-0.828,-0.7534,-0.6284,-0.5486,-0.529,-0.4985,-0.4784,-0.4784,-0.4734,-0.4736,-0.4736,-0.4634,-0.4634,-0.4634,-0.4634,-0.4634,-0.4634,-0.4634,-0.4634,-0.4634,-0.4634,-0.4485,-0.4338,-0.4338,-0.4135,-0.3934,-0.3934,-0.3682,-0.3433,-0.3433,-0.313,-0.2724,-0.2623,-0.2674,-0.2724,-0.2623,-0.227,-0.1867,-0.1515,-0.1061,-0.0556,-0.0253,0.0253,0.0758,0.106,0.1665,0.2169,0.2169,0.2371,0.2674,0.2927,0.2977,0.3079,0.3331,0.3381,0.3381,0.3381,0.3381,0.3381,0.3381,0.3533,0.3584,0.3381,0.3381,0.336,0.331,0.3306,0.3279,0.3263,0.3452,0.3517,0.3447,0.3617,0.3673,0.3612,0.3642,0.3678,0.3678,0.3721,0.3765,0.3765,0.3765,0.3765,-0.4188,-0.4654,-0.5055,-0.5371,-0.5416,-0.5313,-0.4833,0.0,0.0,-0.3602,-0.3333,-0.3243,-0.3568,-0.3896,-0.428,0.0,0.0,-0.6481,0.0,0.0,0.0,0.0,0.0,0.0,0.0,0.0,0.0,-0.9579,-0.8634,-0.7836,-0.7288,-0.6184,-0.5584,-0.5586,-0.5085,-0.4784,-0.4784,-0.4537,-0.4438,-0.4438,-0.4185,-0.4083,-0.4083,-0.4083,-0.4083,-0.4083,-0.4083,-0.4083,-0.4083,-0.4083,-0.4083,-0.4033,-0.4033,-0.3885,-0.3635,-0.3635,-0.3331,-0.2876,-0.2876,-0.2674,-0.2422,-0.2169,-0.2219,-0.2371,-0.2169,-0.1867,-0.1515,-0.101,-0.0505,0.0051,0.0556,0.1111,0.1616,0.2119,0.2472,0.2725,0.2725,0.2927,0.323,0.3484,0.3534,0.3635,0.3883,0.3932,0.3932,0.3932,0.3932,0.3932,0.3932,0.3932,0.3932,0.3932,0.3932,0.393,0.3924,0.3922,0.3891,0.3816,0.3861,0.3878,0.3854,0.3738,0.3697,0.369,0.3805,0.3859,0.3859,0.4123,0.4255,0.4255,0.4255,0.4255,-0.3874,-0.4297,-0.4654,-0.5055,-0.5146,-0.5002,-0.4455,0.0,-0.3902,-0.3207,-0.2981,-0.3003,-0.3355,-0.3682,-0.4149,-0.4803,0.0,0.0,0.0,0.0,0.0,0.0,0.0,0.0,0.0,0.0,-0.9476,-0.9126,-0.828,-0.7584,-0.7238,-0.6187,-0.5586,-0.5586,-0.5085,-0.4736,-0.4537,-0.4438,-0.4338,-0.4135,-0.4033,-0.3982,-0.3982,-0.3982,-0.3982,-0.3982,-0.3982,-0.3982,-0.3982,-0.3982,-0.3883,-0.3734,-0.3581,-0.3331,-0.3079,-0.2927,-0.2725,-0.2522,-0.2371,-0.212,-0.1868,-0.1414,-0.1262,-0.1211,-0.1262,-0.0959,-0.0556,-0.0202,0.0404,0.101,0.1212,0.1818,0.2372,0.2574,0.2826,0.3079,0.323,0.3383,0.3534,0.3784,0.3835,0.3883,0.3982,0.3982,0.3982,0.3982,0.3982,0.3982,0.3982,0.4135,0.4236,0.4236,0.4085,0.3982,0.3982,0.3982,0.3969,0.394,0.4088,0.4203,0.4125,0.4236,0.429,0.4238,0.42,0.4201,0.4201,0.4281,0.4389,0.4525,0.4525,0.4612,-0.3512,-0.3941,-0.4253,-0.4607,-0.4676,-0.457,0.0,0.0,-0.3583,-0.2929,-0.2746,-0.2838,-0.3165,-0.3542,-0.4012,-0.4718,0.0,-0.6427,-0.7393,0.0,0.0,0.0,0.0,0.0,0.0,-0.9497,-0.9278,-0.8726,-0.8028,-0.7434,-0.7089,-0.6137,-0.5586,-0.5586,-0.4985,-0.4585,-0.4388,-0.4237,-0.4086,-0.3883,-0.3783,-0.3783,-0.3783,-0.3783,-0.3783,-0.3783,-0.3783,-0.3732,-0.363,-0.363,-0.3481,-0.323,-0.3029,-0.2775,-0.2522,-0.2371,-0.217,-0.2018,-0.1716,-0.1464,-0.1162,-0.0606,-0.0253,-0.0051,-0.0101,0.0051,0.0303,0.0657,0.1313,0.1969,0.1969,0.2424,0.2927,0.3027,0.318,0.3381,0.3684,0.3736,0.3784,0.4085,0.4135,0.4133,0.4234,0.4234,0.4234,0.4234,0.4284,0.4334,0.4334,0.4585,0.4738,0.4738,0.4585,0.4435,0.4234,0.4234,0.4284,0.4334,0.4537,0.4662,0.4695,0.4867,0.492,0.4853,0.4757,0.4707,0.4707,0.4611,0.4653,0.4838,0.4806,0.4879,-0.3102,-0.3537,-0.3894,-0.3894,-0.3925,-0.3888,0.0,0.0,-0.2989,-0.284,-0.2628,-0.2628,-0.3023,-0.3467,-0.3992,-0.462,-0.5486,0.0,-0.7028,0.0,0.0,0.0,0.0,0.0,0.0,-0.9278,-0.8985,-0.8432,-0.7882,0.0,-0.6842,-0.6037,-0.5586,-0.5586,-0.4839,-0.4388,-0.4388,-0.3887,-0.3586,-0.3586,-0.3332,-0.323,-0.323,-0.323,-0.323,-0.323,-0.323,-0.3079,-0.2826,-0.2826,-0.2674,-0.2422,-0.2422,-0.2219,-0.2017,-0.2017,-0.1665,-0.1162,-0.0909,-0.0657,-0.0303,0.0202,0.0556,0.0909,0.1415,0.1212,0.0909,0.1415,0.2171,0.2775,0.2775,0.2977,0.3281,0.3534,0.3586,0.3685,0.3934,0.3982,0.4085,0.4338,0.4388,0.4487,0.4734,0.4784,0.4784,0.4784,0.5037,0.519,0.519,0.5436,0.5584,0.5584,0.5584,0.5386,0.4834,0.4784,0.4887,0.519,0.519,0.5288,0.5584,0.5539,0.5489,0.5486,0.543,0.5377,0.5377,0.5266,0.5213,0.5211,0.5058,0.501,-0.2726,-0.3048,-0.3348,-0.3516,-0.3541,-0.3504,-0.3263,-0.3105,-0.2908,-0.2641,-0.255,-0.2628,-0.3023,-0.3467,-0.3992,-0.462,-0.5483,0.0,0.0,0.0,0.0,0.0,0.0,0.0,0.0,0.0,-0.8485,-0.8137,-0.7637,-0.7086,-0.6539,-0.5739,-0.5238,-0.5035,-0.4638,-0.4237,-0.3836,-0.3685,-0.3484,-0.3332,-0.323,-0.318,-0.318,-0.318,-0.3079,-0.2927,-0.2927,-0.2775,-0.2522,-0.232,-0.2219,-0.2068,-0.1716,-0.1414,-0.1161,-0.0959,-0.0707,-0.0354,-0.0051,0.0202,0.0505,0.1061,0.1414,0.1665,0.2018,0.1917,0.1716,0.2271,0.2624,0.2876,0.323,0.3433,0.3534,0.3833,0.3883,0.3934,0.4236,0.4286,0.4336,0.4636,0.4839,0.4989,0.5037,0.5236,0.5334,0.5334,0.5436,0.5539,0.5741,0.5839,0.5939,0.6137,0.6137,0.5937,0.5386,0.5334,0.5386,0.5486,0.5639,0.5792,0.5889,0.6006,0.6135,0.6135,0.6068,0.6008,0.6008,0.5944,0.5893,0.595,0.5958,0.5941,0.0,-0.2566,-0.2692,-0.2857,-0.288,0.0,0.0,-0.2665,-0.2637,-0.2439,-0.245,-0.2664,-0.3101,-0.3591,-0.4126,-0.4678,-0.56,0.0,0.0,0.0,0.0,0.0,0.0,0.0,0.0,-0.8485,-0.8137,-0.7892,-0.7238,-0.6686,-0.6287,-0.5489,-0.4887,-0.4535,-0.4236,-0.3937,-0.3586,-0.3484,-0.3383,-0.318,-0.318,-0.313,-0.3029,-0.3029,-0.2826,-0.2522,-0.2522,-0.227,0.0,-0.1665,-0.1463,-0.1363,-0.0909,-0.0606,-0.0303,-0.0051,0.0202,0.0505,0.0858,0.111,0.1312,0.1767,0.2069,0.2371,0.2623,0.2522,0.2371,0.2826,0.3029,0.318,0.3534,0.3685,0.3835,0.4085,0.4135,0.4236,0.4487,0.4638,0.4738,0.4937,0.5238,0.5491,0.5491,0.5739,0.5884,0.5884,0.5987,0.6139,0.6439,0.6539,0.6686,0.6986,0.6986,0.6886,0.6537,0.6134,0.5937,0.6037,0.6289,0.6489,0.6589,0.6839,0.6986,0.6986,0.6955,0.6963,0.6963,0.6882,0.6847,0.6805,0.6801,0.6777,0.0,0.0,0.0,0.0,0.0,0.0,0.0,-0.2072,0.0,-0.2196,-0.2398,-0.2723,-0.3206,-0.3789,-0.4338,-0.4817,-0.5736,0.0,0.0,0.0,0.0,0.0,0.0,0.0,-0.8354,-0.8137,-0.7842,-0.7543,-0.6839,-0.6237,-0.5942,-0.5188,-0.4535,-0.3982,-0.3684,-0.3534,-0.3584,-0.3332,-0.318,-0.318,-0.318,-0.3027,-0.2725,-0.2725,-0.2422,-0.1917,-0.1917,-0.1615,-0.1111,-0.0808,-0.0556,-0.0303,0.0,0.0253,0.0555,0.0808,0.1061,0.1364,0.1866,0.2017,0.2118,0.2371,0.2674,0.2927,0.318,0.3079,0.2927,0.318,0.3433,0.3635,0.3635,0.3835,0.4085,0.4386,0.4438,0.4539,0.4784,0.5037,0.524,0.524,0.5691,0.6042,0.6092,0.6289,0.6487,0.6487,0.6742,0.6992,0.7288,0.7531,0.7783,0.8088,0.8137,0.8137,0.8137,0.7138,0.6639,0.6895,0.7138,0.7434,0.768,0.7985,0.8137,0.8137,0.8137,0.8137,0.8137,0.8032,0.7931,0.7832,0.7639,0.7517,-0.1473,0.0,-0.1958,-0.1958,-0.1949,-0.1941,0.0,0.0,-0.2003,0.0,0.0,-0.2559,-0.3165,-0.3666,-0.4169,-0.482,0.0,0.0,0.0,0.0,0.0,0.0,0.0,-0.8177,-0.812,-0.7842,-0.7391,-0.6739,-0.6487,-0.6037,-0.5135,-0.4688,-0.4237,-0.3736,-0.323,-0.3079,-0.3281,-0.323,-0.3079,-0.2876,-0.2876,-0.2623,-0.2169,-0.2169,-0.1766,-0.106,-0.106,-0.0757,-0.0253,0.0,0.0253,0.0556,0.0808,0.1212,0.1614,0.1715,0.1866,0.2119,0.227,0.2422,0.2674,0.318,0.3383,0.3484,0.3732,0.3633,0.3433,0.3484,0.3684,0.3934,0.4137,0.4237,0.4386,0.4636,0.4887,0.5039,0.509,0.5491,0.5792,0.5792,0.6242,0.6692,0.6889,0.7135,0.7385,0.7587,0.769,0.7885,0.8379,0.8478,0.8676,0.9179,0.9229,0.9229,0.9229,0.8237,0.764,0.769,0.8184,0.8474,0.8528,0.8977,0.9229,0.9229,0.9229,0.9229,0.9229,0.9106,0.9044,0.8997,0.8824,0.8674,-0.1296,-0.1454,-0.1611,-0.1611,-0.1611,-0.1611,0.0,0.0,0.0,0.0,0.0,-0.2526,-0.321,-0.365,0.0,0.0,0.0,0.0,0.0,0.0,0.0,0.0,0.0,-0.7725,0.0,-0.73,-0.6831,-0.6431,-0.5937,-0.5434,-0.4834,-0.4185,-0.3734,-0.3433,-0.2876,-0.2725,-0.3027,-0.2876,-0.2775,-0.2623,-0.2472,-0.222,-0.1817,-0.1564,-0.106,-0.0404,-0.0152,0.0152,0.0606,0.0959,0.1211,0.1363,0.1665,0.1917,0.2219,0.232,0.2472,0.2623,0.2725,0.2927,0.323,0.3633,0.3784,0.3835,0.3934,0.3986,0.3935,0.3835,0.3986,0.4236,0.4338,0.4589,0.4788,0.4937,0.529,0.5591,0.5591,0.6092,0.6539,0.6539,0.7089,0.7637,0.7882,0.818,0.8432,0.8684,0.8733,0.8882,0.9274,0.9373,0.9571,1.0068,1.0167,1.0216,1.0314,0.9817,0.9274,0.8783,0.9126,0.9373,0.9373,0.9867,1.0216,1.0314,1.0314,1.0314,1.0314,1.0254,1.025,1.0197,1.0048,0.9899,-0.1296,-0.1296,-0.1296,-0.1296,-0.1296,-0.1296,0.0,0.0,0.0,0.0,0.0,0.0,0.0,0.0,0.0,0.0,0.0,0.0,0.0,0.0,0.0,0.0,-0.7184,0.0,-0.7252,-0.6683,-0.6284,-0.6179,-0.5336,-0.4734,-0.4583,-0.3682,-0.318,-0.3079,-0.2574,-0.2473,-0.2675,-0.2472,-0.2371,-0.227,-0.2069,-0.1716,-0.1364,-0.0859,-0.0303,0.0253,0.0757,0.1111,0.1414,0.1866,0.2068,0.2169,0.2371,0.2472,0.2573,0.2826,0.2927,0.2977,0.323,0.3482,0.3685,0.3984,0.4083,0.4083,0.4133,0.4284,0.4437,0.4234,0.4336,0.4539,0.4539,0.4939,0.534,0.534,0.5741,0.6192,0.6192,0.6839,0.7388,0.7437,0.8035,0.863,0.8924,0.9179,0.943,0.9727,0.9772,0.9875,1.0216,1.0216,1.0413,1.0949,1.0998,1.1096,1.1292,1.134,1.0949,1.0019,1.0117,1.0265,1.0314,1.0752,1.1096,1.134,1.134,1.134,1.134,1.134,1.1389,1.1389,1.125,1.1191,-0.1296,-0.1296,-0.1296,-0.1296,-0.1296,-0.1296,-0.1296,0.0,0.0,0.0,0.0,0.0,0.0,0.0,0.0,0.0,0.0,0.0,0.0,0.0,0.0,-0.7162,0.0,-0.7035,-0.6606,-0.6459,-0.6019,-0.5133,-0.4885,-0.4384,-0.3481,-0.3281,-0.2977,-0.2522,-0.2222,-0.2071,-0.2122,-0.2322,-0.217,-0.1717,-0.1667,-0.1162,-0.0253,0.0051,0.0657,0.1364,0.1665,0.1968,0.222,0.232,0.2472,0.2674,0.2725,0.2876,0.313,0.3383,0.3484,0.3534,0.3783,0.3883,0.3984,0.4236,0.4338,0.4386,0.4585,0.4686,0.4786,0.4989,0.5039,0.5092,0.5092,0.5491,0.5892,0.5892,0.6439,0.7039,0.7039,0.7637,0.828,0.8528,0.8832,0.9232,0.9723,0.9871,1.0068,1.0556,1.0609,1.0801,1.1292,1.134,1.1487,1.178,1.1834,1.1829,1.1878,1.1883,1.1834,1.1634,1.1443,1.1443,1.1683,1.1785,1.1834,1.1883,1.1883,1.1883,1.1883,1.2127,1.2224,1.2224,1.2431,1.24,-0.1296,-0.1296,-0.1296,-0.1296,-0.1296,-0.1296,-0.1296,0.0,0.0,0.0,0.0,0.0,0.0,0.0,0.0,0.0,0.0,0.0,-0.5829,-0.6187,-0.6431,0.0,0.0,-0.6391,-0.6095,-0.5704,-0.5282,-0.483,-0.4386,-0.3883,-0.323,-0.2927,-0.2574,-0.2171,-0.1768,-0.1566,-0.1566,-0.1565,-0.1464,-0.1364,-0.096,-0.0404,0.0253,0.0808,0.1313,0.1817,0.227,0.2522,0.2623,0.2775,0.2977,0.323,0.323,0.3381,0.3632,0.3784,0.3835,0.3835,0.4135,0.4236,0.4236,0.4537,0.4738,0.4839,0.4987,0.5135,0.5286,0.5541,0.5441,0.529,0.5541,0.5942,0.6289,0.6589,0.7138,0.7686,0.7982,0.8581,0.9126,0.9373,0.9673,1.0019,1.056,1.0659,1.085,1.1389,1.1438,1.1541,1.178,1.1834,1.1932,1.2175,1.2224,1.2273,1.2419,1.2516,1.2414,1.2029,1.2024,1.2175,1.2419,1.2516,1.2662,1.2807,1.2807,1.2807,1.2807,1.2953,1.3007,1.3007,1.3104,1.3091,-0.1296,-0.1296,-0.1296,-0.1296,0.0,-0.1296,-0.1296,0.0,0.0,0.0,0.0,0.0,0.0,0.0,0.0,0.0,0.0,-0.4915,-0.5065,-0.5405,-0.5615,-0.5566,-0.5615,-0.5615,-0.5468,-0.4982,-0.4569,-0.4429,-0.3835,-0.3332,-0.2928,-0.2523,-0.2171,-0.1921,-0.1465,-0.1162,-0.1111,-0.0758,-0.0707,-0.0909,-0.0253,0.0303,0.0707,0.1465,0.1918,0.2219,0.2775,0.2977,0.3027,0.3279,0.3533,0.3685,0.3685,0.3835,0.4085,0.4085,0.4133,0.4234,0.4437,0.4539,0.464,0.4836,0.5087,0.529,0.5391,0.5539,0.5789,0.6092,0.5942,0.5741,0.6192,0.6539,0.6886,0.7434,0.7985,0.8485,0.8977,0.9521,0.9969,1.0216,1.0511,1.085,1.1292,1.1389,1.1536,1.2024,1.2078,1.2127,1.2175,1.2224,1.2322,1.2516,1.2613,1.2759,1.2958,1.3104,1.2953,1.237,1.2516,1.2764,1.2958,1.3098,1.3292,1.3491,1.3491,1.3491,1.3491,1.3539,1.3636,1.3684,1.3732,1.3829,-0.1296,-0.1296,-0.1296,-0.1296,-0.1296,0.0,-0.1296,-0.1296,0.0,0.0,0.0,0.0,0.0,0.0,0.0,0.0,0.0,-0.4304,-0.4341,0.0,-0.4874,-0.4874,-0.4874,-0.4776,-0.4529,-0.4429,-0.4131,-0.3381,-0.3281,-0.2879,-0.2123,-0.2071,-0.1921,-0.1617,-0.1364,-0.1061,-0.0808,-0.0303,-0.0051,-0.0101,0.0202,0.0758,0.1516,0.207,0.2472,0.2775,0.3332,0.3534,0.3584,0.3833,0.3932,0.3984,0.3984,0.4135,0.4388,0.4388,0.4537,0.4734,0.4784,0.4937,0.514,0.519,0.5338,0.5636,0.5892,0.5942,0.6092,0.6592,0.6892,0.7089,0.7089,0.7487,0.8038,0.8577,0.9076,0.9575,0.9871,1.0364,1.0801,1.1047,1.134,1.1585,1.1883,1.1927,1.2029,1.2322,1.237,1.2467,1.271,1.2905,1.305,1.305,1.3249,1.3443,1.3443,1.3443,1.3443,1.3394,1.3394,1.3443,1.3443,1.3443,1.3491,1.3491,1.3491,1.3491,1.3491,1.3738,1.4022,1.425,1.4496,1.4742,-0.1296,-0.1296,-0.1296,-0.1296,0.0,0.0,0.0,0.0,0.0,0.0,0.0,0.0,0.0,0.0,0.0,0.0,-0.3858,-0.398,-0.4056,-0.4184,-0.4284,-0.4284,-0.4284,-0.4284,-0.4185,-0.3835,-0.3533,-0.323,-0.2876,-0.2473,-0.2022,-0.2022,-0.1819,-0.1364,-0.0909,-0.0556,-0.0303,0.0404,0.0808,0.101,0.1111,0.1465,0.212,0.2472,0.2876,0.3331,0.3534,0.3685,0.3835,0.3934,0.4085,0.4286,0.4435,0.4535,0.4686,0.4839,0.4939,0.5087,0.5236,0.5386,0.5489,0.5641,0.5889,0.6137,0.6392,0.6739,0.7086,0.7441,0.7836,0.818,0.7982,0.8233,0.868,0.9373,0.9817,1.0216,1.0659,1.1047,1.1394,1.1639,1.1785,1.1932,1.2224,1.2273,1.2322,1.2619,1.2759,1.2856,1.2953,1.3201,1.3346,1.3346,1.3443,1.3588,1.3738,1.3919,1.4064,1.4256,1.3925,1.3738,1.3738,1.407,1.4256,1.4256,1.4406,1.4502,1.4502,1.4604,1.47,1.479,1.4885,1.4981,-0.1296,-0.1296,-0.1296,0.0,0.0,0.0,0.0,0.0,0.0,0.0,0.0,0.0,0.0,0.0,0.0,0.0,-0.3448,-0.3462,-0.3549,-0.3501,-0.3479,-0.3479,-0.3479,-0.3479,-0.3479,-0.3177,-0.2928,-0.2827,-0.2473,-0.212,-0.1768,-0.1768,-0.1516,-0.096,-0.0505,-0.0051,0.0354,0.101,0.1566,0.2121,0.2121,0.2322,0.2674,0.2927,0.3281,0.3736,0.3836,0.3935,0.4135,0.4234,0.4384,0.4537,0.4836,0.4937,0.4937,0.5238,0.5391,0.5491,0.5639,0.5837,0.6037,0.6289,0.6537,0.6833,0.7188,0.7637,0.8031,0.8287,0.8779,0.9171,0.9171,0.9221,0.9468,1.0216,1.0556,1.09,1.134,1.1683,1.1927,1.2078,1.2175,1.2322,1.2467,1.2565,1.2662,1.2861,1.3098,1.3249,1.3249,1.3443,1.3684,1.3877,1.3973,1.407,1.4268,1.4454,1.464,1.4921,1.4592,1.4358,1.4268,1.4646,1.4838,1.4838,1.5035,1.5131,1.5172,1.5172,1.5261,1.5452,1.5452,1.5499,-0.1218,-0.1297,0.0,0.0,0.0,0.0,0.0,0.0,0.0,0.0,0.0,0.0,-0.2818,0.0,0.0,-0.3077,-0.281,-0.2656,-0.276,-0.2573,-0.2422,-0.2422,-0.2422,-0.2422,-0.2422,-0.2422,-0.2271,-0.2022,-0.1971,-0.1768,-0.1212,-0.1212,-0.096,-0.0404,-0.0152,0.0404,0.1212,0.1465,0.2172,0.318,0.318,0.323,0.323,0.3484,0.3734,0.4033,0.4286,0.4388,0.4438,0.4686,0.4784,0.4834,0.509,0.519,0.524,0.5486,0.5789,0.5992,0.5992,0.6342,0.6845,0.7138,0.7385,0.773,0.8233,0.8577,0.8874,0.9133,0.9579,1.0117,1.0654,1.0609,1.0556,1.1096,1.1389,1.1683,1.1932,1.2224,1.2419,1.2419,1.2613,1.2813,1.2813,1.2953,1.3098,1.3098,1.3346,1.3491,1.3491,1.3738,1.4124,1.4646,1.4933,1.5083,1.5131,1.5131,1.522,1.5384,1.5391,1.5302,1.5131,1.5131,1.5131,1.5131,1.5131,1.522,1.5391,1.5391,1.5669,1.619,1.619,1.6339,-0.1218,0.0,0.0,0.0,0.0,0.0,0.0,0.0,0.0,0.0,0.0,-0.254,-0.2826,0.0,0.0,-0.2745,-0.2526,-0.2416,-0.251,-0.2472,-0.2422,-0.2422,-0.2422,-0.2422,-0.2422,-0.2221,-0.2071,-0.2022,-0.1667,-0.1364,-0.1212,-0.0859,-0.0455,-0.0152,0.0505,0.1061,0.1465,0.2323,0.2877,0.318,0.3581,0.3783,0.3783,0.3833,0.4034,0.4286,0.4388,0.4487,0.4686,0.4987,0.509,0.509,0.5388,0.5589,0.5792,0.6087,0.6339,0.6592,0.6986,0.7235,0.7484,0.8131,0.8379,0.8528,0.908,0.9571,0.9965,1.0019,1.056,1.1145,1.134,1.1585,1.1785,1.1785,1.198,1.2175,1.2273,1.2467,1.2716,1.2856,1.2953,1.305,1.3249,1.3346,1.3394,1.3394,1.3775,1.4208,1.4598,1.47,1.4838,1.5159,1.5248,1.5397,1.5594,1.5778,1.5961,1.6251,1.64,1.6258,1.5642,1.5778,1.5866,1.5866,1.6062,1.6163,1.6251,1.6447,1.6595,1.6784,1.6911,1.6998,-0.1076,0.0,0.0,0.0,0.0,0.0,0.0,0.0,0.0,0.0,0.0,-0.2289,-0.2558,-0.2469,0.0,-0.2463,-0.2289,-0.2175,-0.221,-0.217,-0.207,-0.207,-0.207,-0.207,-0.207,-0.1818,-0.1667,-0.1667,-0.1263,-0.096,-0.0758,-0.0303,0.0152,0.0606,0.1313,0.1868,0.2222,0.2977,0.3481,0.3684,0.3984,0.4236,0.4334,0.4185,0.4286,0.4587,0.4688,0.4788,0.4987,0.5238,0.5338,0.5388,0.5787,0.6037,0.6239,0.6686,0.7036,0.7341,0.7882,0.8131,0.8333,0.9072,0.9369,0.9517,0.9969,1.0462,1.09,1.09,1.1292,1.178,1.1883,1.2224,1.2467,1.2224,1.2419,1.2662,1.2662,1.291,1.3104,1.3249,1.3249,1.3298,1.3491,1.3678,1.3823,1.3823,1.4346,1.4867,1.5166,1.5404,1.5635,1.5866,1.5967,1.6109,1.6393,1.6527,1.681,1.7145,1.734,1.7293,1.6998,1.6763,1.6615,1.6615,1.681,1.6911,1.7059,1.7301,1.7488,1.7621,1.78,1.7817,-0.0854,0.0,0.0,0.0,0.0,0.0,0.0,0.0,0.0,0.0,0.0,-0.1885,-0.2154,-0.2202,-0.2188,-0.2276,-0.2054,-0.189,-0.1961,-0.1768,-0.1566,-0.1566,-0.1566,-0.1566,-0.1516,-0.1314,-0.1162,-0.1111,-0.0859,-0.0505,0.0051,0.0354,0.0859,0.1667,0.217,0.2725,0.323,0.353,0.3932,0.4438,0.4438,0.4638,0.4885,0.4587,0.4587,0.4834,0.5138,0.524,0.524,0.5536,0.5684,0.5734,0.6284,0.6537,0.6637,0.7431,0.7882,0.8187,0.8726,0.9126,0.9381,0.9969,1.0314,1.056,1.085,1.1292,1.1731,1.1731,1.1932,1.2175,1.2419,1.2667,1.2813,1.2565,1.2807,1.3147,1.3147,1.3346,1.3491,1.3539,1.3539,1.3588,1.3588,1.4016,1.4394,1.4442,1.5057,1.5534,1.5534,1.6001,1.6426,1.6723,1.6972,1.7207,1.7426,1.7426,1.766,1.8179,1.8218,1.8411,1.8874,1.7978,1.7426,1.7426,1.7426,1.7574,1.7815,1.8087,1.8311,1.8589,1.8781,1.8728,0.0,0.0,0.0,0.0,0.0,0.0,0.0,0.0,0.0,0.0,0.0,-0.1885,-0.2154,-0.2047,-0.1901,-0.1996,-0.1788,-0.1673,-0.1662,-0.1617,-0.1516,-0.1314,-0.1263,-0.1212,-0.101,-0.0909,-0.0808,-0.0606,-0.0303,0.0051,0.0606,0.1061,0.1616,0.222,0.2725,0.3179,0.3528,0.3984,0.4384,0.4736,0.4939,0.519,0.5434,0.4935,0.4836,0.514,0.5386,0.5536,0.5536,0.6037,0.6237,0.6287,0.7033,0.7484,0.7739,0.8329,0.873,0.9034,0.9817,1.0113,1.0265,1.0998,1.1292,1.1389,1.1683,1.2127,1.2516,1.2516,1.2861,1.3195,1.3249,1.3298,1.3346,1.3298,1.3346,1.3394,1.3394,1.3443,1.3539,1.3786,1.3973,1.4202,1.4406,1.4694,1.5029,1.5397,1.5967,1.64,1.6643,1.6911,1.7232,1.7714,1.7807,1.804,1.845,1.8504,1.8643,1.8958,1.8958,1.9188,1.9654,1.8912,1.8504,1.8504,1.8504,1.8504,1.855,1.8819,1.9004,1.905,1.9471,1.9455,0.0,0.0,0.0,0.0,0.0,0.0,0.0,0.0,0.0,0.0,-0.1615,-0.166,-0.1794,-0.1734,-0.1677,-0.1711,-0.1551,-0.1384,-0.1411,-0.1313,-0.1162,-0.101,-0.0909,-0.0758,-0.0606,-0.0354,-0.0101,0.0152,0.0404,0.0858,0.1514,0.1969,0.2423,0.2975,0.3481,0.3883,0.418,0.4585,0.4939,0.5186,0.5336,0.5486,0.5584,0.5336,0.5236,0.5388,0.5689,0.5887,0.6037,0.6437,0.6736,0.7033,0.773,0.8131,0.8482,0.927,0.9669,0.9871,1.0708,1.0949,1.1096,1.178,1.2078,1.2224,1.2467,1.2807,1.3152,1.3152,1.3298,1.3491,1.3491,1.3593,1.3738,1.3871,1.3781,1.369,1.369,1.3877,1.4118,1.4262,1.4586,1.4867,1.5016,1.5452,1.5933,1.6312,1.6918,1.7387,1.7488,1.7807,1.8172,1.8589,1.8635,1.8827,1.9288,1.9333,1.9517,1.9874,1.992,2.0056,2.0419,2.0048,1.9729,1.9509,1.9509,1.9509,1.9509,1.9783,1.992,1.992,2.0283,2.0117,0.0,0.0,0.0,0.0,0.0,0.0,0.0,0.0,0.0,0.0,-0.139,-0.1391,-0.1391,-0.1419,-0.145,-0.1426,-0.1264,-0.1092,-0.1058,-0.0859,-0.0707,-0.0606,-0.0354,-0.0152,-0.0152,0.0303,0.0757,0.106,0.1262,0.1767,0.2573,0.2875,0.3278,0.3778,0.4284,0.4688,0.4935,0.5138,0.5388,0.5687,0.5787,0.5787,0.5787,0.5837,0.5834,0.5734,0.6039,0.6339,0.6637,0.6892,0.7338,0.7879,0.8379,0.8779,0.9171,1.0162,1.056,1.0703,1.1541,1.1834,1.1883,1.2419,1.2759,1.2958,1.3098,1.3346,1.3588,1.3588,1.3588,1.3636,1.3684,1.3877,1.4124,1.4346,1.4304,1.4166,1.4124,1.4502,1.4831,1.4831,1.5255,1.5629,1.5724,1.6339,1.6918,1.716,1.7807,1.8265,1.8265,1.8689,1.9104,1.9371,1.9417,1.9646,2.0056,2.011,2.0292,2.0736,2.0744,2.0826,2.1051,2.1087,2.0961,2.0609,2.0473,2.0419,2.0419,2.0699,2.0835,2.0835,2.098,2.0703,0.0,0.0,0.0,0.0,0.0,0.0,0.0,0.0,0.0,0.0,-0.13,-0.1391,-0.1391,-0.125,-0.1141,-0.1144,-0.0983,-0.0755,-0.0555,-0.0455,-0.0303,0.0202,0.0455,0.0707,0.096,0.1262,0.1664,0.217,0.222,0.2572,0.3377,0.3679,0.4083,0.4634,0.4937,0.5238,0.5484,0.5536,0.5689,0.5942,0.6442,0.6642,0.6642,0.6889,0.6736,0.6287,0.6592,0.6989,0.7481,0.7739,0.8134,0.8676,0.9229,0.9723,1.0261,1.085,1.1243,1.1536,1.237,1.2613,1.2716,1.3201,1.3394,1.3394,1.3443,1.3642,1.3835,1.3835,1.4022,1.425,1.4496,1.455,1.4646,1.4933,1.5118,1.5159,1.4987,1.5118,1.5296,1.5296,1.5913,1.6581,1.6998,1.752,1.79,1.7947,1.8589,1.905,1.905,1.9471,1.9837,2.011,2.0374,2.06,2.0817,2.0862,2.0862,2.0952,2.0952,2.1096,2.1347,2.1517,2.1687,2.1874,2.123,2.0907,2.0907,2.1159,2.1302,2.1293,2.133,2.1081,0.0,0.0,0.0,0.0,0.0,0.0,0.0,0.0,0.0,-0.0897,-0.0852,-0.0852,-0.0987,-0.0965,-0.0894,-0.0714,-0.0488,-0.0249,0.0,0.0303,0.0606,0.0808,0.1363,0.1615,0.1463,0.2069,0.2572,0.2822,0.3126,0.3578,0.4232,0.4535,0.4836,0.5236,0.5386,0.5539,0.5839,0.5839,0.6039,0.6442,0.6842,0.7089,0.7238,0.7385,0.7282,0.7083,0.7185,0.7633,0.8276,0.8379,0.8928,0.9719,1.0117,1.0609,1.1145,1.1834,1.2175,1.237,1.3001,1.3201,1.3249,1.3593,1.3738,1.3732,1.3919,1.4166,1.4358,1.4358,1.455,1.479,1.4885,1.5022,1.5159,1.5404,1.5778,1.6109,1.617,1.6116,1.6197,1.6629,1.7099,1.7567,1.7885,1.8404,1.8727,1.8727,1.9325,1.9828,1.9828,2.0238,2.0555,2.069,2.0826,2.0961,2.1195,2.1239,2.1329,2.1597,2.1642,2.1731,2.1963,2.2043,2.2132,2.2264,2.1945,2.1758,2.1758,2.1909,2.1963,2.1954,2.1945,2.1635,0.0,0.0,0.0,0.0,0.0,0.0,0.0,0.0,0.0,0.0,-0.0224,-0.0045,-0.0224,-0.0365,-0.0418,-0.0142,0.0097,0.0395,0.0751,0.1209,0.1515,0.1615,0.227,0.2572,0.2218,0.2976,0.3581,0.3677,0.4081,0.4485,0.4985,0.5238,0.5489,0.5687,0.5787,0.5937,0.6192,0.6292,0.6542,0.6992,0.7288,0.7584,0.7928,0.7982,0.8081,0.8177,0.7978,0.8326,0.9023,0.9171,0.9768,1.0659,1.0949,1.1438,1.1975,1.2613,1.291,1.3055,1.3448,1.3588,1.3642,1.3979,1.4118,1.4166,1.44,1.464,1.479,1.4879,1.5022,1.522,1.5363,1.554,1.5771,1.6015,1.6494,1.6918,1.7113,1.7066,1.7192,1.7861,1.8179,1.8496,1.8819,1.9188,1.9509,1.9554,2.0102,2.0464,2.0464,2.0826,2.1096,2.1096,2.1132,2.1275,2.1571,2.1571,2.175,2.2141,2.2185,2.222,2.2388,2.252,2.2574,2.2574,2.2706,2.2652,2.2397,2.252,2.2574,2.2564,2.26,2.2236,0.0,0.0,0.0,0.0,0.0,0.0,0.0,0.0,0.0,0.0,0.0718,0.1031,0.0987,0.0639,0.0416,0.0602,0.091,0.1277,0.1771,0.2096,0.2422,0.2675,0.3228,0.3629,0.3831,0.4135,0.4539,0.5039,0.514,0.524,0.5536,0.5789,0.5942,0.5992,0.6239,0.6489,0.6745,0.6989,0.7285,0.758,0.7836,0.8233,0.8726,0.8981,0.9381,0.9821,0.9072,0.9027,0.9579,1.0117,1.0654,1.1194,1.1736,1.2273,1.2764,1.3001,1.3244,1.3491,1.3786,1.3883,1.3979,1.4502,1.4646,1.4694,1.4987,1.5083,1.5124,1.5296,1.5384,1.5486,1.6001,1.6339,1.6636,1.6885,1.7308,1.7628,1.7682,1.7861,1.8179,1.8643,1.8966,1.9279,1.9745,2.0065,2.0337,2.0564,2.0826,2.0952,2.0952,2.1195,2.1392,2.1392,2.1562,2.1776,2.2052,2.2052,2.2141,2.2353,2.2397,2.2397,2.2397,2.2838,2.3047,2.3047,2.3493,2.3266,2.2397,2.2828,2.3047,2.3091,2.312,2.2892,0.0,0.0,0.0,0.0,0.0,0.0,0.0,0.0,0.0897,0.1031,0.1436,0.1794,0.1794,0.1399,0.1184,0.1616,0.178,0.2042,0.2548,0.3034,0.3416,0.3515,0.4153,0.4585,0.4535,0.4937,0.5388,0.5947,0.5992,0.6089,0.6339,0.6639,0.6789,0.6789,0.6889,0.7036,0.7335,0.7587,0.7935,0.8375,0.8634,0.913,0.9817,0.992,1.0265,1.0752,1.065,1.0605,1.0659,1.1002,1.1585,1.2273,1.2419,1.2807,1.3298,1.3539,1.3775,1.4064,1.431,1.455,1.47,1.4892,1.5022,1.5153,1.5255,1.554,1.5872,1.6109,1.6298,1.6494,1.681,1.7232,1.7707,1.8272,1.8542,1.8735,1.9058,1.8958,1.8958,1.9425,1.9745,2.0019,2.0337,2.06,2.0781,2.0871,2.1105,2.1248,2.1248,2.1607,2.183,2.183,2.2043,2.2176,2.2264,2.2309,2.2441,2.2838,2.2828,2.296,2.3266,2.344,2.3624,2.3807,2.398,2.3807,2.3319,2.3493,2.3624,2.3807,2.3819,2.3664,0.0,0.0,0.0,0.0,0.0,0.0,0.0,0.0,0.1615,0.1749,0.2198,0.2557,0.2647,0.242,0.2296,0.2513,0.2626,0.2835,0.3294,0.3833,0.4231,0.4307,0.4952,0.5402,0.5331,0.5737,0.6189,0.6645,0.6689,0.6739,0.6942,0.7089,0.7238,0.7335,0.7484,0.7733,0.7978,0.8283,0.873,0.932,0.9525,1.0019,1.0801,1.0801,1.11,1.1639,1.1883,1.1785,1.1492,1.1883,1.237,1.291,1.3104,1.3394,1.3775,1.407,1.4358,1.4592,1.4825,1.507,1.5213,1.5404,1.5635,1.5818,1.592,1.6244,1.6622,1.6911,1.7153,1.7441,1.766,1.8071,1.8635,1.9279,1.9509,1.9691,2.0065,1.9837,1.9691,2.011,2.0382,2.06,2.0888,2.106,2.1141,2.123,2.1463,2.1616,2.1616,2.1963,2.2185,2.2185,2.2397,2.2574,2.2618,2.2706,2.2925,2.3309,2.3406,2.3624,2.3927,2.41,2.4272,2.454,2.4615,2.4572,2.4476,2.4272,2.4315,2.4529,2.4615,2.4535,0.0,0.0,0.0,0.0,0.0,0.0,0.1749,0.0,0.2513,0.2558,0.2915,0.3317,0.3587,0.3807,0.3805,0.3315,0.3511,0.3788,0.4014,0.455,0.4975,0.5121,0.5625,0.6061,0.6371,0.6689,0.6942,0.7188,0.7238,0.7238,0.7238,0.7238,0.7385,0.763,0.8131,0.8577,0.8825,0.908,0.9628,1.0408,1.0462,1.085,1.1634,1.1634,1.1932,1.2467,1.271,1.2516,1.2127,1.2619,1.2953,1.3195,1.3684,1.407,1.4346,1.464,1.4885,1.5124,1.535,1.5439,1.5527,1.6048,1.6433,1.6683,1.6932,1.7153,1.738,1.7675,1.7955,1.8218,1.8496,1.8912,1.9371,1.9837,2.011,2.0382,2.0654,2.0518,2.0428,2.0654,2.0871,2.1096,2.1347,2.1446,2.1482,2.1696,2.1919,2.2097,2.2097,2.2309,2.2441,2.2441,2.2662,2.2925,2.3135,2.3363,2.3634,2.3841,2.4067,2.4249,2.4249,2.47,2.5031,2.5242,2.5411,2.5664,2.5937,2.5253,2.5031,2.5242,2.5454,2.5456,0.0545,0.0,0.0,0.0,0.0,0.0,0.0,0.0,0.0,0.3449,0.3762,0.4076,0.4346,0.4567,0.4652,0.4518,0.4457,0.4473,0.4694,0.5235,0.564,0.567,0.6303,0.6717,0.6801,0.718,0.7487,0.7739,0.7935,0.8131,0.8329,0.8379,0.8478,0.8733,0.8886,0.9179,0.9673,0.992,1.0364,1.0998,1.1389,1.1883,1.2467,1.2613,1.2856,1.3201,1.3249,1.3437,1.3667,1.3389,1.3582,1.3962,1.4112,1.4448,1.4933,1.5112,1.5397,1.5689,1.6109,1.64,1.6588,1.6904,1.7192,1.7441,1.7714,1.7986,1.8257,1.8681,1.8819,1.905,1.9646,2.0056,2.0329,2.0637,2.0727,2.0871,2.1159,2.1167,2.1122,2.1212,2.1248,2.1338,2.1562,2.1785,2.1928,2.1963,2.2176,2.2309,2.2309,2.2652,2.2916,2.2916,2.3276,2.3624,2.3851,2.398,2.4196,2.4562,2.4775,2.4988,2.5115,2.5464,2.5717,2.5904,2.6113,2.6373,2.6603,2.5937,2.579,2.6155,2.6569,2.6515,0.0,0.0,0.0,0.0,0.0,0.0,0.3224,0.3494,0.3762,0.0,0.4431,0.4656,0.4926,0.5146,0.5322,0.5455,0.5413,0.5369,0.5322,0.5782,0.6162,0.6353,0.6823,0.7254,0.7466,0.7791,0.8167,0.8482,0.8634,0.8832,0.9126,0.9225,0.9422,0.9677,0.9826,1.0117,1.0654,1.0801,1.1243,1.1878,1.2175,1.2613,1.3104,1.3201,1.3485,1.3823,1.3823,1.416,1.464,1.4394,1.4442,1.464,1.4723,1.5016,1.541,1.5778,1.6062,1.6353,1.6871,1.7246,1.7488,1.7753,1.8032,1.8365,1.8504,1.8819,1.9142,1.9425,1.9646,1.992,2.0464,2.069,2.0916,2.123,2.1275,2.141,2.1741,2.183,2.1785,2.1705,2.1705,2.175,2.1963,2.2132,2.223,2.223,2.2485,2.2696,2.2696,2.3091,2.344,2.3537,2.3884,2.4229,2.4583,2.47,2.4914,2.5295,2.558,2.5779,2.5904,2.6249,2.6539,2.6734,2.6857,2.7115,2.7452,2.6745,2.6622,2.694,2.7389,2.748,0.0,0.0,0.0,0.0,0.0,0.0,0.3848,0.4162,0.4433,0.4703,0.4924,0.5144,0.5416,0.5633,0.5855,0.6127,0.6343,0.634,0.5897,0.6207,0.6608,0.7002,0.7311,0.7703,0.8163,0.8516,0.8892,0.9292,0.9373,0.9529,0.9776,1.0019,1.0265,1.0511,1.0801,1.1198,1.1683,1.1731,1.2127,1.2813,1.291,1.3152,1.3588,1.3636,1.3919,1.4394,1.4394,1.4736,1.5178,1.5439,1.5397,1.522,1.5397,1.5676,1.5974,1.6487,1.6871,1.7167,1.7675,1.8001,1.8265,1.8542,1.8958,1.9279,1.9371,1.9654,1.9973,2.0019,2.0382,2.0835,2.1042,2.1132,2.1266,2.1687,2.1785,2.1909,2.2353,2.2441,2.2397,2.2274,2.2185,2.2185,2.2397,2.2441,2.2485,2.253,2.2925,2.3222,2.3222,2.3614,2.4013,2.4282,2.4497,2.4786,2.5285,2.5496,2.5717,2.5979,2.6373,2.661,2.661,2.7062,2.7389,2.7563,2.7644,2.7846,2.8299,2.7684,2.7429,2.7632,2.8087,2.8299,0.0,0.0,0.0,0.0,0.0,0.0,0.4192,0.4565,0.4921,0.5193,0.5413,0.5633,0.5905,0.6121,0.6343,0.6615,0.6833,0.6874,0.6615,0.6789,0.7061,0.7354,0.7878,0.8257,0.8371,0.904,0.9604,0.9878,1.0467,1.085,1.0904,1.0953,1.1096,1.134,1.1634,1.1932,1.2224,1.2613,1.2905,1.305,1.3491,1.3829,1.4154,1.4352,1.4646,1.4933,1.5112,1.5391,1.5689,1.6157,1.6109,1.5689,1.5961,1.6346,1.6784,1.7052,1.7473,1.7947,1.8411,1.8781,1.905,1.9471,1.97,1.9837,2.0292,2.0473,2.0564,2.0736,2.1141,2.1508,2.1553,2.1856,2.2167,2.2264,2.2264,2.2353,2.2662,2.2706,2.2838,2.3154,2.275,2.2397,2.2662,2.2882,2.3057,2.3232,2.3677,2.398,2.398,2.4401,2.4775,2.4988,2.52,2.5485,2.5946,2.6196,2.6415,2.6685,2.7074,2.7307,2.7307,2.7765,2.8007,2.8047,2.8355,2.8685,2.8934,2.8459,2.8339,2.8554,2.8816,2.8934,0.0,0.0,0.0,0.3572,0.0,0.0,0.0,0.5099,0.5411,0.5683,0.5902,0.6077,0.6213,0.652,0.6786,0.6922,0.7363,0.7669,0.7672,0.7669,0.7757,0.8017,0.8545,0.895,0.9132,0.9627,1.0147,1.0618,1.1254,1.1669,1.1766,1.192,1.2127,1.2316,1.2467,1.2662,1.2953,1.3286,1.3576,1.3721,1.4118,1.4454,1.4694,1.4921,1.5207,1.5458,1.5825,1.6157,1.6447,1.6918,1.7059,1.6958,1.6958,1.72,1.7581,1.7939,1.8311,1.8727,1.9196,1.9509,1.9828,2.0201,2.0382,2.051,2.0934,2.1203,2.1463,2.1633,2.1856,2.2087,2.222,2.2397,2.2662,2.2882,2.2969,2.3013,2.3232,2.3406,2.359,2.3807,2.3614,2.343,2.3319,2.3493,2.3677,2.3807,2.4229,2.4583,2.47,2.4988,2.5327,2.5653,2.5863,2.6196,2.664,2.6899,2.7115,2.7394,2.7788,2.8018,2.8018,2.8419,2.8657,2.8657,2.8855,2.904,2.9236,2.904,2.8961,2.8961,2.9157,2.9236,0.0,0.0,0.0,0.0,0.0,0.5063,0.0,0.0,0.0,0.6124,0.0,0.0,0.0,0.0,0.0,0.736,0.0,0.0,0.0,0.8723,0.0,0.8767,0.9253,0.9671,1.0013,1.0333,1.0755,1.1278,1.1802,1.2245,1.2532,1.2804,1.3027,1.3267,1.336,1.3485,1.3732,1.401,1.425,1.4442,1.4736,1.4981,1.5226,1.5493,1.5778,1.6069,1.6629,1.7012,1.7261,1.7768,1.8133,1.8357,1.7994,1.804,1.8357,1.8781,1.9142,1.9463,1.9882,2.0246,2.0564,2.0789,2.1051,2.132,2.1517,2.1883,2.2274,2.2441,2.253,2.2662,2.2925,2.3023,2.3188,2.358,2.3667,2.3754,2.397,2.4186,2.4411,2.4454,2.4605,2.4594,2.41,2.4229,2.4411,2.4454,2.4861,2.5232,2.5401,2.5622,2.5946,2.6393,2.661,2.6899,2.7348,2.7603,2.7817,2.8042,2.8391,2.863,2.863,2.8973,2.9209,2.9287,2.9287,2.9404,2.9574,2.9574,2.9509,2.9287,2.947,2.9574,0.0,0.0,0.0,0.0,0.5289,0.5583,0.5921,0.0,0.634,0.6343,0.0,0.0,0.0,0.0,0.0,0.0,0.0,0.0,0.9471,0.999,1.0115,0.9559,1.0077,1.0472,1.0497,1.13,1.1779,1.1756,1.2277,1.2728,1.3008,1.3287,1.3526,1.3807,1.4279,1.4544,1.455,1.4838,1.4987,1.5035,1.5207,1.5445,1.5737,1.6251,1.6588,1.6885,1.7621,1.7947,1.804,1.8727,1.9188,1.9363,1.8673,1.8681,1.9096,1.9417,1.9783,2.0201,2.0518,2.0888,2.1302,2.1517,2.1865,2.2264,2.2264,2.2485,2.2715,2.2759,2.3057,2.3416,2.3624,2.3851,2.411,2.4337,2.437,2.4456,2.4733,2.4946,2.5158,2.5327,2.5549,2.5559,2.4903,2.4946,2.5158,2.5327,2.5737,2.6102,2.6321,2.6592,2.688,2.7319,2.7348,2.7603,2.8059,2.8259,2.8459,2.8685,2.8934,2.9013,2.9013,2.9236,2.9548,2.996,2.9998,3.0113,3.0292,3.0292,3.0177,2.9998,2.9998,3.0101,0.0,0.0,0.0,0.0,0.0,0.0,0.641,0.6656,0.683,0.7003,0.0,0.0,0.0,0.0,0.0,0.0,0.9602,0.0,0.0,0.0,1.0982,1.0246,0.0,0.0,1.1628,1.2117,1.2438,1.2531,1.2954,1.3266,1.3495,1.3758,1.3997,1.4259,1.4471,1.4673,1.4818,1.5048,1.5147,1.514,1.5547,1.5821,1.592,1.6784,1.7239,1.7392,1.8318,1.8819,1.9004,1.9417,1.9874,2.0238,2.0048,2.0002,2.0056,2.0192,2.0518,2.0979,2.1203,2.1517,2.1874,2.223,2.2662,2.3057,2.3057,2.3319,2.359,2.359,2.3841,2.4122,2.4391,2.4605,2.4818,2.502,2.5189,2.5327,2.5464,2.5622,2.5863,2.603,2.6302,2.6426,2.6268,2.6071,2.5988,2.6071,2.6487,2.6857,2.7062,2.7196,2.74,2.7846,2.8007,2.8219,2.8526,2.8736,2.8895,2.8961,2.93,2.9611,2.9819,2.9934,3.005,3.0254,3.0254,3.0381,3.0571,3.0571,3.0647,3.0785,3.0444,3.0381,0.5636,0.0,0.0,0.0,0.6536,0.671,0.7078,0.7275,0.7492,0.7753,0.8197,0.0,0.0,0.0,0.0,0.0,0.0,1.0852,0.0,1.1482,0.0,0.0,0.0,0.0,0.0,1.2881,1.3094,1.3362,1.3539,1.3734,1.395,1.4229,1.4474,1.4779,1.4852,1.5033,1.5263,1.5449,1.5493,1.5493,1.6027,1.6249,1.63,1.7286,1.7751,1.7848,1.8783,1.9294,1.9564,1.9841,2.0243,2.0696,2.0855,2.0943,2.0935,2.1025,2.1293,2.1616,2.1919,2.2264,2.2599,2.2877,2.3272,2.3553,2.3433,2.3701,2.4072,2.4072,2.4273,2.4514,2.4775,2.4973,2.5213,2.5592,2.5843,2.6105,2.6238,2.6415,2.6599,2.6734,2.7044,2.729,2.7429,2.7062,2.6775,2.6846,2.7226,2.7551,2.7834,2.7846,2.8007,2.8407,2.8618,2.8855,2.9052,2.9248,2.9404,2.9443,2.9767,3.0126,3.0457,3.0482,3.052,3.0621,3.0672,3.0748,3.1037,3.1037,3.1211,3.1519,3.0923,3.0748,0.6387,0.6694,0.7132,0.7401,0.7441,0.7573,0.8065,0.8157,0.8245,0.8504,0.8947,0.9262,0.0,0.0,0.0,0.0,0.0,0.0,0.0,0.0,0.0,0.0,0.0,0.0,0.0,1.3616,1.3792,1.403,1.4088,1.4153,1.4363,1.4649,1.4986,1.5433,1.5775,1.6072,1.6256,1.6256,1.6256,1.6256,1.6735,1.6955,1.6999,1.7751,1.8186,1.8387,1.8878,1.9222,1.9427,1.9913,2.0262,2.0515,2.0717,2.1094,2.1511,2.1895,2.2052,2.2141,2.2583,2.3188,2.3727,2.3559,2.3627,2.3701,2.3258,2.3396,2.3718,2.3718,2.4049,2.4458,2.4667,2.4842,2.5178,2.5887,2.6251,2.6548,2.7041,2.7307,2.7482,2.747,2.7846,2.8179,2.8179,2.7765,2.7551,2.773,2.7995,2.8327,2.8712,2.8752,2.8843,2.9052,2.9275,2.947,2.9753,2.9934,3.0152,3.0368,3.0368,3.0457,3.0698,3.0698,3.0874,3.1272,3.1272,3.1471,3.1853,3.1853,3.195,3.2055,3.1519,3.1397,0.7319,0.7713,0.8109,0.8193,0.8237,0.8372,0.8815,0.8907,0.9038,0.9423,0.9859,1.0164,1.0164,0.0,0.0,0.0,0.0,0.0,0.0,0.0,1.2696,0.0,0.0,0.0,0.0,1.3615,1.3857,1.4065,1.4099,1.4263,1.4712,1.4826,1.5191,1.5871,1.6032,1.6212,1.6542,1.6542,1.6542,1.6584,1.7046,1.7255,1.7313,1.8221,1.8659,1.876,1.9466,1.992,2.0132,2.0418,2.0806,2.1159,2.14,2.1722,2.205,2.1809,2.1882,2.2168,2.2631,2.3122,2.3546,2.3606,2.3798,2.3979,2.398,2.4136,2.4403,2.45,2.4786,2.5021,2.5255,2.5449,2.565,2.5899,2.6256,2.6573,2.6749,2.6939,2.7189,2.7729,2.8086,2.8429,2.8927,2.8976,2.8846,2.8502,2.8633,2.8882,2.9145,2.9184,2.9353,2.9715,2.9831,2.9947,3.019,3.0381,3.0647,3.0973,3.1011,3.1099,3.1312,3.141,3.1559,3.1693,3.1776,3.1959,3.2214,3.2359,3.2525,3.2704,3.2668,3.2467,0.8336,0.8727,0.9117,0.9117,0.9161,0.9292,0.9689,0.982,0.9994,1.0381,1.0809,1.1111,1.1111,0.0,0.0,0.0,0.0,0.0,0.0,1.2883,0.0,0.0,0.0,0.0,0.0,1.3824,1.4098,1.4294,1.445,1.4695,1.5036,1.5123,1.546,1.6124,1.6132,1.638,1.6944,1.6944,1.7009,1.718,1.7554,1.7797,1.7878,1.8615,1.9014,1.9195,1.9766,2.0172,2.046,2.0737,2.1063,2.1416,2.1608,2.2,2.235,2.2076,2.2267,2.2707,2.3042,2.3446,2.3855,2.3921,2.4074,2.4287,2.4305,2.448,2.4682,2.4774,2.4952,2.5142,2.533,2.5555,2.5751,2.6014,2.6362,2.6695,2.6962,2.7099,2.7308,2.7901,2.8175,2.8475,2.9,2.9441,2.9643,2.9328,2.9365,2.956,2.9819,2.9857,3.0011,3.0381,3.0482,3.0609,3.0798,3.1024,3.1261,3.1508,3.1569,3.1666,3.1877,3.2023,3.2169,3.23,3.2395,3.2561,3.2824,3.2966,3.3108,3.3318,3.3458,3.3318]}]]